[[{"header":{"parameterUnit":"m.s-1","parameterCategory":1,"la1":31.0,"la2":29.5877,"lo1":-88.7671,"lo2":-86.6584,"dy":0.0162,"dx":0.0185,"nx":115,"ny":88,"refTime":"2023-05-17T06:00:00:Z","depth":0,"parameterNumber":2,"parameterNumberName":"U-component_of_WINDS"},"data":[0.0,0.0,0.0,0.0,0.0,0.0,0.0,0.0,0.0,0.0,0.0,0.0,0.0,0.0,0.0,0.0,0.0,0.0,0.0,0.0,0.0,0.0,0.0,0.0,0.0,0.0,0.0,0.0,0.0,0.0,0.0,0.0,0.0,0.0,0.0,0.0,0.0,0.0,0.0,0.0,0.0,0.0,0.0,0.0,0.0,0.0,0.0,0.0,0.0,0.0,0.0,0.0,0.0,0.0,0.0,0.0,0.0,0.0,0.0,0.0,0.0,0.0,0.0,0.0,0.0,0.0,0.0,0.0,0.0,0.0,0.0,0.0,0.0,0.0,0.0,0.0,0.0,0.0,0.0,0.0,0.0,0.0,0.0,0.0,0.0,0.0,0.0,0.0,0.0,0.0,0.0,0.0,0.0,0.0,0.0,0.0,0.0,0.0,0.0,0.0,0.0,0.0,0.0,0.0,0.0,0.0,0.0,0.0,0.0,0.0,0.0,0.0,0.0,0.0,0.0,0.0,0.0,0.0,0.0,0.0,0.0,0.0,0.0,0.0,0.0,0.0,0.0,0.0,0.0,0.0,0.0,0.0,0.0,0.0,0.0,0.0,0.0,0.0,0.0,0.0,0.0,0.0,0.0,0.0,0.0,0.0,0.0,0.0,0.0,0.0,0.0,0.0,0.0,0.0,0.0,0.0,0.0,0.0,0.0,0.0,0.0,0.0,0.0,0.0,0.0,0.0,0.0,0.0,0.0,0.0,0.0,0.0,0.0,0.0,0.0,0.0,0.0,0.0,0.0,0.0,0.0,0.0,0.0,0.0,0.0,0.0,0.0,0.0,0.0,0.0,0.0,0.0,0.0,0.0,0.0,0.0,0.0,0.0,0.0,0.0,0.0,0.0,0.0,0.0,0.0,0.0,0.0,0.0,0.0,0.0,0.0,0.0,0.0,0.0,0.0,0.0,0.0,0.0,0.0,0.0,0.0,0.0,0.0,0.0,0.0,0.0,0.0,0.0,0.0,0.0,0.0,0.0,0.0,0.0,0.0,0.0,0.0,0.0,0.0,0.0,0.0,0.0,0.0,0.0,0.0,0.0,0.0,0.0,0.0,0.0,0.0,0.0,0.0,0.0,0.0,0.0,0.0,0.0,0.0,0.0,0.0,0.0,0.0,0.0,0.0,0.0,0.0,0.0,0.0,0.0,0.0,0.0,0.0,0.0,0.0,0.0,0.0,0.0,0.0,0.0,0.0,0.0,0.0,0.0,0.0,0.0,0.0,0.0,0.0,0.0,0.0,0.0,0.0,0.0,0.0,0.0,0.0,0.0,0.0,0.0,0.0,0.0,0.0,0.0,0.0,0.0,0.0,0.0,0.0,0.0,0.0,0.0,0.0,0.0,0.0,0.0,0.0,0.0,0.0,0.0,0.0,0.0,0.0,0.0,0.0,0.0,0.0,0.0,0.0,0.0,0.0,0.0,0.0,0.0,0.0,0.0,0.0,0.0,0.0,0.0,0.0,0.0,0.0,0.0,0.0,0.0,0.0,0.0,0.0,0.0,0.0,0.0,0.0,0.0,0.0,0.0,0.0,0.0,0.0,0.0,0.0,0.0,0.0,0.0,0.0,0.0,0.0,0.0,0.0,0.0,0.0,0.0,0.0,0.0,0.0,0.0,0.0,0.0,0.0,0.0,0.0,0.0,0.0,0.0,0.0,0.0,0.0,0.0,0.0,0.0,0.0,0.0,0.0,0.0,0.0,0.0,0.0,0.0,0.0,0.0,0.0,0.0,0.0,0.0,0.0,0.0,0.0,0.0,0.0,0.0,0.0,0.0,0.0,0.0,0.0,0.0,0.0,0.0,0.0,0.0,0.0,0.0,0.0,0.0,0.0,0.0,0.0,0.0,0.0,0.0,0.0,0.0,0.0,0.0,0.0,0.0,0.0,0.0,0.0,0.0,0.0,0.0,0.0,0.0,0.0,0.0,0.0,0.0,0.0,0.0,0.0,0.0,0.0,0.0,0.0,0.0,0.0,0.0,0.0,0.0,0.0,0.0,0.0,0.0,0.0,0.0,0.0,0.0,0.0,0.0,0.0,0.0,0.0,0.0,0.0,0.0,0.0,0.0,0.0,0.0,0.0,0.0,0.0,0.0,0.0,0.0,0.0,0.0,0.0,0.0,0.0,0.0,0.0,0.0,0.0,0.0,0.0,0.0,0.0,0.0,0.0,0.0,0.0,0.0,0.0,0.0,0.0,0.0,0.0,0.0,0.0,0.0,0.0,0.0,0.0,0.0,0.0,0.0,0.0,0.0,0.0,0.0,0.0,0.0,0.0,0.0,0.0,0.0,0.0,0.0,0.0,0.0,0.0,0.0,0.0,0.0,0.0,0.0,0.0,0.0,0.0,0.0,0.0,0.0,0.0,0.0,0.0,0.0,0.0,0.0,0.0,0.0,0.0,0.0,0.0,0.0,0.0,0.0,0.0,0.0,0.0,0.0,0.0,0.0,0.0,0.0,0.0,0.0,0.0,0.0,0.0,0.0,0.0,0.0,0.0,0.0,0.0,0.0,0.0,0.0,0.0,0.0,0.0,0.0,0.0,0.0,0.0,0.0,0.0,0.0,0.0,0.0,0.0,0.0,0.0,0.0,0.0,0.0,0.0,0.0,0.0,0.0,0.0,0.0,0.0,0.0,0.0,0.0,0.0,0.0,0.0,0.0,0.0,0.0,0.0,0.0,0.0,0.0,0.0,0.0,0.0,0.0,0.0,0.0,0.0,0.0,0.0,0.0,0.0,0.0,0.0,0.0,0.0,0.0,0.0,0.0,0.0,0.0,0.0,0.0,0.0,0.0,0.0,0.0,0.0,0.0,0.0,0.0,0.0,0.0,0.0,0.0,0.0,0.0,0.0,0.0,0.0,0.0,0.0,0.0,0.0,0.0,0.0,0.0,0.0,0.0,0.0,0.0,0.0,0.0,0.0,0.0,0.0,0.0,0.0,0.0,0.0,0.0,0.0,0.0,0.0,0.0,0.0,0.0,0.0,0.0,0.0,0.0,0.0,0.0,0.0,0.0,0.0,0.0,0.0,0.0,0.0,0.0,0.0,0.0,0.0,0.0,0.0,0.0,0.0,0.0,0.0,0.0,0.0,0.0,0.0,0.0,0.0,0.0,0.0,0.0,0.0,0.0,0.0,0.0,0.0,0.0,0.0,0.0,0.0,0.0,0.0,0.0,0.0,0.0,0.0,0.0,0.0,0.0,0.0,0.0,0.0,0.0,0.0,0.0,0.0,0.0,0.0,0.0,0.0,0.0,0.0,0.0,0.0,0.0,0.0,0.0,0.0,0.0,0.0,0.0,0.0,0.0,0.0,0.0,0.0,0.0,0.0,0.0,0.0,0.0,0.0,0.0,0.0,0.0,0.0,0.0,0.0,0.0,0.0,0.0,0.0,0.0,0.0,0.0,0.0,0.0,0.0,0.0,0.0,0.0,0.0,0.0,0.0,0.0,0.0,0.0,0.0,0.0,0.0,0.0,0.0,0.0,0.0,0.0,0.0,0.0,0.0,0.0,0.0,0.0,0.0,0.0,0.0,0.0,0.0,0.0,0.0,0.0,0.0,0.0,0.0,0.0,0.0,0.0,0.0,0.0,0.0,0.0,0.0,0.0,0.0,0.0,0.0,0.0,0.0,0.0,0.0,0.0,0.0,0.0,0.0,0.0,0.0,0.0,0.0,0.0,0.0,0.0,0.0,0.0,0.0,0.0,0.0,0.0,0.0,0.0,0.0,0.0,0.0,0.0,0.0,0.0,0.0,0.0,0.0,0.0,0.0,0.0,0.0,0.0,0.0,0.0,0.0,0.0,0.0,0.0,0.0,0.0,0.0,0.0,0.0,0.0,0.0,0.0,0.0,0.0,0.0,0.0,0.0,0.0,0.0,0.0,0.0,0.0,0.0,0.0,0.0,0.0,0.0,0.0,0.0,0.0,0.0,0.0,0.0,0.0,0.0,0.0,0.0,0.0,0.0,0.0,0.0,0.0,0.0,0.0,0.0,0.0,0.0,0.0,0.0,0.0,0.0,0.0,0.0,0.0,0.0,0.0,0.0,0.0,0.0,0.0,0.0,0.0,0.0,0.0,0.0,0.0,0.0,0.0,0.0,0.0,0.0,0.0,0.0,0.0,0.0,0.0,0.0,0.0,0.0,0.0,0.0,0.0,0.0,0.0,0.0,0.0,0.0,0.0,0.0,0.0,0.0,0.0,0.0,0.0,0.0,0.0,0.0,0.0,2.7621,0.0,0.0,0.0,0.0,0.0,0.0,0.0,0.0,0.0,0.0,0.0,0.0,0.0,0.0,0.0,0.0,0.0,0.0,0.0,0.0,0.0,0.0,0.0,0.0,0.0,0.0,0.0,0.0,0.0,0.0,0.0,0.0,0.0,0.0,0.0,0.0,0.0,0.0,0.0,0.0,0.0,0.0,0.0,0.0,0.0,0.0,0.0,0.0,0.0,0.0,0.0,0.0,0.0,0.0,0.0,0.0,0.0,0.0,0.0,0.0,0.0,0.0,0.0,0.0,0.0,0.0,0.0,0.0,0.0,0.0,0.0,0.0,0.0,0.0,0.0,0.0,0.0,0.0,0.0,0.0,0.0,0.0,0.0,0.0,0.0,0.0,0.0,0.0,0.0,0.0,0.0,0.0,0.0,0.0,0.0,0.0,0.0,0.0,0.0,0.0,0.0,0.0,0.0,0.0,0.0,0.0,0.0,0.0,0.0,0.0,2.7942,2.7989,2.7923,2.7932,2.7987,0.0,0.0,0.0,0.0,0.0,0.0,0.0,0.0,0.0,0.0,0.0,0.0,0.0,0.0,0.0,0.0,0.0,0.0,0.0,0.0,0.0,0.0,0.0,0.0,0.0,0.0,0.0,0.0,0.0,0.0,0.0,0.0,0.0,0.0,0.0,0.0,0.0,0.0,0.0,0.0,0.0,0.0,0.0,0.0,0.0,0.0,0.0,0.0,0.0,0.0,0.0,0.0,0.0,0.0,0.0,0.0,0.0,0.0,0.0,0.0,0.0,0.0,0.0,0.0,0.0,0.0,0.0,0.0,0.0,0.0,0.0,0.0,0.0,0.0,0.0,0.0,0.0,0.0,0.0,0.0,0.0,0.0,0.0,0.0,0.0,0.0,0.0,0.0,0.0,0.0,0.0,0.0,0.0,0.0,0.0,0.0,0.0,0.0,0.0,0.0,0.0,0.0,0.0,0.0,0.0,0.0,0.0,0.0,0.0,0.0,0.0,0.0,2.8586,2.8577,2.8502,0.0,0.0,0.0,0.0,0.0,0.0,0.0,0.0,0.0,0.0,0.0,0.0,0.0,0.0,0.0,0.0,0.0,0.0,0.0,0.0,0.0,0.0,0.0,0.0,0.0,0.0,0.0,0.0,0.0,0.0,0.0,0.0,0.0,0.0,0.0,0.0,0.0,0.0,0.0,0.0,0.0,0.0,0.0,0.0,0.0,0.0,0.0,0.0,0.0,0.0,0.0,0.0,0.0,0.0,0.0,0.0,0.0,0.0,0.0,0.0,0.0,0.0,0.0,0.0,0.0,0.0,0.0,0.0,0.0,0.0,0.0,0.0,0.0,0.0,0.0,0.0,0.0,0.0,0.0,0.0,0.0,0.0,0.0,0.0,0.0,0.0,0.0,0.0,0.0,0.0,0.0,0.0,0.0,0.0,0.0,0.0,0.0,0.0,0.0,0.0,0.0,0.0,0.0,0.0,0.0,0.0,0.0,0.0,0.0,0.0,3.0366,3.0366,3.0346,0.0,3.0002,0.0,0.0,0.0,0.0,0.0,0.0,0.0,0.0,0.0,0.0,0.0,0.0,0.0,0.0,0.0,0.0,0.0,0.0,0.0,0.0,0.0,0.0,0.0,0.0,0.0,0.0,0.0,0.0,0.0,0.0,0.0,0.0,0.0,0.0,0.0,0.0,0.0,0.0,0.0,0.0,0.0,0.0,0.0,0.0,0.0,0.0,0.0,0.0,0.0,0.0,0.0,0.0,0.0,0.0,0.0,0.0,0.0,0.0,0.0,0.0,0.0,0.0,0.0,0.0,0.0,0.0,0.0,0.0,0.0,0.0,0.0,0.0,0.0,0.0,0.0,0.0,0.0,0.0,0.0,0.0,0.0,0.0,0.0,0.0,0.0,0.0,0.0,0.0,0.0,0.0,0.0,0.0,0.0,0.0,0.0,0.0,0.0,0.0,0.0,0.0,0.0,0.0,0.0,0.0,0.0,0.0,0.0,0.0,0.0,0.0,3.0471,3.0597,3.055,3.0471,0.0,0.0,0.0,0.0,0.0,0.0,0.0,0.0,0.0,0.0,0.0,0.0,0.0,0.0,0.0,0.0,0.0,0.0,0.0,0.0,0.0,0.0,0.0,0.0,0.0,0.0,0.0,0.0,0.0,0.0,0.0,0.0,0.0,0.0,0.0,0.0,0.0,0.0,0.0,0.0,0.0,0.0,0.0,0.0,0.0,0.0,0.0,0.0,0.0,0.0,0.0,0.0,0.0,0.0,0.0,0.0,0.0,0.0,0.0,0.0,0.0,0.0,0.0,0.0,0.0,0.0,0.0,0.0,0.0,0.0,0.0,0.0,0.0,0.0,0.0,0.0,0.0,0.0,0.0,0.0,0.0,0.0,0.0,0.0,0.0,0.0,0.0,0.0,0.0,0.0,0.0,0.0,0.0,0.0,0.0,0.0,0.0,0.0,0.0,0.0,0.0,0.0,0.0,0.0,0.0,0.0,0.0,0.0,0.0,0.0,3.0196,3.0398,3.0559,3.0521,3.0451,3.0314,0.0,0.0,0.0,0.0,0.0,0.0,0.0,0.0,0.0,0.0,0.0,0.0,0.0,0.0,0.0,0.0,0.0,0.0,0.0,0.0,0.0,0.0,0.0,0.0,0.0,0.0,0.0,0.0,0.0,0.0,0.0,0.0,0.0,0.0,0.0,0.0,0.0,0.0,0.0,0.0,0.0,0.0,0.0,0.0,0.0,0.0,0.0,0.0,0.0,0.0,0.0,0.0,0.0,0.0,0.0,0.0,0.0,0.0,0.0,0.0,0.0,0.0,0.0,0.0,0.0,0.0,0.0,0.0,0.0,0.0,0.0,0.0,0.0,0.0,0.0,0.0,0.0,0.0,0.0,0.0,0.0,0.0,0.0,0.0,0.0,0.0,0.0,0.0,0.0,0.0,0.0,0.0,0.0,0.0,0.0,0.0,0.0,0.0,0.0,0.0,0.0,0.0,0.0,0.0,0.0,0.0,0.0,0.0,2.9988,3.0196,3.0367,3.0509,3.0492,3.0452,0.0,0.0,0.0,0.0,0.0,0.0,0.0,0.0,0.0,0.0,0.0,0.0,0.0,0.0,0.0,0.0,0.0,0.0,0.0,0.0,0.0,0.0,0.0,0.0,0.0,0.0,0.0,0.0,0.0,0.0,0.0,0.0,0.0,0.0,0.0,0.0,0.0,0.0,0.0,0.0,0.0,0.0,0.0,0.0,0.0,0.0,0.0,0.0,0.0,0.0,0.0,0.0,0.0,0.0,0.0,0.0,0.0,0.0,0.0,0.0,0.0,0.0,0.0,0.0,0.0,0.0,0.0,0.0,0.0,0.0,0.0,0.0,0.0,0.0,0.0,0.0,0.0,0.0,0.0,0.0,0.0,0.0,0.0,0.0,0.0,0.0,0.0,0.0,0.0,0.0,0.0,0.0,0.0,0.0,0.0,0.0,0.0,0.0,0.0,0.0,0.0,0.0,0.0,0.0,0.0,0.0,0.0,0.0,0.0,3.0047,3.0329,3.0501,3.0491,3.0452,3.0392,0.0,0.0,0.0,0.0,0.0,0.0,0.0,0.0,0.0,0.0,0.0,0.0,0.0,0.0,0.0,0.0,0.0,0.0,0.0,0.0,0.0,0.0,0.0,0.0,0.0,0.0,0.0,0.0,0.0,0.0,0.0,0.0,0.0,0.0,0.0,0.0,0.0,0.0,0.0,0.0,0.0,0.0,0.0,0.0,0.0,0.0,0.0,0.0,0.0,0.0,0.0,0.0,0.0,0.0,0.0,0.0,0.0,0.0,0.0,0.0,0.0,0.0,0.0,0.0,0.0,0.0,0.0,0.0,0.0,0.0,0.0,0.0,0.0,0.0,0.0,0.0,0.0,0.0,0.0,0.0,0.0,0.0,0.0,0.0,0.0,0.0,0.0,0.0,0.0,0.0,0.0,0.0,0.0,0.0,0.0,0.0,0.0,0.0,0.0,0.0,0.0,0.0,0.0,0.0,0.0,0.0,0.0,0.0,0.0,3.0122,0.0,3.0548,3.0471,3.0432,3.0359,0.0,0.0,0.0,0.0,0.0,0.0,0.0,0.0,0.0,0.0,0.0,0.0,0.0,0.0,0.0,0.0,0.0,0.0,0.0,0.0,0.0,0.0,0.0,0.0,0.0,0.0,0.0,0.0,0.0,0.0,0.0,0.0,0.0,0.0,0.0,0.0,0.0,0.0,0.0,0.0,0.0,0.0,0.0,0.0,0.0,0.0,0.0,0.0,0.0,0.0,0.0,0.0,0.0,0.0,0.0,0.0,0.0,0.0,0.0,0.0,0.0,0.0,0.0,0.0,0.0,0.0,0.0,0.0,0.0,0.0,0.0,0.0,0.0,0.0,0.0,0.0,0.0,0.0,0.0,0.0,0.0,0.0,0.0,0.0,0.0,0.0,0.0,0.0,0.0,0.0,0.0,0.0,0.0,0.0,0.0,0.0,0.0,0.0,0.0,0.0,0.0,0.0,0.0,0.0,0.0,0.0,0.0,0.0,2.9806,3.0202,3.0452,3.052,3.0398,3.04,3.0325,0.0,0.0,0.0,0.0,0.0,0.0,0.0,0.0,0.0,0.0,0.0,0.0,0.0,0.0,0.0,0.0,0.0,0.0,0.0,0.0,0.0,0.0,0.0,0.0,0.0,0.0,0.0,0.0,0.0,0.0,0.0,0.0,0.0,0.0,0.0,0.0,0.0,0.0,0.0,0.0,0.0,0.0,0.0,0.0,0.0,0.0,0.0,0.0,0.0,0.0,0.0,0.0,0.0,0.0,0.0,0.0,0.0,0.0,0.0,0.0,0.0,0.0,0.0,0.0,0.0,0.0,0.0,0.0,0.0,0.0,0.0,0.0,0.0,0.0,0.0,0.0,0.0,0.0,0.0,0.0,0.0,0.0,0.0,0.0,0.0,0.0,0.0,0.0,0.0,0.0,0.0,0.0,0.0,0.0,0.0,0.0,0.0,0.0,0.0,0.0,0.0,0.0,0.0,0.0,0.0,0.0,0.0,0.0,0.0,3.0071,3.0266,3.0375,3.0323,3.0328,3.0273,0.0,0.0,0.0,0.0,0.0,0.0,0.0,0.0,0.0,0.0,0.0,0.0,0.0,0.0,0.0,0.0,0.0,0.0,0.0,0.0,0.0,0.0,0.0,0.0,0.0,0.0,0.0,0.0,0.0,0.0,0.0,0.0,0.0,0.0,0.0,0.0,0.0,0.0,0.0,0.0,0.0,0.0,0.0,0.0,0.0,0.0,0.0,0.0,0.0,0.0,0.0,0.0,0.0,0.0,0.0,0.0,0.0,0.0,0.0,0.0,0.0,0.0,0.0,0.0,0.0,0.0,0.0,0.0,0.0,0.0,0.0,0.0,0.0,0.0,0.0,0.0,0.0,0.0,0.0,0.0,0.0,0.0,0.0,0.0,0.0,0.0,0.0,0.0,0.0,0.0,0.0,0.0,0.0,0.0,0.0,0.0,0.0,0.0,0.0,0.0,0.0,0.0,0.0,0.0,0.0,0.0,0.0,0.0,0.0,3.0045,3.0222,3.0336,3.0305,3.0292,3.0273,3.0218,0.0,0.0,0.0,0.0,0.0,0.0,0.0,0.0,0.0,0.0,0.0,0.0,0.0,0.0,0.0,0.0,0.0,0.0,0.0,0.0,0.0,0.0,0.0,0.0,0.0,0.0,0.0,0.0,0.0,0.0,0.0,0.0,0.0,0.0,0.0,0.0,0.0,0.0,0.0,0.0,0.0,0.0,0.0,0.0,0.0,0.0,0.0,0.0,0.0,0.0,0.0,0.0,0.0,0.0,0.0,0.0,0.0,0.0,0.0,0.0,0.0,0.0,0.0,0.0,0.0,0.0,0.0,0.0,0.0,0.0,0.0,0.0,0.0,0.0,0.0,0.0,0.0,0.0,0.0,0.0,0.0,0.0,0.0,0.0,0.0,0.0,0.0,0.0,0.0,0.0,0.0,0.0,0.0,0.0,0.0,0.0,0.0,0.0,0.0,0.0,0.0,0.0,0.0,0.0,0.0,0.0,0.0,0.0,3.0098,3.0279,3.0333,3.0292,3.0292,3.0273,0.0,0.0,0.0,0.0,0.0,0.0,0.0,0.0,0.0,0.0,0.0,0.0,0.0,0.0,0.0,0.0,0.0,0.0,0.0,0.0,0.0,0.0,0.0,0.0,0.0,0.0,0.0,0.0,0.0,0.0,0.0,0.0,0.0,0.0,0.0,0.0,0.0,0.0,0.0,0.0,0.0,0.0,0.0,0.0,0.0,0.0,0.0,0.0,0.0,0.0,0.0,0.0,0.0,0.0,0.0,0.0,0.0,0.0,0.0,0.0,0.0,0.0,0.0,0.0,0.0,0.0,0.0,0.0,0.0,0.0,0.0,0.0,0.0,0.0,0.0,0.0,0.0,0.0,0.0,0.0,0.0,0.0,0.0,0.0,0.0,0.0,0.0,0.0,0.0,0.0,0.0,0.0,0.0,0.0,0.0,0.0,0.0,0.0,0.0,0.0,0.0,0.0,0.0,0.0,0.0,0.0,0.0,0.0,0.0,3.026,3.0247,3.0253,3.0226,3.0226,3.0207,0.0,0.0,0.0,0.0,0.0,0.0,0.0,0.0,0.0,0.0,0.0,0.0,0.0,0.0,0.0,0.0,0.0,0.0,0.0,0.0,0.0,0.0,0.0,0.0,0.0,0.0,0.0,0.0,0.0,0.0,0.0,0.0,0.0,0.0,0.0,0.0,0.0,0.0,0.0,0.0,0.0,0.0,0.0,0.0,0.0,0.0,0.0,0.0,0.0,0.0,0.0,0.0,0.0,0.0,0.0,0.0,0.0,0.0,0.0,0.0,0.0,0.0,0.0,0.0,0.0,0.0,0.0,0.0,0.0,0.0,0.0,0.0,0.0,0.0,0.0,0.0,0.0,0.0,0.0,0.0,0.0,0.0,0.0,0.0,0.0,0.0,0.0,0.0,0.0,0.0,0.0,0.0,0.0,0.0,0.0,0.0,0.0,0.0,0.0,0.0,0.0,0.0,0.0,0.0,0.0,0.0,0.0,0.0,3.0226,3.026,3.0226,3.0218,3.0213,3.0218,3.0218,0.0,0.0,0.0,0.0,0.0,0.0,0.0,0.0,0.0,0.0,0.0,0.0,0.0,0.0,0.0,0.0,0.0,0.0,0.0,0.0,0.0,0.0,0.0,0.0,0.0,0.0,0.0,0.0,0.0,0.0,0.0,0.0,0.0,0.0,0.0,0.0,0.0,0.0,0.0,0.0,0.0,0.0,0.0,0.0,0.0,0.0,0.0,0.0,0.0,0.0,0.0,0.0,0.0,0.0,0.0,0.0,0.0,0.0,0.0,0.0,0.0,0.0,0.0,0.0,0.0,0.0,0.0,0.0,0.0,0.0,0.0,0.0,0.0,0.0,0.0,0.0,0.0,0.0,0.0,0.0,0.0,0.0,0.0,0.0,0.0,0.0,0.0,0.0,0.0,0.0,0.0,0.0,0.0,0.0,0.0,0.0,0.0,0.0,0.0,0.0,0.0,0.0,0.0,0.0,0.0,0.0,0.0,0.0,3.039,3.0466,3.0466,3.048,3.0469,3.0308,3.0213,0.0,0.0,0.0,0.0,0.0,0.0,0.0,0.0,0.0,0.0,0.0,0.0,0.0,0.0,0.0,0.0,0.0,0.0,0.0,0.0,0.0,0.0,0.0,0.0,0.0,0.0,0.0,0.0,0.0,0.0,0.0,0.0,0.0,0.0,0.0,0.0,0.0,0.0,0.0,0.0,0.0,0.0,0.0,0.0,0.0,0.0,0.0,0.0,0.0,0.0,0.0,0.0,0.0,0.0,0.0,0.0,0.0,0.0,0.0,0.0,0.0,0.0,0.0,0.0,0.0,0.0,0.0,0.0,0.0,0.0,0.0,0.0,0.0,0.0,0.0,0.0,0.0,0.0,0.0,0.0,0.0,0.0,0.0,0.0,0.0,0.0,0.0,0.0,0.0,0.0,0.0,0.0,0.0,0.0,0.0,0.0,0.0,0.0,0.0,0.0,0.0,0.0,0.0,0.0,0.0,0.0,0.0,0.0,3.1621,3.2215,3.2234,3.2253,3.2248,3.091,3.0215,0.0,0.0,0.0,0.0,0.0,0.0,0.0,0.0,0.0,0.0,0.0,0.0,0.0,0.0,0.0,0.0,0.0,0.0,0.0,0.0,0.0,0.0,0.0,0.0,0.0,0.0,0.0,0.0,0.0,0.0,0.0,0.0,0.0,0.0,0.0,0.0,0.0,0.0,0.0,0.0,0.0,0.0,0.0,0.0,0.0,0.0,0.0,0.0,2.6605,0.0,0.0,0.0,0.0,0.0,0.0,0.0,0.0,0.0,0.0,0.0,0.0,0.0,0.0,0.0,0.0,0.0,0.0,0.0,0.0,0.0,0.0,0.0,0.0,0.0,0.0,0.0,0.0,0.0,0.0,0.0,0.0,0.0,0.0,0.0,0.0,0.0,0.0,0.0,0.0,0.0,0.0,0.0,0.0,0.0,0.0,0.0,0.0,0.0,0.0,0.0,0.0,0.0,0.0,0.0,0.0,0.0,0.0,0.0,3.2377,3.2779,3.2799,3.2812,3.2793,3.1955,3.1475,0.0,0.0,0.0,0.0,0.0,0.0,0.0,0.0,0.0,0.0,0.0,0.0,0.0,0.0,0.0,0.0,0.0,0.0,0.0,0.0,0.0,0.0,0.0,0.0,0.0,0.0,0.0,0.0,0.0,0.0,0.0,0.0,0.0,0.0,0.0,0.0,0.0,0.0,0.0,0.0,0.0,0.0,0.0,0.0,0.0,0.0,0.0,0.0,0.0,0.0,0.0,0.0,0.0,0.0,0.0,0.0,0.0,0.0,0.0,0.0,0.0,0.0,0.0,0.0,0.0,0.0,0.0,0.0,0.0,0.0,0.0,0.0,0.0,0.0,0.0,0.0,0.0,0.0,0.0,0.0,0.0,0.0,0.0,0.0,0.0,0.0,0.0,0.0,0.0,0.0,0.0,0.0,0.0,0.0,0.0,0.0,0.0,0.0,0.0,0.0,0.0,0.0,0.0,0.0,0.0,0.0,0.0,3.3023,3.3081,3.3196,3.3215,3.3248,3.33,3.3294,3.3281,3.3294,0.0,0.0,0.0,0.0,0.0,0.0,0.0,0.0,0.0,0.0,0.0,0.0,0.0,0.0,0.0,0.0,0.0,0.0,0.0,0.0,0.0,0.0,0.0,0.0,0.0,0.0,0.0,0.0,0.0,0.0,0.0,0.0,0.0,0.0,0.0,0.0,0.0,0.0,2.5952,2.6572,0.0,0.0,0.0,0.0,0.0,0.0,0.0,0.0,2.8402,0.0,0.0,0.0,0.0,0.0,0.0,0.0,0.0,0.0,0.0,0.0,0.0,0.0,0.0,0.0,0.0,0.0,0.0,0.0,0.0,0.0,0.0,0.0,0.0,0.0,0.0,0.0,0.0,0.0,0.0,0.0,0.0,0.0,0.0,0.0,0.0,0.0,0.0,0.0,0.0,0.0,0.0,0.0,0.0,0.0,0.0,0.0,0.0,0.0,0.0,0.0,0.0,0.0,0.0,0.0,0.0,3.3936,3.3974,3.4339,3.5032,3.5051,3.507,3.507,3.507,3.507,3.4993,0.0,0.0,0.0,0.0,0.0,0.0,0.0,0.0,0.0,0.0,0.0,0.0,0.0,0.0,0.0,0.0,0.0,0.0,0.0,0.0,0.0,0.0,0.0,0.0,0.0,0.0,0.0,0.0,0.0,0.0,0.0,0.0,0.0,0.0,0.0,0.0,0.0,0.0,0.0,2.7753,2.7869,0.0,0.0,0.0,0.0,0.0,0.0,0.0,0.0,2.8954,0.0,0.0,0.0,0.0,0.0,0.0,0.0,0.0,0.0,0.0,0.0,0.0,0.0,0.0,0.0,0.0,0.0,0.0,0.0,0.0,0.0,0.0,0.0,0.0,0.0,0.0,0.0,0.0,0.0,0.0,0.0,0.0,0.0,0.0,0.0,0.0,0.0,0.0,0.0,0.0,0.0,0.0,0.0,0.0,0.0,0.0,0.0,0.0,0.0,0.0,0.0,0.0,0.0,0.0,0.0,3.4867,3.4937,3.5117,3.5541,3.556,3.5522,3.5495,3.5495,3.5482,0.0,0.0,0.0,0.0,0.0,0.0,0.0,0.0,0.0,0.0,0.0,0.0,0.0,0.0,0.0,0.0,0.0,0.0,0.0,0.0,0.0,0.0,0.0,0.0,0.0,0.0,0.0,0.0,0.0,0.0,0.0,0.0,0.0,0.0,0.0,0.0,0.0,0.0,0.0,0.0,2.8681,2.8827,2.9115,0.0,0.0,0.0,0.0,0.0,0.0,3.0141,3.0017,0.0,0.0,0.0,0.0,0.0,0.0,0.0,0.0,0.0,0.0,0.0,0.0,0.0,0.0,0.0,0.0,0.0,0.0,0.0,0.0,0.0,0.0,0.0,0.0,0.0,0.0,0.0,0.0,0.0,0.0,0.0,0.0,0.0,0.0,0.0,0.0,0.0,0.0,0.0,0.0,0.0,0.0,0.0,0.0,0.0,0.0,0.0,0.0,0.0,0.0,0.0,0.0,0.0,0.0,0.0,3.5584,3.5623,3.5623,3.5623,3.5623,3.556,3.5496,3.5496,3.5489,0.0,0.0,0.0,0.0,0.0,0.0,0.0,0.0,0.0,0.0,0.0,0.0,0.0,0.0,0.0,0.0,0.0,0.0,0.0,0.0,0.0,0.0,0.0,0.0,0.0,0.0,0.0,0.0,0.0,0.0,0.0,0.0,0.0,0.0,0.0,0.0,0.0,0.0,0.0,0.0,0.0,2.9767,3.0334,3.0539,0.0,0.0,0.0,0.0,3.0767,3.0715,0.0,0.0,0.0,0.0,0.0,0.0,0.0,0.0,0.0,0.0,0.0,0.0,0.0,0.0,0.0,0.0,0.0,0.0,0.0,0.0,0.0,0.0,0.0,0.0,0.0,0.0,0.0,0.0,0.0,0.0,0.0,0.0,0.0,0.0,0.0,0.0,0.0,0.0,0.0,0.0,0.0,0.0,0.0,0.0,0.0,0.0,0.0,0.0,0.0,0.0,0.0,0.0,0.0,0.0,0.0,0.0,3.5591,3.5623,3.5623,3.5623,3.5623,3.556,3.5496,3.5496,3.5489,0.0,0.0,0.0,0.0,0.0,0.0,0.0,0.0,0.0,0.0,0.0,0.0,0.0,0.0,0.0,0.0,0.0,0.0,0.0,0.0,0.0,0.0,0.0,0.0,0.0,0.0,0.0,0.0,0.0,0.0,0.0,0.0,0.0,0.0,0.0,0.0,0.0,0.0,0.0,0.0,0.0,3.046,3.0482,3.0607,3.0625,0.0,0.0,0.0,3.0632,3.063,0.0,0.0,0.0,0.0,0.0,0.0,0.0,0.0,0.0,0.0,0.0,0.0,0.0,0.0,0.0,0.0,0.0,0.0,0.0,0.0,0.0,0.0,0.0,0.0,0.0,0.0,0.0,0.0,0.0,0.0,0.0,0.0,0.0,0.0,0.0,0.0,0.0,0.0,0.0,0.0,0.0,0.0,0.0,0.0,0.0,0.0,0.0,0.0,0.0,0.0,0.0,0.0,0.0,0.0,0.0,3.5608,3.5651,3.5651,3.5651,3.567,3.5608,3.5584,3.556,3.556,3.5541,0.0,0.0,0.0,0.0,0.0,0.0,0.0,0.0,0.0,0.0,0.0,0.0,0.0,0.0,0.0,0.0,0.0,0.0,0.0,0.0,0.0,0.0,0.0,0.0,0.0,0.0,0.0,0.0,0.0,0.0,0.0,0.0,0.0,0.0,0.0,0.0,0.0,0.0,0.0,0.0,0.0,0.0,3.0458,3.0535,0.0,0.0,0.0,3.0644,3.0607,0.0,0.0,0.0,0.0,0.0,0.0,0.0,0.0,0.0,0.0,0.0,0.0,0.0,0.0,0.0,0.0,0.0,0.0,0.0,0.0,0.0,0.0,0.0,0.0,0.0,0.0,0.0,0.0,0.0,0.0,0.0,0.0,0.0,0.0,0.0,0.0,0.0,0.0,0.0,0.0,0.0,0.0,0.0,0.0,0.0,0.0,0.0,0.0,0.0,0.0,0.0,0.0,0.0,0.0,0.0,0.0,0.0,3.5704,3.5704,3.5704,3.5704,3.5643,3.562,3.5616,3.5604,0.0,0.0,0.0,0.0,0.0,0.0,0.0,0.0,0.0,0.0,0.0,0.0,0.0,0.0,0.0,0.0,0.0,0.0,0.0,0.0,0.0,0.0,0.0,0.0,0.0,0.0,0.0,2.9085,0.0,0.0,0.0,0.0,0.0,0.0,0.0,0.0,0.0,0.0,0.0,0.0,0.0,0.0,3.0567,3.0428,3.0519,3.0552,0.0,0.0,3.0903,3.0873,3.0838,3.0924,0.0,0.0,0.0,0.0,0.0,0.0,0.0,0.0,0.0,0.0,0.0,0.0,0.0,0.0,0.0,0.0,0.0,0.0,0.0,0.0,0.0,0.0,0.0,0.0,0.0,0.0,0.0,0.0,0.0,0.0,0.0,0.0,0.0,0.0,0.0,0.0,0.0,0.0,0.0,0.0,0.0,0.0,0.0,0.0,0.0,0.0,0.0,0.0,0.0,0.0,0.0,0.0,0.0,0.0,0.0,3.5704,3.5704,3.5704,3.5704,3.5704,3.5673,3.562,3.562,3.5589,0.0,0.0,0.0,0.0,0.0,0.0,0.0,0.0,0.0,0.0,0.0,0.0,0.0,0.0,0.0,0.0,0.0,0.0,0.0,0.0,0.0,0.0,0.0,0.0,0.0,0.0,0.0,0.0,0.0,0.0,0.0,0.0,0.0,0.0,0.0,0.0,0.0,0.0,0.0,0.0,0.0,3.0585,3.0501,3.0482,3.0492,0.0,0.0,3.17,3.1638,3.1621,3.1937,3.2868,0.0,0.0,0.0,0.0,0.0,0.0,0.0,0.0,0.0,0.0,0.0,0.0,0.0,0.0,0.0,0.0,0.0,0.0,0.0,0.0,0.0,0.0,0.0,0.0,0.0,0.0,0.0,0.0,0.0,0.0,0.0,0.0,0.0,0.0,0.0,0.0,0.0,0.0,0.0,0.0,0.0,0.0,0.0,0.0,0.0,0.0,0.0,0.0,0.0,0.0,0.0,0.0,0.0,3.5704,3.5704,3.5704,3.5704,3.5704,3.5654,3.5612,3.562,3.562,3.5608,0.0,0.0,0.0,0.0,0.0,0.0,0.0,0.0,0.0,0.0,0.0,0.0,0.0,0.0,0.0,0.0,0.0,0.0,0.0,0.0,0.0,0.0,0.0,0.0,0.0,0.0,0.0,0.0,3.0735,3.0724,3.0735,0.0,0.0,0.0,0.0,0.0,0.0,0.0,0.0,0.0,0.0,3.1551,3.1926,3.2017,0.0,0.0,3.2284,3.251,3.2449,3.2436,3.2601,3.3122,3.2919,0.0,0.0,0.0,0.0,0.0,0.0,0.0,0.0,0.0,0.0,0.0,0.0,0.0,0.0,0.0,0.0,0.0,0.0,0.0,0.0,0.0,0.0,0.0,0.0,0.0,0.0,0.0,0.0,0.0,0.0,0.0,0.0,0.0,0.0,0.0,0.0,0.0,0.0,0.0,0.0,0.0,0.0,0.0,0.0,0.0,0.0,0.0,0.0,0.0,0.0,0.0,0.0,3.5704,3.5704,3.5704,3.582,3.606,3.601,3.6115,3.6346,3.6134,3.6006,0.0,0.0,0.0,0.0,0.0,0.0,0.0,0.0,0.0,0.0,0.0,0.0,0.0,0.0,0.0,0.0,0.0,0.0,0.0,0.0,0.0,0.0,0.0,0.0,0.0,0.0,0.0,0.0,3.073,3.0725,3.0739,0.0,0.0,0.0,0.0,0.0,0.0,0.0,0.0,0.0,0.0,3.2414,3.2856,3.2968,3.2979,3.2935,3.3169,3.3354,3.3295,3.3295,3.3427,3.3887,0.0,0.0,0.0,0.0,0.0,0.0,0.0,0.0,0.0,0.0,0.0,0.0,0.0,0.0,0.0,0.0,0.0,0.0,0.0,0.0,0.0,0.0,0.0,0.0,0.0,0.0,0.0,0.0,0.0,0.0,0.0,0.0,0.0,0.0,0.0,0.0,0.0,0.0,0.0,0.0,0.0,0.0,0.0,0.0,0.0,0.0,0.0,0.0,0.0,0.0,0.0,0.0,0.0,0.0,3.5723,3.5753,3.611,3.6861,3.6891,3.729,3.8063,3.7375,3.6969,3.6949,0.0,0.0,0.0,0.0,0.0,0.0,0.0,0.0,0.0,0.0,0.0,0.0,0.0,0.0,0.0,0.0,0.0,0.0,0.0,0.0,0.0,0.0,0.0,0.0,0.0,0.0,3.0731,3.077,3.0808,0.0,0.0,0.0,0.0,0.0,0.0,0.0,0.0,0.0,0.0,3.3126,3.3074,3.3048,3.3022,3.3068,3.3056,3.3686,3.4173,3.4173,3.4173,3.4514,0.0,0.0,0.0,0.0,0.0,0.0,0.0,0.0,0.0,0.0,0.0,0.0,0.0,0.0,0.0,0.0,0.0,0.0,0.0,0.0,0.0,0.0,0.0,0.0,0.0,0.0,0.0,0.0,2.9971,0.0,0.0,0.0,0.0,0.0,0.0,0.0,0.0,0.0,0.0,0.0,3.3024,3.3885,0.0,0.0,0.0,0.0,0.0,0.0,0.0,0.0,0.0,0.0,0.0,0.0,3.629,3.7411,3.6928,3.7035,3.7865,3.7901,3.8044,3.8334,3.8083,3.7657,3.7091,0.0,0.0,0.0,0.0,0.0,0.0,0.0,0.0,0.0,0.0,0.0,0.0,0.0,0.0,0.0,0.0,0.0,0.0,0.0,0.0,0.0,0.0,0.0,0.0,0.0,3.0826,0.0,0.0,0.0,0.0,0.0,0.0,0.0,0.0,0.0,0.0,0.0,3.318,3.3971,3.3999,3.4158,3.465,3.4743,3.4711,0.0,0.0,0.0,0.0,0.0,0.0,0.0,0.0,0.0,0.0,0.0,0.0,0.0,0.0,3.3412,3.2501,3.2277,3.2255,3.2268,0.0,0.0,0.0,0.0,0.0,0.0,0.0,0.0,0.0,0.0,0.0,0.0,0.0,0.0,0.0,0.0,3.1275,0.0,0.0,0.0,0.0,0.0,0.0,0.0,0.0,3.3417,3.3856,3.3877,3.4736,3.5146,0.0,3.5732,3.5716,0.0,0.0,0.0,0.0,0.0,0.0,0.0,0.0,3.7254,3.8357,3.7857,3.7975,3.8801,3.8857,3.8986,3.9238,3.9023,3.8501,3.765,3.7668,3.7294,0.0,0.0,0.0,0.0,0.0,0.0,0.0,0.0,0.0,0.0,0.0,0.0,0.0,0.0,0.0,0.0,0.0,0.0,0.0,0.0,0.0,0.0,0.0,3.1747,0.0,0.0,0.0,0.0,0.0,0.0,0.0,0.0,0.0,3.3888,3.3779,3.4048,3.4833,3.4904,3.5048,3.5562,0.0,0.0,0.0,0.0,0.0,0.0,0.0,3.5616,3.5693,3.5695,3.5737,3.5846,3.5897,3.5719,3.5214,0.0,0.0,3.3476,3.3225,3.3204,3.3223,3.32,3.3209,3.3211,3.3208,3.3208,0.0,0.0,0.0,0.0,0.0,0.0,0.0,0.0,3.2904,3.2833,0.0,3.2833,0.0,0.0,0.0,0.0,0.0,0.0,0.0,0.0,3.4296,3.4725,3.48,3.56,3.5994,3.601,3.5994,3.5994,3.5996,3.5957,0.0,0.0,0.0,0.0,0.0,0.0,3.8469,3.8598,3.851,3.886,3.9696,3.9735,4.009,4.0832,4.0203,3.9447,3.8685,3.8639,3.8222,3.7399,3.7301,0.0,0.0,0.0,0.0,0.0,0.0,0.0,0.0,0.0,0.0,0.0,0.0,0.0,0.0,0.0,0.0,0.0,0.0,0.0,0.0,3.3306,0.0,0.0,0.0,0.0,0.0,0.0,0.0,0.0,0.0,0.0,3.4845,3.4682,3.4917,3.5699,0.0,0.0,0.0,0.0,3.562,3.5601,3.5616,3.5623,3.5623,3.5623,3.562,3.5689,0.0,0.0,3.5788,3.5853,3.5899,3.5898,3.584,3.5391,3.379,3.3565,3.3562,3.3559,3.3574,3.3512,3.3497,3.3643,3.3609,3.4527,0.0,0.0,0.0,0.0,3.2954,3.2923,3.2923,3.2891,3.2891,3.2891,3.2891,0.0,0.0,0.0,0.0,0.0,0.0,3.4179,3.4277,3.5197,3.5623,3.5639,3.5893,3.601,3.601,3.601,3.601,3.6033,3.661,3.6875,3.6847,0.0,0.0,0.0,0.0,3.9082,4.0235,3.9777,3.986,4.0697,4.07,4.0818,4.1053,4.0836,4.0344,3.9552,3.953,3.9136,3.8277,3.7641,0.0,0.0,0.0,0.0,0.0,0.0,0.0,0.0,0.0,0.0,0.0,0.0,0.0,0.0,0.0,0.0,0.0,0.0,0.0,3.313,3.3247,3.3563,0.0,0.0,0.0,0.0,0.0,0.0,0.0,0.0,0.0,3.5662,3.5532,3.5519,0.0,0.0,3.5704,3.5704,3.5673,3.5673,3.5673,0.0,0.0,0.0,3.5681,3.5676,3.5708,3.5747,3.5784,3.5799,3.5857,3.5889,3.5888,3.5897,3.5741,3.5324,3.5233,3.5245,3.5242,3.5217,3.5173,3.5176,3.5184,3.5152,3.5295,3.4735,3.4202,3.3993,3.3994,3.3949,3.393,3.3949,3.393,3.393,3.3949,3.393,3.393,3.393,3.393,0.0,0.0,0.0,3.5035,3.5139,3.5724,3.601,3.601,3.601,3.601,3.601,3.6342,3.6521,3.6521,3.7379,3.7958,3.8203,0.0,0.0,3.9765,3.9608,4.0051,4.1013,4.0639,4.062,4.1088,4.1108,4.1108,4.1108,4.1108,4.0873,4.0405,4.0366,3.9976,3.9117,3.857,3.8112,0.0,0.0,0.0,0.0,0.0,0.0,0.0,0.0,0.0,0.0,0.0,3.3986,0.0,0.0,0.0,0.0,3.4146,3.4187,3.4165,3.4284,0.0,0.0,0.0,0.0,0.0,0.0,0.0,3.5135,3.5554,3.5911,3.5911,3.5833,3.5764,3.5803,3.5747,3.5704,3.5704,0.0,3.5715,3.5706,3.5706,3.5695,3.5704,3.5725,3.5737,3.5736,3.5773,3.5801,3.5846,3.5872,3.5894,3.5899,3.5917,3.5932,3.5888,3.5934,3.5968,3.5972,3.5928,3.5908,3.5897,3.5898,3.5872,3.5721,3.5579,3.5579,3.5534,3.5507,3.5488,3.5488,3.5507,3.5488,3.5493,3.5493,3.5493,3.5493,3.5474,3.5474,0.0,0.0,3.5631,3.5725,3.5883,3.5951,3.5988,3.5988,3.6066,3.6088,3.6127,3.6986,3.7396,3.7438,3.8277,3.9058,3.978,3.9878,3.9897,3.9937,4.0698,4.1108,4.1108,4.1108,4.1108,4.1108,4.1108,4.1108,4.1108,4.1108,4.1108,4.1108,4.1108,4.0717,3.9953,3.9836,3.9369,3.8442,0.0,0.0,0.0,0.0,0.0,0.0,0.0,0.0,0.0,0.0,0.0,0.0,0.0,0.0,0.0,3.5775,0.0,3.5795,3.5937,0.0,0.0,0.0,3.5878,3.5878,3.5885,3.5886,3.5802,0.0,0.0,0.0,0.0,3.5869,3.5985,3.5831,3.5723,3.5781,3.582,3.5822,3.5998,3.5959,3.594,3.6084,3.6018,3.5921,3.5801,3.5799,3.5834,3.5891,3.5891,3.5899,3.5882,3.5957,3.5982,3.5924,3.5894,3.5883,3.5891,3.5903,3.5889,3.5897,3.5872,3.5872,3.7035,3.6425,3.6425,3.6065,3.5507,3.5507,3.5507,3.5507,3.5507,3.546,3.5412,3.5432,3.5379,3.535,3.533,3.5397,3.5488,3.5535,3.56,3.5685,3.5788,3.5839,3.5897,3.6582,3.693,3.7058,3.7827,3.8218,3.8248,3.9099,3.9607,3.9825,4.0473,4.0789,4.0795,4.0991,4.1108,4.1108,4.1108,4.1108,4.1108,4.1108,4.1108,4.1108,4.1108,4.1108,4.1108,4.1108,4.0976,4.0725,4.0075,3.9559,3.9247,3.8338,0.0,0.0,0.0,0.0,0.0,0.0,0.0,0.0,0.0,3.5528,3.5581,0.0,3.5553,0.0,3.5815,3.5878,3.5808,3.5919,0.0,0.0,3.5869,3.5878,3.5831,3.5854,3.5889,3.5805,3.585,3.6134,3.6783,3.6753,3.6957,3.7627,3.6579,3.5916,3.6497,3.6654,3.6927,3.75,3.7607,3.7686,3.7599,3.7162,3.6567,3.5907,3.5862,3.5891,3.5898,3.5889,3.5892,3.5903,3.5957,3.5962,3.5929,3.5889,3.5892,3.589,3.5896,3.5891,3.5838,3.5815,3.5826,3.7719,3.7296,3.7276,3.7026,3.6546,3.5834,3.5507,3.5507,3.5507,3.5493,3.5427,3.5393,3.5364,3.5315,3.5315,3.534,3.5424,3.547,3.5705,3.6102,3.623,3.6479,3.6828,3.7354,3.7657,3.777,3.8603,3.9023,3.913,3.9969,4.0394,4.0383,4.0871,4.1109,4.1113,4.1101,4.1104,4.1108,4.1108,4.1108,4.1108,4.1108,4.1108,4.1108,4.1049,4.1023,4.1042,4.0984,4.0964,4.0914,4.0446,4.0138,4.0033,3.9138,3.8623,0.0,0.0,0.0,0.0,0.0,0.0,0.0,0.0,0.0,0.0,0.0,3.5615,0.0,3.5866,0.0,3.5891,3.5955,3.5964,3.5908,3.5859,3.5834,3.5795,3.6162,3.6396,3.6336,3.672,3.7181,3.7627,3.7637,3.7753,3.8277,3.7491,3.7005,3.7411,3.7566,3.7751,3.8209,3.8297,3.8317,3.8345,3.7974,3.7506,3.7078,3.6988,3.6904,3.6565,3.6489,3.636,3.6055,3.5971,3.5996,3.5911,3.5873,3.5859,3.584,3.5832,3.5807,3.5799,3.5763,3.5736,3.8257,3.8161,3.8161,3.8104,3.7892,3.6416,3.5801,3.582,3.582,3.5801,3.5787,3.5724,3.5656,3.5607,3.5611,3.5592,3.5607,3.5732,3.617,3.6826,3.6969,3.7401,3.8048,3.8205,3.8326,3.8466,3.931,3.9797,3.9939,4.068,4.105,4.105,4.105,4.105,4.1056,4.1067,4.1061,4.1058,4.1081,4.1078,4.1055,4.1055,4.1055,4.1055,4.0937,4.0901,4.0954,4.0842,4.0779,4.0772,4.0783,4.0733,4.0648,3.9887,3.941,0.0,3.8534,0.0,0.0,0.0,0.0,0.0,0.0,0.0,0.0,3.5621,3.5717,3.5888,3.5963,3.601,3.601,3.6007,3.6047,3.6142,3.6034,3.6015,3.616,3.6803,3.724,3.719,3.7898,3.8394,3.8481,3.8462,3.8471,3.8704,3.8694,3.8636,3.8626,3.8548,3.8528,3.8598,3.8637,3.883,3.8663,3.8594,3.851,3.841,3.8293,3.8176,3.7479,3.7366,3.716,3.6554,3.6328,3.6174,3.6072,3.5948,3.5813,3.5713,3.5718,3.5737,3.5784,3.5736,3.5708,3.9642,3.9065,3.9046,3.8627,3.7909,3.7563,3.7448,3.7448,3.7448,3.7417,3.7373,3.7285,3.725,3.725,3.7269,3.7269,3.725,3.7264,3.736,3.7529,3.7666,3.7781,3.7973,3.8769,3.9182,3.9254,4.0076,4.0505,4.0537,4.069,4.0779,4.077,4.077,4.0791,0.0,0.0,0.0,0.0,4.0987,4.0967,4.0846,4.0837,4.0857,4.0846,4.0782,0.0,4.0762,4.0738,4.0675,4.0565,4.0545,0.0,0.0,0.0,0.0,0.0,0.0,0.0,0.0,0.0,0.0,0.0,3.7559,3.6939,3.5731,3.5749,3.5859,3.5904,3.5963,3.601,3.601,3.6009,3.6269,3.6882,3.6908,3.7124,3.782,3.8052,3.8149,3.8151,3.8336,3.8747,3.933,3.9391,3.9607,4.0209,4.0354,4.0343,4.0345,3.9762,3.9636,4.0247,4.0267,4.0121,3.9539,3.9463,3.9215,3.8643,3.8458,3.8434,3.8307,3.8284,3.831,3.8026,3.7526,3.7044,3.6953,3.6378,3.5944,3.5737,3.5745,3.5706,3.5728,3.5708,3.5708,4.0273,0.0,3.9892,3.9627,0.0,3.9196,3.9144,3.9035,3.8246,3.7781,3.7603,3.7566,3.7547,3.7509,3.7509,3.7584,3.7693,3.7693,3.7922,3.8343,3.841,3.8673,3.9095,3.9615,3.988,3.9965,4.0389,4.0623,4.0699,4.0706,4.0706,4.0718,4.0718,4.0711,4.0703,4.0711,4.0726,4.0811,4.0839,4.081,4.0761,4.0731,4.0751,4.0731,0.0,0.0,0.0,0.0,0.0,0.0,0.0,0.0,0.0,0.0,0.0,4.0306,3.9905,3.9712,3.9727,3.938,3.8955,3.8597,3.8208,3.7654,3.6958,3.7078,3.7155,3.7219,3.7262,3.7282,3.7301,3.7262,3.7411,3.7792,3.7809,3.7983,3.8404,3.885,3.908,3.9142,3.9492,3.9914,4.0298,4.0279,4.0393,4.081,4.0887,4.0904,4.0902,4.0548,4.0441,4.0849,4.0898,4.0771,4.0441,4.0354,4.024,3.9819,3.977,3.9618,3.9259,3.9208,3.9117,3.8715,3.8197,3.7862,3.7793,3.7398,3.7065,3.6975,3.6942,3.6922,3.6878,3.6288,3.5707,4.0857,4.0723,4.0704,4.0614,4.0466,4.0466,4.0379,4.0138,0.0,0.0,0.0,3.7849,3.7809,3.7768,3.7707,3.7849,3.8079,3.8079,3.8517,3.924,3.9221,3.9603,4.031,4.0329,4.0345,4.046,4.0441,4.0519,4.0615,4.0615,4.0615,4.0615,4.0615,4.0596,4.0602,4.0582,4.0596,4.0604,4.0641,4.0665,4.0641,4.0641,4.0641,4.0622,4.0538,4.0468,4.0472,4.036,4.0328,4.0381,4.0366,4.0386,4.0382,4.0328,4.031,4.0308,4.031,4.031,4.0326,4.0344,4.0109,3.9448,3.8823,3.8389,3.8287,3.8335,3.8433,3.8567,3.859,3.859,3.8609,3.8551,3.8578,3.8709,3.8728,3.8778,3.8996,3.9578,4.0027,4.0086,4.057,4.1008,4.094,4.0909,4.0906,4.0926,4.0957,4.098,4.098,4.0918,4.0849,4.0888,4.0927,4.0927,4.0965,4.096,4.1042,4.0945,4.0996,4.0855,4.0324,4.0112,3.9839,3.9312,3.8901,3.8719,3.8623,3.8369,3.8276,3.8206,3.8206,3.8206,3.809,3.7135,3.6265,4.2159,4.1526,4.1526,4.1086,4.0344,4.0325,4.0177,3.9939,3.9967,3.9928,3.9872,3.9635,3.9553,3.9532,3.9293,3.9335,3.9575,3.9575,3.9773,0.0,4.0119,4.0196,4.031,4.0329,4.031,4.0328,4.0347,4.0327,4.0345,4.0345,4.0327,4.029,4.0272,4.0234,4.0196,4.0177,4.0177,4.0196,4.0399,4.0481,4.0356,4.0356,4.0356,4.0356,4.0325,4.0327,4.0327,4.031,4.031,4.0329,4.031,4.031,4.031,4.031,4.031,4.031,4.031,4.031,4.0307,4.0309,4.0289,4.0243,4.0178,3.9576,3.8276,3.8268,3.8351,3.8447,3.8609,3.8609,3.8609,3.8668,3.8941,3.9515,3.9626,3.9902,4.0539,4.0761,4.0859,4.0871,4.0996,4.1071,4.1006,4.0998,4.0953,4.0924,4.0967,4.0998,4.0988,4.0978,4.0972,4.0926,4.0946,4.0985,4.1002,4.1064,4.1081,4.1108,4.1108,4.1049,4.0873,4.0823,4.0748,4.0723,4.0064,3.9652,3.9509,3.8833,3.8542,3.8414,3.8426,3.8361,3.84,3.8032,3.782,4.2697,4.2371,4.2352,4.1743,4.0748,4.0148,3.9788,3.9693,3.9826,3.9762,3.9665,3.9526,3.9458,3.9452,3.935,3.9427,3.9693,3.9693,3.9739,3.9848,3.987,3.9889,3.987,3.987,3.9914,4.0036,4.0036,4.0096,4.0195,4.0195,4.0195,4.0137,3.9996,3.9914,3.987,3.9698,3.959,3.9632,3.9922,4.0042,4.0039,3.9857,3.9794,3.9876,3.987,3.987,3.987,3.987,3.9852,3.987,3.9881,3.9857,3.9867,3.9876,3.9876,3.9867,3.987,3.9935,4.008,4.0215,4.0327,4.0398,4.0449,4.0207,3.949,3.9514,3.9671,3.9809,3.9858,3.9917,3.9937,3.9937,4.0093,4.0464,4.0516,4.0672,4.0996,4.1099,4.1103,4.1114,4.111,4.1093,4.1071,4.1023,4.0979,4.0972,4.1012,4.1058,4.1068,4.1064,4.1042,4.098,4.0988,4.098,4.1013,4.1013,4.1053,4.1093,4.1111,4.1107,4.1105,4.1073,4.1064,4.1091,4.0684,4.0428,4.0365,4.0004,3.9695,3.9605,3.9618,3.9611,3.9611,3.9535,3.9161,4.3157,4.2945,4.2945,4.2324,4.1268,4.0171,3.9689,3.9645,3.9425,3.9192,3.9036,3.9073,3.9101,3.9101,3.9045,3.9137,3.9383,3.9408,3.9452,3.9483,3.9483,3.9483,3.9483,3.9483,3.9556,3.9675,3.9675,3.9762,3.9892,3.9892,3.9892,3.9851,3.9651,3.9556,3.9537,3.9275,3.9152,3.9171,3.9345,3.9513,3.9651,3.9421,3.9327,3.9414,3.9414,3.9439,3.9445,3.9432,3.9475,3.9508,3.948,3.9507,3.9489,3.9483,3.9502,3.9502,3.9496,3.957,3.9785,4.008,4.0252,4.0289,4.0396,4.0468,4.0482,4.0583,4.0726,4.0903,4.089,4.0971,4.0991,4.103,4.1108,4.1108,4.1108,4.1072,4.1108,4.1108,4.1108,4.1111,4.1107,4.1108,4.1103,4.1055,4.1041,4.1023,4.1052,4.1094,4.1112,4.111,4.1074,4.1025,4.1003,4.0983,4.0988,4.1013,4.1035,4.1069,4.1082,4.1072,4.1034,4.1016,4.1026,4.1052,4.0982,4.0848,4.0868,4.079,4.0694,4.0616,4.0578,4.0674,4.0559,4.0419,4.0159,4.402,4.3149,4.3092,4.2615,4.1747,4.07,4.0225,4.0104,3.9213,3.875,3.8835,3.9007,3.912,3.9073,3.8851,3.8892,3.9129,3.9156,3.9272,3.9458,3.9483,3.9483,3.9458,3.9502,3.9458,3.9352,3.9352,3.9327,3.9327,3.9308,3.9257,3.9178,3.9117,3.9082,3.9063,3.9036,3.9008,3.9008,3.8818,3.8876,3.9249,3.9231,3.9205,3.9231,3.9223,3.9275,3.9301,3.9314,3.9382,3.9477,3.948,3.9489,3.9464,3.9491,3.9472,3.9483,3.9507,3.9507,3.9551,3.9785,3.9937,3.9962,4.0177,4.0325,4.0379,4.0447,4.0585,4.0713,4.0875,4.0996,4.101,4.1065,4.1081,4.1078,4.1081,4.1108,4.1085,4.1108,4.1108,4.1108,4.1094,4.1111,4.1114,4.1089,4.1094,4.1094,4.1074,4.109,4.1099,4.1108,4.1101,4.1091,4.1054,4.1015,4.1019,4.1056,4.1052,4.1023,4.1007,4.0983,4.0957,4.0974,4.0984,4.1009,4.0958,4.0887,4.0868,4.0848,4.081,4.0771,4.0752,4.0713,4.0559,4.0415,4.0223,4.4304,4.3857,4.3876,4.3278,4.2294,4.1237,4.0769,4.0732,4.0331,3.9863,3.9423,3.9522,3.9324,3.887,3.875,3.875,3.8851,3.8881,3.8921,3.9017,3.9017,3.9017,3.9017,3.9017,3.9055,3.9119,3.9091,3.9137,3.9181,3.9136,3.9044,3.9017,3.8857,3.8778,3.8759,3.8597,3.8523,3.8523,3.8433,3.8446,3.8597,3.8658,3.8688,3.873,3.8711,3.8741,3.8828,3.883,3.8906,3.9017,3.9024,3.9043,3.9007,3.9045,3.9045,3.9017,3.9166,3.9266,3.929,3.9526,3.9651,3.9656,3.9772,3.9819,3.9899,4.0081,4.0248,4.0296,4.0571,4.0781,4.0863,4.0915,4.0935,4.0915,4.0915,4.0915,4.0915,4.1011,4.1047,4.1033,4.1074,4.1108,4.1104,4.1061,4.1066,4.1091,4.1072,4.1051,4.1094,4.1105,4.1111,4.1111,4.1074,4.107,4.1058,4.105,4.103,4.1003,4.0974,4.0929,4.0918,4.0915,4.0934,4.0938,4.0868,4.0848,4.0829,4.0829,4.0778,4.0698,4.0539,4.0466,4.0383,4.0283,4.0302,4.4231,4.4173,4.4143,4.3669,4.2828,4.1852,4.1442,4.1387,4.1222,4.0763,4.0249,4.023,3.9772,3.9074,3.8817,3.8707,3.8707,3.8707,3.8707,3.8707,3.8707,3.8689,3.8658,3.8658,3.8701,3.8785,3.8743,3.8803,3.8902,3.8836,3.877,3.8759,3.8585,3.8478,3.8478,3.8307,3.8192,3.8192,3.8192,3.8192,3.8225,3.8241,3.8307,3.8354,3.8336,3.8368,3.8446,3.8442,3.8504,3.8658,3.8645,3.8645,3.8707,3.8689,3.867,3.8689,3.8773,3.8902,3.896,3.9245,3.9383,3.9383,3.9464,3.95,3.9524,3.9709,3.9851,3.9879,4.021,4.0482,4.0706,4.0784,4.0798,4.0791,4.081,4.081,4.082,4.089,4.094,4.0948,4.1017,4.1066,4.1057,4.1013,4.0957,4.0986,4.0981,4.0945,4.0994,4.0981,4.0979,4.0986,4.1013,4.1033,4.1065,4.1054,4.0994,4.0946,4.0897,4.0877,4.0865,4.0866,4.0861,4.0861,4.0778,4.0707,4.0688,4.0688,4.0646,4.0479,4.0341,4.0266,4.0248,4.0139,4.0101,4.3846,4.3563,4.3548,4.3493,4.3403,4.258,4.2249,4.2161,4.1464,4.1097,4.1042,4.1042,4.0616,3.9808,3.9148,3.8726,3.8707,3.8707,3.8707,3.8707,3.8707,3.8609,3.851,3.851,3.8446,3.8419,3.8387,3.834,3.8307,3.8274,3.8241,3.8259,3.8241,3.8207,3.8259,3.8225,3.8192,3.8192,3.8192,3.8192,3.8192,3.8225,3.8207,3.8174,3.8207,3.8241,3.8289,3.8303,3.8368,3.851,3.8437,3.8524,3.8627,3.8566,3.8554,3.8645,3.835,3.8318,3.867,3.8931,3.9101,3.9156,3.9305,3.9483,3.9433,3.9494,3.9535,3.9528,3.9794,4.013,4.0507,4.0658,4.0745,4.0751,4.0772,4.0762,4.0772,4.0762,4.081,4.0829,4.0933,4.0974,4.1006,4.0894,4.084,4.083,4.0811,4.0801,4.0771,4.074,4.0768,4.078,4.0799,4.0851,4.0961,4.0982,4.0916,4.0873,4.0843,4.0804,4.0808,4.081,4.079,4.0746,4.0654,4.0582,4.0513,4.0458,4.0383,4.0269,4.0196,4.012,4.0101,3.9979,3.9977,4.3497,4.3322,4.3322,4.3304,4.3267,4.3011,4.2902,4.2865,4.2556,4.2029,4.1504,4.1661,4.1223,4.0195,4.0244,3.968,3.8762,3.8707,3.8707,3.8707,3.8707,3.8609,3.851,3.851,3.8446,3.8387,3.834,3.8274,3.8225,3.8192,3.8192,3.8192,3.8192,3.8192,3.8192,3.8192,3.8192,3.8192,3.8192,3.8192,3.8192,3.8192,3.8054,3.7792,3.8072,3.8225,3.8307,3.831,3.8241,3.8065,3.8303,3.8372,3.8225,3.8241,3.8267,3.8276,3.7918,3.7879,3.8252,3.8415,3.8585,3.8822,3.8921,3.8989,3.9017,3.9119,3.9234,3.9294,3.9477,3.9731,3.9897,4.0234,4.0427,4.038,4.0377,4.0373,4.0404,4.0458,4.0552,4.0679,4.0821,4.087,4.0854,4.0804,4.0752,4.0798,4.0734,4.0699,4.0703,4.0711,4.0694,4.0699,4.0679,4.0675,4.0641,4.0801,4.0851,4.0827,4.0796,4.0796,4.079,4.0746,4.0746,4.0626,4.0496,4.0431,4.0369,4.0283,4.0196,4.0158,4.0061,4.002,3.9977,3.9914,3.9892,4.3305,4.316,4.3032,4.2976,4.2921,4.2808,4.277,4.2752,4.2752,4.233,4.1725,4.1937,4.1486,4.067,4.08,4.0236,3.907,3.9063,3.9074,3.9056,3.8786,3.8559,3.8478,3.8446,3.8419,3.8354,3.8307,3.8241,3.8192,3.8192,3.8192,3.8192,3.8192,3.8192,3.8192,3.8054,3.7984,3.7962,3.7826,3.7792,3.7773,3.7774,3.7613,3.7395,3.7613,3.781,3.7845,3.7846,3.7757,3.7596,3.7826,3.7861,3.7649,3.763,3.7667,3.7777,3.7494,3.7451,3.7826,3.7913,3.8101,3.8433,3.8515,3.8515,3.8496,3.8664,3.8762,3.8829,3.9026,3.9216,3.9414,3.9773,4.0011,3.9939,3.9962,3.9943,4.0003,4.0136,4.0361,4.061,4.0683,4.0712,4.0761,4.0662,4.0646,4.0662,4.0568,4.053,4.0554,4.0574,4.0545,4.0564,4.0511,4.0477,4.0453,4.0539,4.0635,4.0662,4.0626,4.0654,4.07,4.0687,4.0626,4.0481,4.0383,4.0281,4.0195,4.0096,4.0055,4.002,3.9979,3.9935,3.9914,3.9911,3.9889,4.3178,4.3069,4.2657,4.2444,4.2404,4.2062,4.1853,4.1895,4.1853,4.18,4.1651,4.1782,4.144,4.0866,4.0801,4.0334,3.9843,3.9819,3.9794,3.9648,3.8885,3.8474,3.846,3.8307,3.8256,3.8225,3.8225,3.8192,3.8192,3.8192,3.8192,3.8192,3.814,3.8072,3.8158,3.7721,3.7506,3.7451,3.7216,3.7006,3.6925,3.7006,3.6995,3.69,3.6956,3.6939,3.69,3.6939,3.7017,3.6981,3.7017,3.6953,3.7057,3.6862,3.6841,3.7189,3.6943,3.6999,3.7414,3.7487,3.7632,3.7982,3.8101,3.805,3.8083,3.8117,3.8143,3.8196,3.8365,3.8619,3.899,3.9276,3.9482,3.9575,3.9599,3.9641,3.9668,3.9922,4.0252,4.0588,4.0612,4.0558,4.0623,4.0598,4.0523,4.0466,4.0394,4.0362,4.0381,4.0363,4.031,4.0272,4.0308,4.0304,4.0292,4.0286,4.0379,4.0453,4.0415,4.0419,4.0466,4.0481,4.0438,4.0317,4.0213,4.012,4.0061,3.9951,3.9951,3.9935,3.9889,3.9889,3.9889,3.9889,3.9867,4.2595,4.2458,4.1997,4.1828,4.181,4.1656,4.1613,4.1595,4.1613,4.1464,4.1303,4.1587,4.1446,4.1165,4.1286,4.1315,4.1073,4.0628,4.0101,3.9511,3.874,3.8492,3.8564,3.8132,3.802,3.8192,3.8192,3.8192,3.8192,3.8192,3.8054,3.7792,3.7721,3.7577,3.7339,3.717,3.7104,3.7057,3.6953,3.6895,3.6886,3.6895,3.6759,3.6533,3.6492,3.635,3.6054,3.658,3.6741,3.6539,3.6803,3.7041,3.7064,3.6806,3.6703,3.6807,3.654,3.6574,3.696,3.6999,3.7135,3.747,3.7542,3.7542,3.756,3.7632,3.7667,3.7685,3.7772,3.7898,3.8013,3.8328,3.8759,3.9279,3.9364,3.9414,3.9513,3.9838,4.0251,4.0495,4.0508,4.0511,4.0556,4.0509,4.0456,4.0363,4.0307,4.0308,4.031,4.0311,4.0291,4.0234,4.0215,4.0157,4.0133,4.0108,4.0158,4.0245,4.0247,4.0248,4.03,4.03,4.023,4.0177,4.006,3.9977,3.9914,3.9889,3.9889,3.9889,3.9889,3.9889,3.9889,3.9848,3.9781,4.2015,4.1888,4.1455,4.123,4.123,4.1094,4.0955,4.0955,4.1001,4.0861,4.0754,4.099,4.0972,4.0879,4.1076,4.1196,4.1161,4.0645,4.0147,3.9643,3.8983,3.8801,3.8851,3.8176,3.7895,3.8025,3.7829,3.7703,3.7703,3.7703,3.7559,3.7321,3.7283,3.717,3.69,3.6759,3.6659,3.6644,3.6481,3.6419,3.6422,3.6419,3.6308,3.6071,3.6045,3.5888,3.565,3.6139,3.6308,3.6114,3.6333,3.6522,3.6597,3.6345,3.6304,3.629,3.619,3.6233,3.6498,3.6498,3.6626,3.6964,3.7079,3.7117,3.7173,3.7228,3.7279,3.7279,3.729,3.7345,3.754,3.7721,3.8172,3.873,3.8942,3.9137,3.9305,3.9571,3.9928,4.0185,4.0315,4.0361,4.0447,4.0436,4.0401,4.0326,4.0308,4.0309,4.031,4.0291,4.0234,4.0176,4.0099,4.0058,3.9977,3.9975,3.9956,4.0021,4.0081,4.0139,4.0195,4.0139,4.008,4.004,3.9956,3.9935,3.9889,3.9889,3.9889,3.9889,3.987,3.9826,3.9781,3.9717,3.9623,4.1437,4.1393,4.0972,4.0754,4.0707,4.0336,4.0221,4.0171,4.0171,4.0171,4.0171,4.0221,4.0271,4.0288,4.0303,4.0353,4.0271,4.0252,4.0118,3.997,3.9534,3.9298,3.903,3.8433,3.8121,3.7928,3.74,3.7066,3.7073,3.7034,3.686,3.686,3.686,3.6821,3.6661,3.6409,3.6288,3.6186,3.5848,3.5711,3.5701,3.5667,3.5667,3.5667,3.5667,3.5622,3.5605,3.5694,3.5711,3.5622,3.5694,3.5739,3.5667,3.5639,3.5751,3.5881,3.5824,3.5905,3.5975,3.6045,3.6182,3.6603,3.6666,3.6706,3.6821,3.686,3.6878,3.6873,3.6835,3.6986,3.7276,3.7447,3.7703,3.8086,3.8541,3.8873,3.9063,3.9178,3.9486,3.985,3.9999,4.006,4.025,4.0234,4.0215,4.0253,4.0253,4.0253,4.0291,4.0253,4.0176,4.0118,4.0039,3.9998,3.9935,3.9914,3.9914,3.9935,4.0,4.004,4.008,4.002,3.9977,3.9935,3.9911,3.9911,3.9889,3.9889,3.9889,3.9889,3.9826,3.9758,3.9647,3.9556,3.9364,4.0972,4.0926,4.0483,4.0303,4.0271,4.0138,4.007,4.007,4.007,4.002,4.007,4.0087,4.0087,4.0138,4.007,4.0121,4.007,4.007,4.0087,4.007,3.9963,3.937,3.8937,3.8796,3.8502,3.8012,3.7691,3.7444,3.6935,3.6821,3.6719,3.6451,3.6451,3.6266,3.5985,3.5871,3.5793,3.5795,3.5671,3.5577,3.5577,3.5577,3.5639,3.5639,3.5622,3.5622,3.5639,3.5639,3.5639,3.5639,3.5639,3.5639,3.5639,3.5594,3.5599,3.5712,3.5779,3.5861,3.5932,3.5888,3.5958,3.6114,3.6182,3.6259,3.636,3.6426,3.6451,3.6468,3.6471,3.653,3.6655,3.69,3.7377,3.8,3.8415,3.8815,3.9119,3.9261,3.9383,3.9646,3.97,3.9738,3.9762,3.9781,3.9823,3.9956,3.9998,4.0038,4.0118,4.0176,4.0098,4.0098,4.0019,3.9956,3.9914,3.9892,3.9911,3.9892,3.9914,3.9935,3.9956,3.9935,3.9914,3.9911,3.9911,3.9889,3.9889,3.9889,3.9889,3.9867,3.9731,3.9595,3.9446,3.9338,3.9054,4.0451,4.0402,4.0171,3.9969,3.9747,3.9713,3.9575,3.9348,3.9348,3.9348,3.9348,3.9332,3.9348,3.9365,3.9332,3.9348,3.9348,3.9348,3.9348,3.9348,3.9542,3.9479,3.9221,3.9187,3.8656,3.7975,3.7672,3.7059,3.6471,3.6333,3.6224,3.6045,3.6019,3.5871,3.5667,3.5639,3.5639,3.5622,3.5594,3.5566,3.5554,3.5566,3.5549,3.5549,3.5577,3.5639,3.5577,3.5379,3.5379,3.5532,3.5639,3.5639,3.5594,3.5392,3.5335,3.5385,3.5404,3.5407,3.5453,3.5424,3.5515,3.5694,3.5694,3.5677,3.5783,3.5958,3.6071,3.6088,3.6071,3.6174,3.6367,3.6666,3.7061,3.7524,3.7998,3.8473,3.8989,3.9017,3.9166,3.9298,3.9389,3.9416,3.9477,3.948,3.957,3.9698,3.9739,3.9762,3.9829,3.9935,3.9975,3.9895,3.9914,3.987,3.9848,3.9826,3.9845,3.9845,3.9762,3.9804,3.9826,3.9826,3.9889,3.9889,3.9889,3.987,3.9829,3.9785,3.9819,3.9717,3.9586,3.9352,3.9184,3.9027,3.8759,3.9901,3.9901,3.9986,3.9696,3.9259,3.9135,3.8849,3.8407,3.839,3.839,3.839,3.8334,3.8502,3.8278,3.8502,3.8334,3.839,3.8502,3.8446,3.8574,3.892,3.9199,3.9513,3.9342,3.8829,3.8116,3.7293,3.6644,3.6112,3.5813,3.5622,3.5667,3.5622,3.5622,3.5594,3.5594,3.5577,3.5577,3.5503,3.548,3.5513,3.5525,3.5537,3.5566,3.5594,3.5532,3.5379,3.5131,3.4991,3.5396,3.5448,3.5335,3.5295,3.4922,3.4757,3.4708,3.4709,3.4738,3.4721,3.4769,3.4864,3.5115,3.5128,3.5128,3.5191,3.5419,3.5616,3.5616,3.5766,3.5985,3.6301,3.6638,3.686,3.7038,3.7303,3.7791,3.8368,3.8596,3.875,3.9013,3.9062,3.9173,3.932,3.9418,3.9412,3.9413,3.9458,3.9445,3.9494,3.9585,3.9585,3.9561,3.9628,3.9758,3.9758,3.9781,3.9777,3.9773,3.9647,3.9604,3.967,3.9693,3.9804,3.9845,3.9758,3.9679,3.9622,3.9637,3.9632,3.9502,3.9277,3.9032,3.881,3.8695,3.8478,3.9729,3.9729,3.9382,3.9135,3.8974,3.8684,3.8407,3.8294,3.8278,3.8165,3.8278,3.8278,3.8222,3.8278,3.8165,3.8278,3.8165,3.8165,3.8278,3.8334,3.839,3.8502,3.8887,3.9272,3.9378,3.8635,3.799,3.7263,3.6586,3.5943,3.5594,3.5537,3.5594,3.5577,3.552,3.552,3.5549,3.5498,3.5396,3.5388,3.5408,3.545,3.5475,3.5503,3.5577,3.5362,3.5055,3.4868,3.4676,3.4414,3.4352,3.4363,3.4394,3.4267,3.4177,3.4156,3.4147,3.4185,3.4185,3.4169,3.4268,3.4447,3.4463,3.4479,3.4592,3.4847,3.5035,3.5128,3.5464,3.5837,3.6224,3.6367,3.6557,3.6781,3.6978,3.719,3.7703,3.805,3.8423,3.8682,3.8799,3.8799,3.8903,3.894,3.8992,3.9129,3.9127,3.9117,3.9171,3.9223,3.9223,3.9216,3.932,3.9414,3.9439,3.9477,3.9546,3.9571,3.9439,3.9389,3.9439,3.9513,3.9604,3.9623,3.9575,3.9494,3.9395,3.9284,3.9246,3.9104,3.8976,3.8787,3.8588,3.8423,3.8322,3.9152,3.9082,3.8629,3.8334,3.8108,3.7806,3.7663,3.7504,3.7445,3.7445,3.7445,3.7445,3.7445,3.7445,3.7445,3.7445,3.746,3.7445,3.7445,3.7504,3.7663,3.7895,3.8026,3.8728,3.8983,3.8539,3.8187,3.7597,3.6861,3.6366,3.5966,3.5508,3.5566,3.552,3.5446,3.54,3.54,3.5383,3.5274,3.5155,3.4952,3.4965,3.5118,3.5287,3.5424,3.5333,3.488,3.4546,3.4184,3.3738,3.3414,3.3549,3.3855,3.3774,3.362,3.363,3.3618,3.363,3.3614,3.3665,3.3716,3.3919,3.3889,3.3855,3.3987,3.4268,3.4447,3.4496,3.4908,3.5459,3.5976,3.6097,3.6266,3.6516,3.6638,3.6781,3.7208,3.7739,3.815,3.8387,3.8566,3.867,3.8707,3.8707,3.867,3.8826,3.8826,3.8789,3.873,3.8789,3.8886,3.8915,3.8999,3.9082,3.9109,3.9156,3.925,3.925,3.9185,3.9156,3.9163,3.9268,3.9371,3.9338,3.9261,3.9242,3.913,3.9015,3.892,3.8818,3.8716,3.8569,3.8449,3.8343,3.8274,3.8351,3.8278,3.7806,3.7413,3.7055,3.7011,3.6799,3.6538,3.6492,3.6662,3.6492,3.6492,3.6662,3.6554,3.66,3.6554,3.6554,3.6616,3.6723,3.6769,3.7058,3.7222,3.7401,3.7732,3.8035,3.7978,3.7923,3.7435,3.6882,3.6632,3.5988,3.5471,3.5508,3.5446,3.5291,3.5245,3.5215,3.5108,3.4916,3.4676,3.4329,3.4365,3.4513,3.4927,3.5165,3.5148,3.461,3.4151,3.3642,3.3108,3.2656,3.2912,3.3376,3.3395,3.3091,3.3075,3.3074,3.3071,3.3093,3.3093,3.323,3.3471,3.3328,3.3208,3.3319,3.361,3.3799,3.3986,3.4301,3.5015,3.5685,3.5839,3.5985,3.6241,3.6284,3.6433,3.6856,3.7484,3.7845,3.8168,3.8468,3.8689,3.8676,3.8676,3.8609,3.8528,3.851,3.8446,3.8415,3.8415,3.8523,3.8566,3.8658,3.878,3.8829,3.8766,3.8872,3.8927,3.8927,3.884,3.8828,3.8847,3.8905,3.8971,3.8943,3.8896,3.8839,3.8718,3.8621,3.8561,3.8495,3.8419,3.8313,3.8244,3.8192,3.7589,3.7546,3.7087,3.6829,3.6738,3.6492,3.6321,3.6274,3.6414,3.6492,3.6492,3.6492,3.6492,3.6492,3.6492,3.6492,3.6429,3.6492,3.6492,3.6429,3.6662,3.6723,3.6785,3.6937,3.7128,3.7393,3.7391,3.7015,3.6495,3.6125,3.5678,3.5033,3.5182,3.5291,3.5088,3.5105,3.4868,3.4595,3.4366,3.4115,3.3909,3.3829,3.407,3.456,3.4818,3.4626,3.4167,3.3625,3.3115,3.2594,3.2453,3.2523,3.2734,3.2655,3.2631,3.2616,3.2609,3.2641,3.2641,3.2602,3.2547,3.2602,3.2664,3.261,3.2656,3.2958,3.3224,3.3435,3.3933,3.4706,3.5673,3.5667,3.5958,3.6156,3.6241,3.6343,3.6502,3.6911,3.7432,3.7863,3.8289,3.8707,3.8676,3.8645,3.8564,3.8483,3.8433,3.8368,3.8354,3.8307,3.8307,3.8289,3.8289,3.8467,3.8594,3.8463,3.8445,3.8601,3.8583,3.846,3.8433,3.8354,3.8368,3.8455,3.8548,3.8597,3.8523,3.8446,3.8405,3.8386,3.8334,3.8246,3.821,3.8158,3.8088,3.689,3.6845,3.6321,3.6133,3.6117,3.5991,3.607,3.6211,3.6274,3.6414,3.6492,3.6492,3.6492,3.6492,3.6492,3.6367,3.6163,3.6414,3.6352,3.6226,3.6352,3.6492,3.6492,3.6492,3.6662,3.6859,3.6845,3.6844,3.667,3.6254,3.5489,3.4836,3.4905,3.4675,3.435,3.4382,3.4234,3.3933,3.3713,3.3539,3.3303,3.323,3.3614,3.3903,3.4203,3.4104,3.3646,3.3419,3.2928,3.2523,3.2398,3.2398,3.2398,3.2398,3.2398,3.2398,3.2398,3.2398,3.2398,3.2398,3.2453,3.2398,3.2398,3.2398,3.2508,3.2742,3.292,3.3203,3.3346,3.4133,3.487,3.5135,3.547,3.5915,3.6045,3.6114,3.631,3.6661,3.7073,3.7514,3.7948,3.831,3.8676,3.8614,3.8501,3.8437,3.8354,3.8289,3.8241,3.8259,3.8192,3.8119,3.8083,3.8119,3.8231,3.8126,3.8003,3.8128,3.8198,3.8108,3.802,3.7967,3.7915,3.7911,3.805,3.8168,3.8285,3.8252,3.8223,3.8192,3.8124,3.809,3.8124,3.8054,3.7933,3.5976,3.5913,3.5314,3.5118,3.5204,3.5204,3.54,3.5657,3.5737,3.58,3.6085,3.6085,3.6148,3.6148,3.6085,3.5943,3.5544,3.5958,3.5816,3.5688,3.5894,3.6163,3.6289,3.6352,3.6414,3.66,3.66,3.6594,3.6508,3.6178,3.5449,3.4711,3.4392,3.4002,3.3563,3.3799,3.3527,3.3251,3.3039,3.2841,3.2641,3.2841,3.3093,3.3182,3.3609,3.3609,3.3323,3.3061,3.2826,3.2547,3.2398,3.2398,3.2398,3.2398,3.2398,3.2398,3.2398,3.2398,3.2398,3.2398,3.2398,3.2398,3.2398,3.2398,3.2453,3.2617,3.292,3.3212,3.3361,3.3722,3.4413,3.4611,3.5071,3.5605,3.5854,3.5915,3.6225,3.6515,3.6686,3.7101,3.7542,3.7839,3.8088,3.8135,3.7966,3.8104,3.8018,3.8171,3.8122,3.8225,3.8174,3.8047,3.7941,3.7887,3.7839,3.7739,3.765,3.7649,3.7685,3.7631,3.7613,3.7559,3.7505,3.7451,3.7578,3.7703,3.7897,3.7928,3.7735,3.7665,3.7861,3.7863,3.7667,3.7541,3.745,3.4566,3.4499,3.3768,3.3492,3.3575,3.3768,3.3851,3.3973,3.4447,3.4499,3.478,3.5008,3.5219,3.5219,3.5219,3.5073,3.5073,3.5154,3.5154,3.5023,3.5219,3.5479,3.5752,3.5816,3.6085,3.6289,3.6429,3.6153,3.6017,3.5733,3.5031,3.4297,3.3932,3.3547,3.3177,3.3266,3.3108,3.2749,3.2547,3.2398,3.2231,3.2788,3.3039,3.3166,3.326,3.3212,3.3077,3.2756,3.2477,3.2437,3.2398,3.2398,3.2398,3.2398,3.2398,3.2398,3.2398,3.2398,3.2398,3.2398,3.2398,3.2398,3.2398,3.2398,3.2453,3.2468,3.2726,3.3248,3.3285,3.3582,3.4194,3.4562,3.5088,3.5424,3.5633,3.5854,3.6191,3.6285,3.6456,3.6575,3.696,3.7126,3.7323,3.7372,3.7414,3.7596,3.7739,3.7845,3.7933,3.7916,3.788,3.7684,3.7595,3.7541,3.7506,3.7376,3.7312,3.7235,3.7226,3.7243,3.7226,3.7208,3.7055,3.7017,3.7094,3.7046,3.7092,3.7058,3.7041,3.718,3.7382,3.727,3.7017,3.6978,3.696,3.3269,3.363,3.3353,3.3227,3.3227,3.3297,3.3353,3.3561,3.3988,3.4259,3.438,3.4728,3.489,3.489,3.489,3.4743,3.4543,3.4743,3.4677,3.4624,3.4758,3.5023,3.5219,3.5285,3.5559,3.5958,3.607,3.615,3.5845,3.5517,3.4969,3.4125,3.3763,3.3201,3.2773,3.2749,3.2602,3.2398,3.2302,3.2247,3.2247,3.2492,3.2749,3.2749,3.2756,3.2772,3.2734,3.2602,3.2398,3.2398,3.2398,3.2398,3.2398,3.2398,3.2398,3.2398,3.2398,3.2398,3.2398,3.2398,3.2398,3.2398,3.2398,3.2398,3.2398,3.2413,3.2499,3.2764,3.3146,3.3456,3.3774,3.4117,3.4497,3.4849,3.527,3.5588,3.5854,3.6019,3.6157,3.6234,3.6311,3.6498,3.6676,3.687,3.6992,3.717,3.7264,3.7301,3.7339,3.7301,3.7266,3.7232,3.7142,3.7124,3.7087,3.7044,3.7037,3.7002,3.7009,3.6952,3.6917,3.6821,3.662,3.6433,3.635,3.6325,3.6269,3.6531,3.6784,3.6876,3.692,3.6787,3.6667,3.6597,3.6638,3.229,3.2676,3.2662,3.2662,3.2662,3.2676,3.2733,3.2875,3.3227,3.3575,3.3851,3.4206,3.4491,3.4491,3.4438,3.4221,3.3948,3.4356,3.4221,3.4153,3.4288,3.4491,3.461,3.4743,3.4957,3.5494,3.5479,3.5721,3.598,3.5722,3.5049,3.412,3.3702,3.2972,3.2246,3.2191,3.2247,3.2094,3.2191,3.2191,3.2247,3.2358,3.2453,3.2453,3.2398,3.2398,3.2398,3.2398,3.2398,3.2398,3.2398,3.2398,3.2398,3.2398,3.2398,3.2398,3.2398,3.2398,3.2398,3.2398,3.2398,3.2398,3.2398,3.2398,3.2398,3.2398,3.2514,3.2647,3.2944,3.3081,3.3145,3.361,3.3949,3.4349,3.4723,3.5102,3.5424,3.5694,3.5888,3.5966,3.5983,3.5895,3.6122,3.638,3.6589,3.6776,3.6821,3.6799,3.6838,3.6838,3.6825,3.6794,3.6767,3.6667,3.6509,3.6543,3.658,3.6659,3.6669,3.6585,3.6451,3.6308,3.6156,3.5958,3.58,3.5803,3.5941,3.6281,3.6579,3.6405,3.6336,3.6449,3.6414,3.6268,3.6451,3.175,3.1123,3.1198,3.1185,3.1272,3.1123,3.1198,3.1408,3.169,3.2128,3.2618,3.3086,3.3507,3.3521,3.3577,3.3507,3.3382,3.3382,3.3452,3.3452,3.3452,3.3756,3.4016,3.4221,3.4409,3.4876,3.4942,3.5285,3.5608,3.5646,3.5094,3.4493,3.3778,3.2825,3.2224,3.2114,3.2109,3.2053,3.2206,3.2247,3.2247,3.2342,3.2398,3.2398,3.2398,3.2398,3.2398,3.2398,3.2398,3.2398,3.2398,3.2398,3.2398,3.2398,3.2398,3.2398,3.2398,3.2398,3.2398,3.2398,3.2398,3.2398,3.2398,3.2398,3.2398,3.2398,3.253,3.2748,3.2921,3.2989,3.315,3.3372,3.363,3.3813,3.4218,3.4706,3.5085,3.547,3.565,3.5711,3.5773,3.5684,3.5701,3.599,3.6122,3.6326,3.635,3.6367,3.6539,3.658,3.6522,3.6435,3.6364,3.6173,3.582,3.5853,3.6051,3.6084,3.6078,3.5975,3.5844,3.5756,3.5844,3.5756,3.5667,3.5622,3.5639,3.5905,3.6036,3.5817,3.5745,3.5973,3.6078,3.601,3.6326,3.1259,3.0986,3.0986,3.0986,3.0986,3.0986,3.0986,3.1061,3.1421,3.1909,3.2489,3.2775,3.3086,3.3241,3.3312,3.3312,3.3312,3.3312,3.3312,3.3312,3.3382,3.3437,3.3563,3.3701,3.3908,3.4288,3.4423,3.4677,3.5154,3.5219,3.5048,3.45,3.3909,3.3432,3.2856,3.2348,3.2221,3.2206,3.2302,3.2342,3.2342,3.2342,3.2398,3.2398,3.2398,3.2398,3.2398,3.2398,3.2398,3.2398,3.2398,3.2398,3.2398,3.2398,3.2398,3.2398,3.2398,3.2398,3.2398,3.2398,3.2398,3.2398,3.2398,3.2398,3.2398,3.2398,3.2428,3.26,3.2772,3.2889,3.2757,3.3068,3.3356,3.3425,3.3713,3.4251,3.4642,3.5021,3.5362,3.547,3.5577,3.5639,3.5639,3.5639,3.5756,3.581,3.5871,3.5958,3.6156,3.6266,3.6165,3.6105,3.6035,3.5889,3.5565,3.5543,3.5622,3.556,3.556,3.5639,3.5639,3.5639,3.5667,3.5622,3.5639,3.5639,3.5639,3.5639,3.5639,3.5639,3.5622,3.5684,3.5728,3.5773,3.6199,3.0986,3.0986,3.0986,3.0986,3.0986,3.0986,3.0986,3.1061,3.1272,3.185,3.2561,3.2632,3.2931,3.3241,3.3312,3.3312,3.3312,3.3312,3.3312,3.3312,3.3312,3.3312,3.3312,3.3382,3.3577,3.3839,3.3894,3.4153,3.461,3.4677,3.4741,3.4603,3.4301,3.3698,3.3154,3.2655,3.2342,3.2398,3.2398,3.2398,3.2382,3.2398,3.2398,3.2398,3.2398,3.2398,3.2398,3.2398,3.2398,3.2398,3.2398,3.2398,3.2398,3.2398,3.2398,3.2398,3.2398,3.2398,3.2398,3.2398,3.2398,3.2398,3.2398,3.2398,3.2398,3.2398,3.2413,3.2413,3.2631,3.2662,3.2398,3.2748,3.2936,3.2904,3.3282,3.3767,3.4119,3.4512,3.4911,3.5224,3.5379,3.5639,3.5577,3.5577,3.5577,3.565,3.5694,3.5756,3.5783,3.5871,3.5783,3.5783,3.5749,3.5576,3.5363,3.5464,3.5515,3.5313,3.5346,3.556,3.5639,3.5639,3.5639,3.5639,3.5639,3.5639,3.5639,3.5639,3.5639,3.5639,3.5622,3.5622,3.5756,3.5844,3.6156,3.0986,3.0986,3.0986,3.0911,3.0911,3.0986,3.0986,3.0986,3.0973,3.132,3.1896,3.2259,3.2704,3.2945,3.2874,3.2945,3.3086,3.3157,3.3241,3.3241,3.3312,3.3312,3.3312,3.3312,3.3382,3.3312,3.3452,3.3701,3.4085,3.4085,3.4336,3.4545,3.4199,3.3602,3.3203,3.2527,3.2262,3.2342,3.2287,3.2287,3.2342,3.2287,3.2287,3.2398,3.2398,3.2398,3.2398,3.2398,3.2398,3.2398,3.2398,3.2398,3.2398,3.2398,3.2398,3.2398,3.2398,3.2398,3.2398,3.2398,3.2398,3.2398,3.2398,3.2398,3.2398,3.2398,3.2398,3.2398,3.2484,3.2484,3.2413,3.2413,3.2484,3.2648,3.3018,3.3303,3.3665,3.4119,3.4577,3.4927,3.5333,3.5622,3.5577,3.5577,3.5532,3.5532,3.556,3.5577,3.5577,3.556,3.556,3.5363,3.5363,3.5296,3.52,3.5374,3.5391,3.5155,3.5183,3.5493,3.5639,3.5639,3.5639,3.5577,3.5639,3.5639,3.5639,3.5639,3.5639,3.5639,3.5622,3.5667,3.58,3.5932,3.6199,3.0355,3.0266,2.9871,2.996,3.0355,3.0836,3.0986,3.0911,3.0583,3.0406,3.0532,3.082,3.1106,3.1429,3.1809,3.2028,3.2461,3.2533,3.2618,3.3241,3.3241,3.3312,3.3312,3.3241,3.3312,3.3312,3.3312,3.3382,3.3577,3.3632,3.3894,3.4129,3.3937,3.3365,3.2467,3.1752,3.1422,3.148,3.1495,3.161,3.1894,3.1951,3.2064,3.2342,3.2342,3.2342,3.2342,3.2342,3.2367,3.2398,3.2398,3.2398,3.2398,3.2398,3.2398,3.2398,3.2398,3.2398,3.2398,3.2398,3.2398,3.2428,3.2398,3.2398,3.2398,3.2398,3.2398,3.2398,3.2398,3.2398,3.2398,3.2413,3.2468,3.2468,3.2711,3.2964,3.3319,3.3818,3.4284,3.4577,3.4927,3.5333,3.547,3.5148,3.5055,3.5178,3.5178,3.5379,3.5424,3.5481,3.5493,3.5133,3.497,3.4953,3.4975,3.5018,3.5182,3.5107,3.5227,3.5526,3.5639,3.5441,3.5487,3.5379,3.5487,3.5639,3.5424,3.5362,3.5622,3.5684,3.5667,3.5756,3.5993,3.6079,3.6191,2.9716,2.9639,2.9238,2.9316,2.9716,3.019,3.0355,3.0266,2.9871,2.9716,2.9781,2.9845,3.0228,3.0607,3.0745,3.1044,3.1636,3.1696,3.1783,3.2475,3.2775,3.2775,3.286,3.3171,3.3312,3.3312,3.3312,3.3312,3.3312,3.3312,3.3507,3.3682,3.3532,3.276,3.1961,3.1521,3.125,3.122,3.1146,3.1204,3.1379,3.148,3.1595,3.1766,3.1879,3.1951,3.2104,3.217,3.225,3.2296,3.2398,3.2398,3.2398,3.2398,3.2398,3.2398,3.2644,3.2705,3.2782,3.3152,3.3152,3.2829,3.2567,3.2413,3.2398,3.2398,3.2398,3.2398,3.2398,3.2398,3.2398,3.2398,3.2398,3.2398,3.2508,3.2749,3.2911,3.3407,3.3767,3.407,3.4366,3.4802,3.5102,3.4818,3.4529,3.4658,3.4785,3.4944,3.5085,3.5144,3.5073,3.4743,3.4499,3.4492,3.4446,3.4481,3.4725,3.4991,3.5131,3.5287,3.5038,3.4738,3.4927,3.5068,3.4927,3.488,3.5005,3.5052,3.527,3.547,3.5622,3.58,3.6122,3.6208,3.6251,2.9094,2.9081,2.9094,2.9003,2.9094,2.9172,2.9081,2.9094,2.9081,2.9238,2.9549,2.9459,2.9614,3.0228,3.0367,3.0519,3.082,3.0807,3.1044,3.1267,3.1796,3.2015,3.239,3.2775,3.3016,3.3171,3.3241,3.3241,3.3241,3.3312,3.3312,3.3297,3.3027,3.2429,3.196,3.1637,3.1343,3.0891,3.0673,3.0792,3.0955,3.0955,3.1073,3.119,3.1263,3.1437,3.1592,3.1708,3.1906,3.2038,3.2231,3.2272,3.2327,3.2382,3.2382,3.2613,3.309,3.3229,3.3521,3.3952,3.3906,3.346,3.2982,3.2644,3.2398,3.2398,3.2398,3.2398,3.2398,3.2398,3.2398,3.2398,3.2398,3.2398,3.2398,3.2508,3.2547,3.2857,3.3145,3.3423,3.3745,3.4066,3.4267,3.4133,3.3947,3.3951,3.402,3.3869,3.407,3.4382,3.4316,3.4145,3.399,3.3976,3.3986,3.4046,3.4242,3.4546,3.4561,3.4625,3.4333,3.4185,3.4382,3.4431,3.4185,3.4185,3.4577,3.4738,3.4833,3.5038,3.5379,3.5783,3.6105,3.6208,3.6251,2.8486,2.8395,2.7926,2.8018,2.8407,2.8486,2.8474,2.8474,2.8474,2.8315,2.7926,2.8075,2.845,2.8371,2.8779,2.9303,2.9679,3.0063,3.0443,3.082,3.1044,3.1563,3.1942,3.2318,3.2618,3.286,3.3016,3.3016,3.3016,3.3086,3.3312,3.3241,3.3073,3.2623,3.221,3.1829,3.109,3.0425,3.0258,3.0251,3.0433,3.0493,3.0613,3.0792,3.0851,3.1029,3.1115,3.1204,3.1362,3.1405,3.1422,3.1495,3.1894,3.1926,3.2093,3.3038,3.3372,3.3583,3.4075,3.4368,3.4398,3.4186,3.3937,3.3244,3.2798,3.2536,3.2536,3.2576,3.2545,3.2545,3.2484,3.2398,3.2398,3.2398,3.2398,3.2453,3.2492,3.2695,3.2949,3.2926,3.3256,3.3477,3.3634,3.3541,3.3419,3.3346,3.3214,3.3124,3.3124,3.3527,3.3652,3.3499,3.3482,3.3482,3.3626,3.3754,3.3906,3.4066,3.403,3.4003,3.3919,3.3869,3.3935,3.3901,3.3764,3.4018,3.4431,3.448,3.4513,3.4883,3.5211,3.565,3.6002,3.6062,3.6105,2.7788,2.7777,2.7383,2.7464,2.7777,2.7777,2.7777,2.7777,2.7777,2.7545,2.7231,2.7371,2.7441,2.7603,2.7926,2.8315,2.8779,2.9015,2.9316,2.9614,3.0291,3.0594,3.1031,3.1489,3.1723,3.2028,3.2259,3.2259,3.2475,3.3016,3.3312,3.3312,3.3312,3.2946,3.244,3.203,3.1439,3.0622,3.0045,2.9874,2.9927,3.005,3.0266,3.0447,3.0493,3.0553,3.0732,3.0718,3.0793,3.0969,3.1028,3.1101,3.141,3.1474,3.1757,3.2613,3.3125,3.3517,3.4061,3.4744,3.4775,3.4682,3.4726,3.4158,3.3621,3.3242,3.309,3.3011,3.2872,3.2709,3.2545,3.2398,3.2398,3.2398,3.2398,3.2398,3.2547,3.2695,3.2656,3.2539,3.2695,3.299,3.3053,3.2951,3.2881,3.2843,3.2803,3.2711,3.2711,3.2911,3.3002,3.2935,3.2919,3.2971,3.3176,3.3367,3.3439,3.3456,3.3361,3.3323,3.3391,3.3355,3.3266,3.3298,3.3398,3.3658,3.3915,3.4115,3.4182,3.4595,3.4947,3.5241,3.5498,3.565,3.5722,2.7231,2.7231,2.7231,2.7231,2.7231,2.7231,2.7231,2.7231,2.7231,2.7231,2.7231,2.7231,2.7301,2.7452,2.7603,2.7684,2.8087,2.8259,2.8407,2.8259,2.916,2.9691,3.0063,3.0443,3.0908,3.0895,3.1119,3.1576,3.2087,3.239,3.2717,3.3086,3.31,3.2765,3.2375,3.2302,3.1893,3.1439,3.0544,3.0073,2.9848,2.9687,2.9602,2.9665,2.9727,2.9851,3.014,3.0334,3.0463,3.0754,3.0829,3.0841,3.1085,3.125,3.1603,3.2224,3.3045,3.358,3.4271,3.4925,3.51,3.5137,3.5202,3.4957,3.456,3.3844,3.3517,3.3357,3.3203,3.3067,3.2857,3.2779,3.2693,3.253,3.2398,3.2398,3.2453,3.2547,3.2492,3.2413,3.2484,3.271,3.2726,3.2647,3.2662,3.2468,3.2437,3.2398,3.2453,3.2547,3.2547,3.2532,3.261,3.2718,3.2843,3.2996,3.2929,3.2855,3.2833,3.2756,3.2895,3.2695,3.2453,3.2703,3.302,3.309,3.3266,3.3603,3.3982,3.4283,3.4546,3.4787,3.4961,3.5131,3.5316,2.7231,2.7231,2.7231,2.7231,2.7231,2.7231,2.7231,2.7231,2.7231,2.7231,2.7231,2.7231,2.7231,2.7301,2.7441,2.7522,2.7615,2.7869,2.795,2.803,2.8486,2.9003,2.9381,2.9768,3.0088,3.0469,3.0758,3.0895,3.1193,3.1429,3.1576,3.1636,3.2015,3.2239,3.216,3.2194,3.2178,3.1926,3.1415,3.074,3.0409,2.9912,2.9602,2.9617,2.9693,2.9679,2.9817,2.9831,2.986,2.9969,2.9936,3.0349,3.105,3.1424,3.2269,3.3191,3.3377,3.3789,3.4324,3.494,3.517,3.5443,3.5576,3.5797,3.5492,3.4516,3.3893,3.3744,3.3563,3.3413,3.3222,3.3104,3.2949,3.2669,3.2398,3.2398,3.2398,3.2398,3.2398,3.2398,3.2398,3.2398,3.2398,3.2398,3.2398,3.2398,3.2398,3.2398,3.2398,3.2453,3.2508,3.2437,3.2453,3.2539,3.2662,3.2733,3.2695,3.2779,3.2756,3.2641,3.2453,3.2563,3.2633,3.2585,3.2671,3.2952,3.3212,3.3479,3.382,3.4118,3.425,3.4448,3.4431,3.4513,3.4849,2.7231,2.7231,2.7231,2.7231,2.7231,2.7231,2.7231,2.7231,2.7231,2.7231,2.7231,2.7231,2.7231,2.7219,2.7301,2.7336,2.7418,2.7615,2.7696,2.7777,2.7947,2.8419,2.8791,2.9008,2.9172,2.9561,3.0075,3.0367,3.0367,3.082,3.1044,3.0882,3.1415,3.1549,3.1656,3.1962,3.2249,3.2263,3.1928,3.1618,3.117,3.0527,3.008,2.9996,2.9799,2.9715,2.9602,2.9602,2.9602,2.9735,2.9959,3.0241,3.087,3.134,3.2162,3.2795,3.3177,3.3556,3.4153,3.4639,3.4986,3.5249,3.5608,3.5649,3.5537,3.4685,3.473,3.4574,3.4272,3.4076,3.3665,3.3452,3.3181,3.2931,3.2588,3.2398,3.2398,3.2398,3.2398,3.2398,3.2398,3.2398,3.2398,3.2398,3.2398,3.2382,3.2398,3.2398,3.2398,3.2398,3.2398,3.2398,3.2398,3.2398,3.2514,3.2561,3.2585,3.2633,3.2695,3.2656,3.2633,3.2742,3.2881,3.2874,3.3006,3.3294,3.3557,3.3665,3.382,3.4084,3.4101,3.4151,3.4101,3.4101,3.4382,2.7001,2.7036,2.7013,2.7024,2.7036,2.7013,2.7001,2.7001,2.7013,2.699,2.6944,2.6944,2.707,2.7208,2.7139,2.7128,2.7036,2.6955,2.7128,2.722,2.738,2.7557,2.7739,2.7937,2.8252,2.8548,2.9052,2.9384,2.9549,2.9999,3.0304,3.0594,3.067,3.0745,3.097,3.1462,3.1834,3.1918,3.1914,3.2278,3.1845,3.1285,3.083,3.0445,3.0164,2.9869,2.9855,2.9869,2.9869,3.0037,3.0403,3.0758,3.1073,3.1612,3.2061,3.2661,3.2993,3.3249,3.3671,3.4196,3.4481,3.4817,3.5169,3.5285,3.5219,3.5299,3.5264,3.5115,3.4818,3.4466,3.4062,3.3803,3.3501,3.3005,3.2645,3.2358,3.2342,3.2327,3.2272,3.2256,3.2281,3.2281,3.2191,3.2247,3.2327,3.2312,3.2382,3.2398,3.2398,3.2398,3.2398,3.2398,3.2398,3.2398,3.2398,3.2428,3.253,3.2499,3.2547,3.2687,3.2812,3.292,3.3112,3.3197,3.3414,3.3561,3.3693,3.3832,3.3984,3.4101,3.4101,3.4101,3.4101,3.4101,3.4101,2.6003,2.6003,2.6003,2.6014,2.6026,2.6026,2.6014,2.6003,2.6037,2.6003,2.6083,2.6106,2.637,2.7185,2.676,2.6611,2.6554,2.6403,2.615,2.6058,2.65,2.6562,2.6795,2.715,2.7329,2.7705,2.8142,2.8336,2.8729,2.8929,2.9028,2.9106,2.9781,2.9922,3.0075,3.0631,3.1182,3.1256,3.1757,3.2031,3.1985,3.161,3.1419,3.1232,3.119,3.1134,3.1134,3.112,3.1134,3.1152,3.1198,3.1474,3.1815,3.2067,3.2541,3.289,3.3141,3.3309,3.377,3.4005,3.4346,3.4631,3.4986,3.5103,3.5154,3.527,3.527,3.521,3.4946,3.4572,3.4266,3.4207,3.3937,3.2899,3.2261,3.2201,3.216,3.1962,3.1819,3.1825,3.1814,3.1687,3.141,3.1582,3.1875,3.1946,3.2231,3.2231,3.2287,3.2342,3.2342,3.2342,3.2272,3.2398,3.2398,3.2398,3.2428,3.2413,3.2508,3.2796,3.2973,3.315,3.3287,3.3498,3.3562,3.3693,3.3841,3.3949,3.4,3.4101,3.4101,3.4101,3.4101,3.4101,3.4101]},{"header":{"parameterUnit":"m.s-1","parameterCategory":1,"la1":31.0,"la2":29.5877,"lo1":-88.7671,"lo2":-86.6584,"dy":0.0162,"dx":0.0185,"nx":115,"ny":88,"refTime":"2023-05-17T06:00:00:Z","depth":0,"parameterNumber":3,"parameterNumberName":"V-component_of_WINDS"},"data":[0.0,0.0,0.0,0.0,0.0,0.0,0.0,0.0,0.0,0.0,0.0,0.0,0.0,0.0,0.0,0.0,0.0,0.0,0.0,0.0,0.0,0.0,0.0,0.0,0.0,0.0,0.0,0.0,0.0,0.0,0.0,0.0,0.0,0.0,0.0,0.0,0.0,0.0,0.0,0.0,0.0,0.0,0.0,0.0,0.0,0.0,0.0,0.0,0.0,0.0,0.0,0.0,0.0,0.0,0.0,0.0,0.0,0.0,0.0,0.0,0.0,0.0,0.0,0.0,0.0,0.0,0.0,0.0,0.0,0.0,0.0,0.0,0.0,0.0,0.0,0.0,0.0,0.0,0.0,0.0,0.0,0.0,0.0,0.0,0.0,0.0,0.0,0.0,0.0,0.0,0.0,0.0,0.0,0.0,0.0,0.0,0.0,0.0,0.0,0.0,0.0,0.0,0.0,0.0,0.0,0.0,0.0,0.0,0.0,0.0,0.0,0.0,0.0,0.0,0.0,0.0,0.0,0.0,0.0,0.0,0.0,0.0,0.0,0.0,0.0,0.0,0.0,0.0,0.0,0.0,0.0,0.0,0.0,0.0,0.0,0.0,0.0,0.0,0.0,0.0,0.0,0.0,0.0,0.0,0.0,0.0,0.0,0.0,0.0,0.0,0.0,0.0,0.0,0.0,0.0,0.0,0.0,0.0,0.0,0.0,0.0,0.0,0.0,0.0,0.0,0.0,0.0,0.0,0.0,0.0,0.0,0.0,0.0,0.0,0.0,0.0,0.0,0.0,0.0,0.0,0.0,0.0,0.0,0.0,0.0,0.0,0.0,0.0,0.0,0.0,0.0,0.0,0.0,0.0,0.0,0.0,0.0,0.0,0.0,0.0,0.0,0.0,0.0,0.0,0.0,0.0,0.0,0.0,0.0,0.0,0.0,0.0,0.0,0.0,0.0,0.0,0.0,0.0,0.0,0.0,0.0,0.0,0.0,0.0,0.0,0.0,0.0,0.0,0.0,0.0,0.0,0.0,0.0,0.0,0.0,0.0,0.0,0.0,0.0,0.0,0.0,0.0,0.0,0.0,0.0,0.0,0.0,0.0,0.0,0.0,0.0,0.0,0.0,0.0,0.0,0.0,0.0,0.0,0.0,0.0,0.0,0.0,0.0,0.0,0.0,0.0,0.0,0.0,0.0,0.0,0.0,0.0,0.0,0.0,0.0,0.0,0.0,0.0,0.0,0.0,0.0,0.0,0.0,0.0,0.0,0.0,0.0,0.0,0.0,0.0,0.0,0.0,0.0,0.0,0.0,0.0,0.0,0.0,0.0,0.0,0.0,0.0,0.0,0.0,0.0,0.0,0.0,0.0,0.0,0.0,0.0,0.0,0.0,0.0,0.0,0.0,0.0,0.0,0.0,0.0,0.0,0.0,0.0,0.0,0.0,0.0,0.0,0.0,0.0,0.0,0.0,0.0,0.0,0.0,0.0,0.0,0.0,0.0,0.0,0.0,0.0,0.0,0.0,0.0,0.0,0.0,0.0,0.0,0.0,0.0,0.0,0.0,0.0,0.0,0.0,0.0,0.0,0.0,0.0,0.0,0.0,0.0,0.0,0.0,0.0,0.0,0.0,0.0,0.0,0.0,0.0,0.0,0.0,0.0,0.0,0.0,0.0,0.0,0.0,0.0,0.0,0.0,0.0,0.0,0.0,0.0,0.0,0.0,0.0,0.0,0.0,0.0,0.0,0.0,0.0,0.0,0.0,0.0,0.0,0.0,0.0,0.0,0.0,0.0,0.0,0.0,0.0,0.0,0.0,0.0,0.0,0.0,0.0,0.0,0.0,0.0,0.0,0.0,0.0,0.0,0.0,0.0,0.0,0.0,0.0,0.0,0.0,0.0,0.0,0.0,0.0,0.0,0.0,0.0,0.0,0.0,0.0,0.0,0.0,0.0,0.0,0.0,0.0,0.0,0.0,0.0,0.0,0.0,0.0,0.0,0.0,0.0,0.0,0.0,0.0,0.0,0.0,0.0,0.0,0.0,0.0,0.0,0.0,0.0,0.0,0.0,0.0,0.0,0.0,0.0,0.0,0.0,0.0,0.0,0.0,0.0,0.0,0.0,0.0,0.0,0.0,0.0,0.0,0.0,0.0,0.0,0.0,0.0,0.0,0.0,0.0,0.0,0.0,0.0,0.0,0.0,0.0,0.0,0.0,0.0,0.0,0.0,0.0,0.0,0.0,0.0,0.0,0.0,0.0,0.0,0.0,0.0,0.0,0.0,0.0,0.0,0.0,0.0,0.0,0.0,0.0,0.0,0.0,0.0,0.0,0.0,0.0,0.0,0.0,0.0,0.0,0.0,0.0,0.0,0.0,0.0,0.0,0.0,0.0,0.0,0.0,0.0,0.0,0.0,0.0,0.0,0.0,0.0,0.0,0.0,0.0,0.0,0.0,0.0,0.0,0.0,0.0,0.0,0.0,0.0,0.0,0.0,0.0,0.0,0.0,0.0,0.0,0.0,0.0,0.0,0.0,0.0,0.0,0.0,0.0,0.0,0.0,0.0,0.0,0.0,0.0,0.0,0.0,0.0,0.0,0.0,0.0,0.0,0.0,0.0,0.0,0.0,0.0,0.0,0.0,0.0,0.0,0.0,0.0,0.0,0.0,0.0,0.0,0.0,0.0,0.0,0.0,0.0,0.0,0.0,0.0,0.0,0.0,0.0,0.0,0.0,0.0,0.0,0.0,0.0,0.0,0.0,0.0,0.0,0.0,0.0,0.0,0.0,0.0,0.0,0.0,0.0,0.0,0.0,0.0,0.0,0.0,0.0,0.0,0.0,0.0,0.0,0.0,0.0,0.0,0.0,0.0,0.0,0.0,0.0,0.0,0.0,0.0,0.0,0.0,0.0,0.0,0.0,0.0,0.0,0.0,0.0,0.0,0.0,0.0,0.0,0.0,0.0,0.0,0.0,0.0,0.0,0.0,0.0,0.0,0.0,0.0,0.0,0.0,0.0,0.0,0.0,0.0,0.0,0.0,0.0,0.0,0.0,0.0,0.0,0.0,0.0,0.0,0.0,0.0,0.0,0.0,0.0,0.0,0.0,0.0,0.0,0.0,0.0,0.0,0.0,0.0,0.0,0.0,0.0,0.0,0.0,0.0,0.0,0.0,0.0,0.0,0.0,0.0,0.0,0.0,0.0,0.0,0.0,0.0,0.0,0.0,0.0,0.0,0.0,0.0,0.0,0.0,0.0,0.0,0.0,0.0,0.0,0.0,0.0,0.0,0.0,0.0,0.0,0.0,0.0,0.0,0.0,0.0,0.0,0.0,0.0,0.0,0.0,0.0,0.0,0.0,0.0,0.0,0.0,0.0,0.0,0.0,0.0,0.0,0.0,0.0,0.0,0.0,0.0,0.0,0.0,0.0,0.0,0.0,0.0,0.0,0.0,0.0,0.0,0.0,0.0,0.0,0.0,0.0,0.0,0.0,0.0,0.0,0.0,0.0,0.0,0.0,0.0,0.0,0.0,0.0,0.0,0.0,0.0,0.0,0.0,0.0,0.0,0.0,0.0,0.0,0.0,0.0,0.0,0.0,0.0,0.0,0.0,0.0,0.0,0.0,0.0,0.0,0.0,0.0,0.0,0.0,0.0,0.0,0.0,0.0,0.0,0.0,0.0,0.0,0.0,0.0,0.0,0.0,0.0,0.0,0.0,0.0,0.0,0.0,0.0,0.0,0.0,0.0,0.0,0.0,0.0,0.0,0.0,0.0,0.0,0.0,0.0,0.0,0.0,0.0,0.0,0.0,0.0,0.0,0.0,0.0,0.0,0.0,0.0,0.0,0.0,0.0,0.0,0.0,0.0,0.0,0.0,0.0,0.0,0.0,0.0,0.0,0.0,0.0,0.0,0.0,0.0,0.0,0.0,0.0,0.0,0.0,0.0,0.0,0.0,0.0,0.0,0.0,0.0,0.0,0.0,0.0,0.0,0.0,0.0,0.0,0.0,0.0,0.0,0.0,0.0,0.0,0.0,0.0,0.0,0.0,0.0,0.0,0.0,0.0,0.0,0.0,0.0,0.0,0.0,0.0,0.0,0.0,0.0,0.0,0.0,0.0,0.0,0.0,0.0,0.0,0.0,0.0,0.0,0.0,0.0,0.0,0.0,0.0,0.0,0.0,0.0,0.0,0.0,0.0,0.0,0.0,0.0,0.0,0.0,0.0,0.0,0.0,0.0,0.0,0.0,0.0,0.0,0.0,0.0,0.0,0.0,0.0,0.0,0.4005,0.0,0.0,0.0,0.0,0.0,0.0,0.0,0.0,0.0,0.0,0.0,0.0,0.0,0.0,0.0,0.0,0.0,0.0,0.0,0.0,0.0,0.0,0.0,0.0,0.0,0.0,0.0,0.0,0.0,0.0,0.0,0.0,0.0,0.0,0.0,0.0,0.0,0.0,0.0,0.0,0.0,0.0,0.0,0.0,0.0,0.0,0.0,0.0,0.0,0.0,0.0,0.0,0.0,0.0,0.0,0.0,0.0,0.0,0.0,0.0,0.0,0.0,0.0,0.0,0.0,0.0,0.0,0.0,0.0,0.0,0.0,0.0,0.0,0.0,0.0,0.0,0.0,0.0,0.0,0.0,0.0,0.0,0.0,0.0,0.0,0.0,0.0,0.0,0.0,0.0,0.0,0.0,0.0,0.0,0.0,0.0,0.0,0.0,0.0,0.0,0.0,0.0,0.0,0.0,0.0,0.0,0.0,0.0,0.0,0.0,0.4238,0.4058,0.4235,0.4174,0.3933,0.0,0.0,0.0,0.0,0.0,0.0,0.0,0.0,0.0,0.0,0.0,0.0,0.0,0.0,0.0,0.0,0.0,0.0,0.0,0.0,0.0,0.0,0.0,0.0,0.0,0.0,0.0,0.0,0.0,0.0,0.0,0.0,0.0,0.0,0.0,0.0,0.0,0.0,0.0,0.0,0.0,0.0,0.0,0.0,0.0,0.0,0.0,0.0,0.0,0.0,0.0,0.0,0.0,0.0,0.0,0.0,0.0,0.0,0.0,0.0,0.0,0.0,0.0,0.0,0.0,0.0,0.0,0.0,0.0,0.0,0.0,0.0,0.0,0.0,0.0,0.0,0.0,0.0,0.0,0.0,0.0,0.0,0.0,0.0,0.0,0.0,0.0,0.0,0.0,0.0,0.0,0.0,0.0,0.0,0.0,0.0,0.0,0.0,0.0,0.0,0.0,0.0,0.0,0.0,0.0,0.0,0.0,0.0,0.0,0.0,0.0,0.0,0.4018,0.408,0.4323,0.0,0.0,0.0,0.0,0.0,0.0,0.0,0.0,0.0,0.0,0.0,0.0,0.0,0.0,0.0,0.0,0.0,0.0,0.0,0.0,0.0,0.0,0.0,0.0,0.0,0.0,0.0,0.0,0.0,0.0,0.0,0.0,0.0,0.0,0.0,0.0,0.0,0.0,0.0,0.0,0.0,0.0,0.0,0.0,0.0,0.0,0.0,0.0,0.0,0.0,0.0,0.0,0.0,0.0,0.0,0.0,0.0,0.0,0.0,0.0,0.0,0.0,0.0,0.0,0.0,0.0,0.0,0.0,0.0,0.0,0.0,0.0,0.0,0.0,0.0,0.0,0.0,0.0,0.0,0.0,0.0,0.0,0.0,0.0,0.0,0.0,0.0,0.0,0.0,0.0,0.0,0.0,0.0,0.0,0.0,0.0,0.0,0.0,0.0,0.0,0.0,0.0,0.0,0.0,0.0,0.0,0.0,0.0,0.0,0.0,0.4268,0.4268,0.4265,0.0,0.5425,0.0,0.0,0.0,0.0,0.0,0.0,0.0,0.0,0.0,0.0,0.0,0.0,0.0,0.0,0.0,0.0,0.0,0.0,0.0,0.0,0.0,0.0,0.0,0.0,0.0,0.0,0.0,0.0,0.0,0.0,0.0,0.0,0.0,0.0,0.0,0.0,0.0,0.0,0.0,0.0,0.0,0.0,0.0,0.0,0.0,0.0,0.0,0.0,0.0,0.0,0.0,0.0,0.0,0.0,0.0,0.0,0.0,0.0,0.0,0.0,0.0,0.0,0.0,0.0,0.0,0.0,0.0,0.0,0.0,0.0,0.0,0.0,0.0,0.0,0.0,0.0,0.0,0.0,0.0,0.0,0.0,0.0,0.0,0.0,0.0,0.0,0.0,0.0,0.0,0.0,0.0,0.0,0.0,0.0,0.0,0.0,0.0,0.0,0.0,0.0,0.0,0.0,0.0,0.0,0.0,0.0,0.0,0.0,0.0,0.0,0.4758,0.4164,0.4361,0.4758,0.0,0.0,0.0,0.0,0.0,0.0,0.0,0.0,0.0,0.0,0.0,0.0,0.0,0.0,0.0,0.0,0.0,0.0,0.0,0.0,0.0,0.0,0.0,0.0,0.0,0.0,0.0,0.0,0.0,0.0,0.0,0.0,0.0,0.0,0.0,0.0,0.0,0.0,0.0,0.0,0.0,0.0,0.0,0.0,0.0,0.0,0.0,0.0,0.0,0.0,0.0,0.0,0.0,0.0,0.0,0.0,0.0,0.0,0.0,0.0,0.0,0.0,0.0,0.0,0.0,0.0,0.0,0.0,0.0,0.0,0.0,0.0,0.0,0.0,0.0,0.0,0.0,0.0,0.0,0.0,0.0,0.0,0.0,0.0,0.0,0.0,0.0,0.0,0.0,0.0,0.0,0.0,0.0,0.0,0.0,0.0,0.0,0.0,0.0,0.0,0.0,0.0,0.0,0.0,0.0,0.0,0.0,0.0,0.0,0.0,0.5665,0.5087,0.4295,0.4425,0.4755,0.5345,0.0,0.0,0.0,0.0,0.0,0.0,0.0,0.0,0.0,0.0,0.0,0.0,0.0,0.0,0.0,0.0,0.0,0.0,0.0,0.0,0.0,0.0,0.0,0.0,0.0,0.0,0.0,0.0,0.0,0.0,0.0,0.0,0.0,0.0,0.0,0.0,0.0,0.0,0.0,0.0,0.0,0.0,0.0,0.0,0.0,0.0,0.0,0.0,0.0,0.0,0.0,0.0,0.0,0.0,0.0,0.0,0.0,0.0,0.0,0.0,0.0,0.0,0.0,0.0,0.0,0.0,0.0,0.0,0.0,0.0,0.0,0.0,0.0,0.0,0.0,0.0,0.0,0.0,0.0,0.0,0.0,0.0,0.0,0.0,0.0,0.0,0.0,0.0,0.0,0.0,0.0,0.0,0.0,0.0,0.0,0.0,0.0,0.0,0.0,0.0,0.0,0.0,0.0,0.0,0.0,0.0,0.0,0.0,0.6854,0.587,0.515,0.4764,0.4489,0.4619,0.0,0.0,0.0,0.0,0.0,0.0,0.0,0.0,0.0,0.0,0.0,0.0,0.0,0.0,0.0,0.0,0.0,0.0,0.0,0.0,0.0,0.0,0.0,0.0,0.0,0.0,0.0,0.0,0.0,0.0,0.0,0.0,0.0,0.0,0.0,0.0,0.0,0.0,0.0,0.0,0.0,0.0,0.0,0.0,0.0,0.0,0.0,0.0,0.0,0.0,0.0,0.0,0.0,0.0,0.0,0.0,0.0,0.0,0.0,0.0,0.0,0.0,0.0,0.0,0.0,0.0,0.0,0.0,0.0,0.0,0.0,0.0,0.0,0.0,0.0,0.0,0.0,0.0,0.0,0.0,0.0,0.0,0.0,0.0,0.0,0.0,0.0,0.0,0.0,0.0,0.0,0.0,0.0,0.0,0.0,0.0,0.0,0.0,0.0,0.0,0.0,0.0,0.0,0.0,0.0,0.0,0.0,0.0,0.0,0.6593,0.5143,0.4422,0.4625,0.4619,0.4882,0.0,0.0,0.0,0.0,0.0,0.0,0.0,0.0,0.0,0.0,0.0,0.0,0.0,0.0,0.0,0.0,0.0,0.0,0.0,0.0,0.0,0.0,0.0,0.0,0.0,0.0,0.0,0.0,0.0,0.0,0.0,0.0,0.0,0.0,0.0,0.0,0.0,0.0,0.0,0.0,0.0,0.0,0.0,0.0,0.0,0.0,0.0,0.0,0.0,0.0,0.0,0.0,0.0,0.0,0.0,0.0,0.0,0.0,0.0,0.0,0.0,0.0,0.0,0.0,0.0,0.0,0.0,0.0,0.0,0.0,0.0,0.0,0.0,0.0,0.0,0.0,0.0,0.0,0.0,0.0,0.0,0.0,0.0,0.0,0.0,0.0,0.0,0.0,0.0,0.0,0.0,0.0,0.0,0.0,0.0,0.0,0.0,0.0,0.0,0.0,0.0,0.0,0.0,0.0,0.0,0.0,0.0,0.0,0.0,0.6334,0.0,0.409,0.4758,0.4752,0.508,0.0,0.0,0.0,0.0,0.0,0.0,0.0,0.0,0.0,0.0,0.0,0.0,0.0,0.0,0.0,0.0,0.0,0.0,0.0,0.0,0.0,0.0,0.0,0.0,0.0,0.0,0.0,0.0,0.0,0.0,0.0,0.0,0.0,0.0,0.0,0.0,0.0,0.0,0.0,0.0,0.0,0.0,0.0,0.0,0.0,0.0,0.0,0.0,0.0,0.0,0.0,0.0,0.0,0.0,0.0,0.0,0.0,0.0,0.0,0.0,0.0,0.0,0.0,0.0,0.0,0.0,0.0,0.0,0.0,0.0,0.0,0.0,0.0,0.0,0.0,0.0,0.0,0.0,0.0,0.0,0.0,0.0,0.0,0.0,0.0,0.0,0.0,0.0,0.0,0.0,0.0,0.0,0.0,0.0,0.0,0.0,0.0,0.0,0.0,0.0,0.0,0.0,0.0,0.0,0.0,0.0,0.0,0.0,0.7917,0.6145,0.4619,0.4289,0.5087,0.4951,0.5279,0.0,0.0,0.0,0.0,0.0,0.0,0.0,0.0,0.0,0.0,0.0,0.0,0.0,0.0,0.0,0.0,0.0,0.0,0.0,0.0,0.0,0.0,0.0,0.0,0.0,0.0,0.0,0.0,0.0,0.0,0.0,0.0,0.0,0.0,0.0,0.0,0.0,0.0,0.0,0.0,0.0,0.0,0.0,0.0,0.0,0.0,0.0,0.0,0.0,0.0,0.0,0.0,0.0,0.0,0.0,0.0,0.0,0.0,0.0,0.0,0.0,0.0,0.0,0.0,0.0,0.0,0.0,0.0,0.0,0.0,0.0,0.0,0.0,0.0,0.0,0.0,0.0,0.0,0.0,0.0,0.0,0.0,0.0,0.0,0.0,0.0,0.0,0.0,0.0,0.0,0.0,0.0,0.0,0.0,0.0,0.0,0.0,0.0,0.0,0.0,0.0,0.0,0.0,0.0,0.0,0.0,0.0,0.0,0.0,0.6666,0.5609,0.5219,0.562,0.5484,0.5679,0.0,0.0,0.0,0.0,0.0,0.0,0.0,0.0,0.0,0.0,0.0,0.0,0.0,0.0,0.0,0.0,0.0,0.0,0.0,0.0,0.0,0.0,0.0,0.0,0.0,0.0,0.0,0.0,0.0,0.0,0.0,0.0,0.0,0.0,0.0,0.0,0.0,0.0,0.0,0.0,0.0,0.0,0.0,0.0,0.0,0.0,0.0,0.0,0.0,0.0,0.0,0.0,0.0,0.0,0.0,0.0,0.0,0.0,0.0,0.0,0.0,0.0,0.0,0.0,0.0,0.0,0.0,0.0,0.0,0.0,0.0,0.0,0.0,0.0,0.0,0.0,0.0,0.0,0.0,0.0,0.0,0.0,0.0,0.0,0.0,0.0,0.0,0.0,0.0,0.0,0.0,0.0,0.0,0.0,0.0,0.0,0.0,0.0,0.0,0.0,0.0,0.0,0.0,0.0,0.0,0.0,0.0,0.0,0.0,0.6868,0.5943,0.5554,0.5822,0.5683,0.5885,0.6354,0.0,0.0,0.0,0.0,0.0,0.0,0.0,0.0,0.0,0.0,0.0,0.0,0.0,0.0,0.0,0.0,0.0,0.0,0.0,0.0,0.0,0.0,0.0,0.0,0.0,0.0,0.0,0.0,0.0,0.0,0.0,0.0,0.0,0.0,0.0,0.0,0.0,0.0,0.0,0.0,0.0,0.0,0.0,0.0,0.0,0.0,0.0,0.0,0.0,0.0,0.0,0.0,0.0,0.0,0.0,0.0,0.0,0.0,0.0,0.0,0.0,0.0,0.0,0.0,0.0,0.0,0.0,0.0,0.0,0.0,0.0,0.0,0.0,0.0,0.0,0.0,0.0,0.0,0.0,0.0,0.0,0.0,0.0,0.0,0.0,0.0,0.0,0.0,0.0,0.0,0.0,0.0,0.0,0.0,0.0,0.0,0.0,0.0,0.0,0.0,0.0,0.0,0.0,0.0,0.0,0.0,0.0,0.0,0.6811,0.5749,0.5348,0.5683,0.5683,0.5885,0.0,0.0,0.0,0.0,0.0,0.0,0.0,0.0,0.0,0.0,0.0,0.0,0.0,0.0,0.0,0.0,0.0,0.0,0.0,0.0,0.0,0.0,0.0,0.0,0.0,0.0,0.0,0.0,0.0,0.0,0.0,0.0,0.0,0.0,0.0,0.0,0.0,0.0,0.0,0.0,0.0,0.0,0.0,0.0,0.0,0.0,0.0,0.0,0.0,0.0,0.0,0.0,0.0,0.0,0.0,0.0,0.0,0.0,0.0,0.0,0.0,0.0,0.0,0.0,0.0,0.0,0.0,0.0,0.0,0.0,0.0,0.0,0.0,0.0,0.0,0.0,0.0,0.0,0.0,0.0,0.0,0.0,0.0,0.0,0.0,0.0,0.0,0.0,0.0,0.0,0.0,0.0,0.0,0.0,0.0,0.0,0.0,0.0,0.0,0.0,0.0,0.0,0.0,0.0,0.0,0.0,0.0,0.0,0.0,0.5951,0.6017,0.6086,0.6218,0.6218,0.6214,0.0,0.0,0.0,0.0,0.0,0.0,0.0,0.0,0.0,0.0,0.0,0.0,0.0,0.0,0.0,0.0,0.0,0.0,0.0,0.0,0.0,0.0,0.0,0.0,0.0,0.0,0.0,0.0,0.0,0.0,0.0,0.0,0.0,0.0,0.0,0.0,0.0,0.0,0.0,0.0,0.0,0.0,0.0,0.0,0.0,0.0,0.0,0.0,0.0,0.0,0.0,0.0,0.0,0.0,0.0,0.0,0.0,0.0,0.0,0.0,0.0,0.0,0.0,0.0,0.0,0.0,0.0,0.0,0.0,0.0,0.0,0.0,0.0,0.0,0.0,0.0,0.0,0.0,0.0,0.0,0.0,0.0,0.0,0.0,0.0,0.0,0.0,0.0,0.0,0.0,0.0,0.0,0.0,0.0,0.0,0.0,0.0,0.0,0.0,0.0,0.0,0.0,0.0,0.0,0.0,0.0,0.0,0.0,0.6218,0.5951,0.6218,0.6354,0.6284,0.6354,0.6354,0.0,0.0,0.0,0.0,0.0,0.0,0.0,0.0,0.0,0.0,0.0,0.0,0.0,0.0,0.0,0.0,0.0,0.0,0.0,0.0,0.0,0.0,0.0,0.0,0.0,0.0,0.0,0.0,0.0,0.0,0.0,0.0,0.0,0.0,0.0,0.0,0.0,0.0,0.0,0.0,0.0,0.0,0.0,0.0,0.0,0.0,0.0,0.0,0.0,0.0,0.0,0.0,0.0,0.0,0.0,0.0,0.0,0.0,0.0,0.0,0.0,0.0,0.0,0.0,0.0,0.0,0.0,0.0,0.0,0.0,0.0,0.0,0.0,0.0,0.0,0.0,0.0,0.0,0.0,0.0,0.0,0.0,0.0,0.0,0.0,0.0,0.0,0.0,0.0,0.0,0.0,0.0,0.0,0.0,0.0,0.0,0.0,0.0,0.0,0.0,0.0,0.0,0.0,0.0,0.0,0.0,0.0,0.0,0.639,0.6406,0.6406,0.634,0.6199,0.6304,0.6284,0.0,0.0,0.0,0.0,0.0,0.0,0.0,0.0,0.0,0.0,0.0,0.0,0.0,0.0,0.0,0.0,0.0,0.0,0.0,0.0,0.0,0.0,0.0,0.0,0.0,0.0,0.0,0.0,0.0,0.0,0.0,0.0,0.0,0.0,0.0,0.0,0.0,0.0,0.0,0.0,0.0,0.0,0.0,0.0,0.0,0.0,0.0,0.0,0.0,0.0,0.0,0.0,0.0,0.0,0.0,0.0,0.0,0.0,0.0,0.0,0.0,0.0,0.0,0.0,0.0,0.0,0.0,0.0,0.0,0.0,0.0,0.0,0.0,0.0,0.0,0.0,0.0,0.0,0.0,0.0,0.0,0.0,0.0,0.0,0.0,0.0,0.0,0.0,0.0,0.0,0.0,0.0,0.0,0.0,0.0,0.0,0.0,0.0,0.0,0.0,0.0,0.0,0.0,0.0,0.0,0.0,0.0,0.0,0.6218,0.6335,0.6339,0.6342,0.6268,0.6289,0.6079,0.0,0.0,0.0,0.0,0.0,0.0,0.0,0.0,0.0,0.0,0.0,0.0,0.0,0.0,0.0,0.0,0.0,0.0,0.0,0.0,0.0,0.0,0.0,0.0,0.0,0.0,0.0,0.0,0.0,0.0,0.0,0.0,0.0,0.0,0.0,0.0,0.0,0.0,0.0,0.0,0.0,0.0,0.0,0.0,0.0,0.0,0.0,0.0,0.2855,0.0,0.0,0.0,0.0,0.0,0.0,0.0,0.0,0.0,0.0,0.0,0.0,0.0,0.0,0.0,0.0,0.0,0.0,0.0,0.0,0.0,0.0,0.0,0.0,0.0,0.0,0.0,0.0,0.0,0.0,0.0,0.0,0.0,0.0,0.0,0.0,0.0,0.0,0.0,0.0,0.0,0.0,0.0,0.0,0.0,0.0,0.0,0.0,0.0,0.0,0.0,0.0,0.0,0.0,0.0,0.0,0.0,0.0,0.0,0.622,0.6297,0.6301,0.623,0.6226,0.6139,0.6047,0.0,0.0,0.0,0.0,0.0,0.0,0.0,0.0,0.0,0.0,0.0,0.0,0.0,0.0,0.0,0.0,0.0,0.0,0.0,0.0,0.0,0.0,0.0,0.0,0.0,0.0,0.0,0.0,0.0,0.0,0.0,0.0,0.0,0.0,0.0,0.0,0.0,0.0,0.0,0.0,0.0,0.0,0.0,0.0,0.0,0.0,0.0,0.0,0.0,0.0,0.0,0.0,0.0,0.0,0.0,0.0,0.0,0.0,0.0,0.0,0.0,0.0,0.0,0.0,0.0,0.0,0.0,0.0,0.0,0.0,0.0,0.0,0.0,0.0,0.0,0.0,0.0,0.0,0.0,0.0,0.0,0.0,0.0,0.0,0.0,0.0,0.0,0.0,0.0,0.0,0.0,0.0,0.0,0.0,0.0,0.0,0.0,0.0,0.0,0.0,0.0,0.0,0.0,0.0,0.0,0.0,0.0,0.627,0.6281,0.6302,0.6306,0.6237,0.6172,0.6096,0.6168,0.6096,0.0,0.0,0.0,0.0,0.0,0.0,0.0,0.0,0.0,0.0,0.0,0.0,0.0,0.0,0.0,0.0,0.0,0.0,0.0,0.0,0.0,0.0,0.0,0.0,0.0,0.0,0.0,0.0,0.0,0.0,0.0,0.0,0.0,0.0,0.0,0.0,0.0,0.0,0.2899,0.3145,0.0,0.0,0.0,0.0,0.0,0.0,0.0,0.0,0.2547,0.0,0.0,0.0,0.0,0.0,0.0,0.0,0.0,0.0,0.0,0.0,0.0,0.0,0.0,0.0,0.0,0.0,0.0,0.0,0.0,0.0,0.0,0.0,0.0,0.0,0.0,0.0,0.0,0.0,0.0,0.0,0.0,0.0,0.0,0.0,0.0,0.0,0.0,0.0,0.0,0.0,0.0,0.0,0.0,0.0,0.0,0.0,0.0,0.0,0.0,0.0,0.0,0.0,0.0,0.0,0.0,0.606,0.6067,0.6132,0.6256,0.6259,0.6263,0.6263,0.6263,0.6263,0.6249,0.0,0.0,0.0,0.0,0.0,0.0,0.0,0.0,0.0,0.0,0.0,0.0,0.0,0.0,0.0,0.0,0.0,0.0,0.0,0.0,0.0,0.0,0.0,0.0,0.0,0.0,0.0,0.0,0.0,0.0,0.0,0.0,0.0,0.0,0.0,0.0,0.0,0.0,0.0,0.3469,0.3484,0.0,0.0,0.0,0.0,0.0,0.0,0.0,0.0,0.1707,0.0,0.0,0.0,0.0,0.0,0.0,0.0,0.0,0.0,0.0,0.0,0.0,0.0,0.0,0.0,0.0,0.0,0.0,0.0,0.0,0.0,0.0,0.0,0.0,0.0,0.0,0.0,0.0,0.0,0.0,0.0,0.0,0.0,0.0,0.0,0.0,0.0,0.0,0.0,0.0,0.0,0.0,0.0,0.0,0.0,0.0,0.0,0.0,0.0,0.0,0.0,0.0,0.0,0.0,0.0,0.5835,0.5768,0.5877,0.5948,0.5951,0.5944,0.6099,0.6099,0.6177,0.0,0.0,0.0,0.0,0.0,0.0,0.0,0.0,0.0,0.0,0.0,0.0,0.0,0.0,0.0,0.0,0.0,0.0,0.0,0.0,0.0,0.0,0.0,0.0,0.0,0.0,0.0,0.0,0.0,0.0,0.0,0.0,0.0,0.0,0.0,0.0,0.0,0.0,0.0,0.0,0.3903,0.3987,0.4938,0.0,0.0,0.0,0.0,0.0,0.0,0.2108,0.1573,0.0,0.0,0.0,0.0,0.0,0.0,0.0,0.0,0.0,0.0,0.0,0.0,0.0,0.0,0.0,0.0,0.0,0.0,0.0,0.0,0.0,0.0,0.0,0.0,0.0,0.0,0.0,0.0,0.0,0.0,0.0,0.0,0.0,0.0,0.0,0.0,0.0,0.0,0.0,0.0,0.0,0.0,0.0,0.0,0.0,0.0,0.0,0.0,0.0,0.0,0.0,0.0,0.0,0.0,0.0,0.5556,0.5562,0.5562,0.5562,0.5562,0.5712,0.586,0.586,0.6018,0.0,0.0,0.0,0.0,0.0,0.0,0.0,0.0,0.0,0.0,0.0,0.0,0.0,0.0,0.0,0.0,0.0,0.0,0.0,0.0,0.0,0.0,0.0,0.0,0.0,0.0,0.0,0.0,0.0,0.0,0.0,0.0,0.0,0.0,0.0,0.0,0.0,0.0,0.0,0.0,0.0,0.4316,0.4872,0.4156,0.0,0.0,0.0,0.0,0.2624,0.2013,0.0,0.0,0.0,0.0,0.0,0.0,0.0,0.0,0.0,0.0,0.0,0.0,0.0,0.0,0.0,0.0,0.0,0.0,0.0,0.0,0.0,0.0,0.0,0.0,0.0,0.0,0.0,0.0,0.0,0.0,0.0,0.0,0.0,0.0,0.0,0.0,0.0,0.0,0.0,0.0,0.0,0.0,0.0,0.0,0.0,0.0,0.0,0.0,0.0,0.0,0.0,0.0,0.0,0.0,0.0,0.0,0.5637,0.5562,0.5562,0.5562,0.5562,0.5712,0.586,0.586,0.6018,0.0,0.0,0.0,0.0,0.0,0.0,0.0,0.0,0.0,0.0,0.0,0.0,0.0,0.0,0.0,0.0,0.0,0.0,0.0,0.0,0.0,0.0,0.0,0.0,0.0,0.0,0.0,0.0,0.0,0.0,0.0,0.0,0.0,0.0,0.0,0.0,0.0,0.0,0.0,0.0,0.0,0.401,0.4556,0.3623,0.3286,0.0,0.0,0.0,0.3897,0.3422,0.0,0.0,0.0,0.0,0.0,0.0,0.0,0.0,0.0,0.0,0.0,0.0,0.0,0.0,0.0,0.0,0.0,0.0,0.0,0.0,0.0,0.0,0.0,0.0,0.0,0.0,0.0,0.0,0.0,0.0,0.0,0.0,0.0,0.0,0.0,0.0,0.0,0.0,0.0,0.0,0.0,0.0,0.0,0.0,0.0,0.0,0.0,0.0,0.0,0.0,0.0,0.0,0.0,0.0,0.0,0.5401,0.5249,0.5249,0.5249,0.5251,0.5401,0.5556,0.5712,0.5712,0.5948,0.0,0.0,0.0,0.0,0.0,0.0,0.0,0.0,0.0,0.0,0.0,0.0,0.0,0.0,0.0,0.0,0.0,0.0,0.0,0.0,0.0,0.0,0.0,0.0,0.0,0.0,0.0,0.0,0.0,0.0,0.0,0.0,0.0,0.0,0.0,0.0,0.0,0.0,0.0,0.0,0.0,0.0,0.496,0.3885,0.0,0.0,0.0,0.3288,0.3623,0.0,0.0,0.0,0.0,0.0,0.0,0.0,0.0,0.0,0.0,0.0,0.0,0.0,0.0,0.0,0.0,0.0,0.0,0.0,0.0,0.0,0.0,0.0,0.0,0.0,0.0,0.0,0.0,0.0,0.0,0.0,0.0,0.0,0.0,0.0,0.0,0.0,0.0,0.0,0.0,0.0,0.0,0.0,0.0,0.0,0.0,0.0,0.0,0.0,0.0,0.0,0.0,0.0,0.0,0.0,0.0,0.0,0.5018,0.5018,0.5018,0.5018,0.5168,0.5323,0.5482,0.5559,0.0,0.0,0.0,0.0,0.0,0.0,0.0,0.0,0.0,0.0,0.0,0.0,0.0,0.0,0.0,0.0,0.0,0.0,0.0,0.0,0.0,0.0,0.0,0.0,0.0,0.0,0.0,-0.2353,0.0,0.0,0.0,0.0,0.0,0.0,0.0,0.0,0.0,0.0,0.0,0.0,0.0,0.0,0.4092,0.5024,0.4154,0.3751,0.0,0.0,0.3931,0.3859,0.4128,0.4071,0.0,0.0,0.0,0.0,0.0,0.0,0.0,0.0,0.0,0.0,0.0,0.0,0.0,0.0,0.0,0.0,0.0,0.0,0.0,0.0,0.0,0.0,0.0,0.0,0.0,0.0,0.0,0.0,0.0,0.0,0.0,0.0,0.0,0.0,0.0,0.0,0.0,0.0,0.0,0.0,0.0,0.0,0.0,0.0,0.0,0.0,0.0,0.0,0.0,0.0,0.0,0.0,0.0,0.0,0.0,0.5018,0.5018,0.5018,0.5018,0.5018,0.5093,0.5323,0.5323,0.5398,0.0,0.0,0.0,0.0,0.0,0.0,0.0,0.0,0.0,0.0,0.0,0.0,0.0,0.0,0.0,0.0,0.0,0.0,0.0,0.0,0.0,0.0,0.0,0.0,0.0,0.0,0.0,0.0,0.0,0.0,0.0,0.0,0.0,0.0,0.0,0.0,0.0,0.0,0.0,0.0,0.0,0.3959,0.4287,0.4284,0.4489,0.0,0.0,0.4455,0.5365,0.5576,0.4987,0.3237,0.0,0.0,0.0,0.0,0.0,0.0,0.0,0.0,0.0,0.0,0.0,0.0,0.0,0.0,0.0,0.0,0.0,0.0,0.0,0.0,0.0,0.0,0.0,0.0,0.0,0.0,0.0,0.0,0.0,0.0,0.0,0.0,0.0,0.0,0.0,0.0,0.0,0.0,0.0,0.0,0.0,0.0,0.0,0.0,0.0,0.0,0.0,0.0,0.0,0.0,0.0,0.0,0.0,0.5018,0.5018,0.5018,0.5018,0.5018,0.509,0.5243,0.5323,0.5323,0.5401,0.0,0.0,0.0,0.0,0.0,0.0,0.0,0.0,0.0,0.0,0.0,0.0,0.0,0.0,0.0,0.0,0.0,0.0,0.0,0.0,0.0,0.0,0.0,0.0,0.0,0.0,0.0,0.0,-0.2284,-0.1879,-0.1678,0.0,0.0,0.0,0.0,0.0,0.0,0.0,0.0,0.0,0.0,0.3944,0.5057,0.4856,0.0,0.0,0.5041,0.4859,0.5722,0.5792,0.5164,0.3627,0.3315,0.0,0.0,0.0,0.0,0.0,0.0,0.0,0.0,0.0,0.0,0.0,0.0,0.0,0.0,0.0,0.0,0.0,0.0,0.0,0.0,0.0,0.0,0.0,0.0,0.0,0.0,0.0,0.0,0.0,0.0,0.0,0.0,0.0,0.0,0.0,0.0,0.0,0.0,0.0,0.0,0.0,0.0,0.0,0.0,0.0,0.0,0.0,0.0,0.0,0.0,0.0,0.0,0.5018,0.5018,0.5018,0.5034,0.5148,0.5221,0.5317,0.5351,0.532,0.5381,0.0,0.0,0.0,0.0,0.0,0.0,0.0,0.0,0.0,0.0,0.0,0.0,0.0,0.0,0.0,0.0,0.0,0.0,0.0,0.0,0.0,0.0,0.0,0.0,0.0,0.0,0.0,0.0,-0.2824,-0.2418,-0.1611,0.0,0.0,0.0,0.0,0.0,0.0,0.0,0.0,0.0,0.0,0.4124,0.5425,0.5222,0.515,0.5659,0.5328,0.5283,0.5871,0.5871,0.5444,0.4461,0.0,0.0,0.0,0.0,0.0,0.0,0.0,0.0,0.0,0.0,0.0,0.0,0.0,0.0,0.0,0.0,0.0,0.0,0.0,0.0,0.0,0.0,0.0,0.0,0.0,0.0,0.0,0.0,0.0,0.0,0.0,0.0,0.0,0.0,0.0,0.0,0.0,0.0,0.0,0.0,0.0,0.0,0.0,0.0,0.0,0.0,0.0,0.0,0.0,0.0,0.0,0.0,0.0,0.0,0.5021,0.4945,0.5075,0.5345,0.5267,0.5241,0.5349,0.5336,0.5278,0.5275,0.0,0.0,0.0,0.0,0.0,0.0,0.0,0.0,0.0,0.0,0.0,0.0,0.0,0.0,0.0,0.0,0.0,0.0,0.0,0.0,0.0,0.0,0.0,0.0,0.0,0.0,-0.3569,-0.3574,-0.2831,0.0,0.0,0.0,0.0,0.0,0.0,0.0,0.0,0.0,0.0,0.3409,0.4354,0.5087,0.5378,0.546,0.5532,0.5788,0.5949,0.5949,0.5949,0.5931,0.0,0.0,0.0,0.0,0.0,0.0,0.0,0.0,0.0,0.0,0.0,0.0,0.0,0.0,0.0,0.0,0.0,0.0,0.0,0.0,0.0,0.0,0.0,0.0,0.0,0.0,0.0,0.0,-0.515,0.0,0.0,0.0,0.0,0.0,0.0,0.0,0.0,0.0,0.0,0.0,-0.0432,-0.037,0.0,0.0,0.0,0.0,0.0,0.0,0.0,0.0,0.0,0.0,0.0,0.0,0.4295,0.4925,0.4044,0.4138,0.5069,0.5242,0.5347,0.5388,0.5352,0.454,0.2675,0.0,0.0,0.0,0.0,0.0,0.0,0.0,0.0,0.0,0.0,0.0,0.0,0.0,0.0,0.0,0.0,0.0,0.0,0.0,0.0,0.0,0.0,0.0,0.0,0.0,-0.3922,0.0,0.0,0.0,0.0,0.0,0.0,0.0,0.0,0.0,0.0,0.0,0.283,0.3196,0.3874,0.4497,0.5333,0.5503,0.5575,0.0,0.0,0.0,0.0,0.0,0.0,0.0,0.0,0.0,0.0,0.0,0.0,0.0,0.0,-0.1313,-0.3559,-0.3963,-0.3818,-0.3534,0.0,0.0,0.0,0.0,0.0,0.0,0.0,0.0,0.0,0.0,0.0,0.0,0.0,0.0,0.0,0.0,-0.5515,0.0,0.0,0.0,0.0,0.0,0.0,0.0,0.0,-0.1167,-0.0887,-0.0813,-0.0834,-0.0844,0.0,-0.0858,-0.0701,0.0,0.0,0.0,0.0,0.0,0.0,0.0,0.0,0.285,0.2766,0.2647,0.2905,0.3565,0.3998,0.427,0.4297,0.4102,0.2946,0.0657,0.074,0.0895,0.0,0.0,0.0,0.0,0.0,0.0,0.0,0.0,0.0,0.0,0.0,0.0,0.0,0.0,0.0,0.0,0.0,0.0,0.0,0.0,0.0,0.0,0.0,-0.4109,0.0,0.0,0.0,0.0,0.0,0.0,0.0,0.0,0.0,0.1109,0.1401,0.2232,0.3969,0.4363,0.477,0.5315,0.0,0.0,0.0,0.0,0.0,0.0,0.0,0.5482,0.5096,0.4937,0.4309,0.2821,0.2668,0.2106,0.023,0.0,0.0,-0.2561,-0.2761,-0.254,-0.2542,-0.2322,-0.2468,-0.3344,-0.3564,-0.3564,0.0,0.0,0.0,0.0,0.0,0.0,0.0,0.0,-0.5728,-0.5789,0.0,-0.5789,0.0,0.0,0.0,0.0,0.0,0.0,0.0,0.0,-0.1647,-0.1213,-0.1291,-0.1321,-0.1257,-0.1336,-0.1257,-0.1257,-0.1178,0.0078,0.0,0.0,0.0,0.0,0.0,0.0,0.0755,-0.1095,0.0672,0.1442,0.0953,0.1561,0.1926,0.1961,0.158,0.0689,-0.0675,-0.1012,-0.1251,-0.1306,-0.0488,0.0,0.0,0.0,0.0,0.0,0.0,0.0,0.0,0.0,0.0,0.0,0.0,0.0,0.0,0.0,0.0,0.0,0.0,0.0,0.0,-0.4385,0.0,0.0,0.0,0.0,0.0,0.0,0.0,0.0,0.0,0.0,0.1141,0.0605,0.1296,0.4462,0.0,0.0,0.0,0.0,0.5323,0.5321,0.5482,0.5562,0.5562,0.5562,0.5323,0.454,0.0,0.0,0.3052,0.2979,0.2353,0.0157,0.0078,-0.0,-0.1106,-0.1392,-0.1465,-0.1906,-0.198,-0.205,-0.2269,-0.2426,-0.235,-0.5237,0.0,0.0,0.0,0.0,-0.5663,-0.5731,-0.5731,-0.58,-0.58,-0.58,-0.58,0.0,0.0,0.0,0.0,0.0,0.0,-0.3065,-0.2322,-0.1614,-0.1244,-0.1322,-0.1332,-0.1336,-0.1336,-0.1336,-0.1336,-0.1258,-0.0879,-0.0161,0.0804,0.0,0.0,0.0,0.0,-0.0,-0.1229,-0.0781,-0.0522,-0.071,-0.0533,-0.0445,-0.0358,-0.0535,-0.0792,-0.1208,-0.1294,-0.1367,-0.1337,-0.1068,0.0,0.0,0.0,0.0,0.0,0.0,0.0,0.0,0.0,0.0,0.0,0.0,0.0,0.0,0.0,0.0,0.0,0.0,0.0,-0.3555,-0.3568,-0.3898,0.0,0.0,0.0,0.0,0.0,0.0,0.0,0.0,0.0,0.1245,0.1551,0.2172,0.0,0.0,0.5018,0.5018,0.5093,0.5093,0.5093,0.0,0.0,0.0,0.5174,0.4935,0.4384,0.4231,0.4077,0.3763,0.3374,0.251,0.0861,0.0313,-0.0312,-0.1388,-0.1692,-0.1847,-0.2233,-0.2308,-0.2382,-0.2614,-0.2769,-0.2921,-0.5511,-0.5424,-0.5417,-0.5612,-0.5841,-0.5986,-0.5983,-0.5986,-0.5983,-0.5983,-0.5986,-0.5983,-0.5983,-0.5983,-0.5983,0.0,0.0,0.0,-0.3142,-0.2303,-0.1638,-0.1336,-0.1336,-0.1336,-0.1336,-0.1336,-0.1348,-0.1275,-0.1275,-0.1305,-0.0911,-0.0083,0.0,0.0,-0.0087,-0.0346,-0.0786,-0.1343,-0.1419,-0.1418,-0.1435,-0.1436,-0.1436,-0.1436,-0.1436,-0.1427,-0.1411,-0.141,-0.1396,-0.1366,-0.1347,-0.1581,0.0,0.0,0.0,0.0,0.0,0.0,0.0,0.0,0.0,0.0,0.0,-0.5535,0.0,0.0,0.0,0.0,-0.4875,-0.4273,-0.3215,-0.3603,0.0,0.0,0.0,0.0,0.0,0.0,0.0,-0.1688,0.0931,0.2747,0.2747,0.3214,0.3522,0.3526,0.4389,0.5018,0.5018,0.0,0.494,0.4859,0.4859,0.4937,0.5018,0.4862,0.4626,0.4151,0.3997,0.3921,0.3688,0.3217,0.2431,0.1175,0.0235,-0.0627,-0.1881,-0.2119,-0.22,-0.2437,-0.2512,-0.2511,-0.2668,-0.2904,-0.3217,-0.5817,-0.5954,-0.5954,-0.6106,-0.6261,-0.6257,-0.6257,-0.6261,-0.6257,-0.6338,-0.6338,-0.6338,-0.6338,-0.6335,-0.6335,0.0,0.0,-0.4375,-0.3519,-0.2588,-0.1805,-0.1414,-0.1414,-0.1417,-0.1339,-0.1341,-0.1372,-0.1388,-0.1307,-0.1337,-0.1364,-0.1389,-0.1393,-0.1393,-0.1395,-0.1421,-0.1436,-0.1436,-0.1436,-0.1436,-0.1436,-0.1436,-0.1436,-0.1436,-0.1436,-0.1436,-0.1436,-0.1436,-0.1422,-0.1482,-0.1478,-0.1891,-0.2941,0.0,0.0,0.0,0.0,0.0,0.0,0.0,0.0,0.0,0.0,0.0,0.0,0.0,0.0,0.0,-0.4789,0.0,-0.2974,-0.3936,0.0,0.0,0.0,0.5042,0.5042,0.2273,0.094,0.2347,0.0,0.0,0.0,0.0,0.4961,0.4977,0.4956,0.5021,0.5029,0.5034,0.4875,0.4739,0.4734,0.4732,0.4831,0.4582,0.4252,0.3921,0.3763,0.3608,0.3219,0.2746,0.2038,0.1096,0.0078,-0.1021,-0.2276,-0.2431,-0.2588,-0.2746,-0.2589,-0.251,-0.2668,-0.2981,-0.3217,-0.6364,-0.6341,-0.6341,-0.6359,-0.6261,-0.6261,-0.6261,-0.6261,-0.6261,-0.6412,-0.6563,-0.6567,-0.6637,-0.6791,-0.6788,-0.6321,-0.5541,-0.5231,-0.4766,-0.3908,-0.3052,-0.2663,-0.2668,-0.2077,-0.1774,-0.1537,-0.1817,-0.1836,-0.1586,-0.1793,-0.1816,-0.1739,-0.1679,-0.1603,-0.1425,-0.1431,-0.1436,-0.1436,-0.1436,-0.1436,-0.1436,-0.1436,-0.1436,-0.1436,-0.1436,-0.1436,-0.1436,-0.1436,-0.1789,-0.2491,-0.1837,-0.1987,-0.3175,-0.5218,0.0,0.0,0.0,0.0,0.0,0.0,0.0,0.0,0.0,-0.6025,-0.5318,0.0,-0.5631,0.0,-0.3606,-0.2666,-0.0938,-0.1647,0.0,0.0,0.2508,0.5042,0.4956,0.4323,0.3456,0.2582,0.3452,0.4277,0.4761,0.4839,0.4784,0.462,0.4816,0.5048,0.5129,0.4988,0.4862,0.4854,0.4784,0.4627,0.4533,0.4234,0.3924,0.3853,0.3532,0.3219,0.3141,0.251,0.1803,0.1019,0.0078,-0.102,-0.2198,-0.251,-0.2982,-0.401,-0.3377,-0.2746,-0.3372,-0.3606,-0.3686,-0.6651,-0.6576,-0.6573,-0.6529,-0.6444,-0.6318,-0.6261,-0.6261,-0.6261,-0.6338,-0.6486,-0.656,-0.6714,-0.6865,-0.6865,-0.663,-0.6167,-0.5777,-0.5416,-0.4993,-0.4128,-0.3834,-0.3871,-0.3515,-0.2964,-0.2476,-0.2615,-0.2472,-0.1965,-0.2007,-0.2117,-0.194,-0.1963,-0.1885,-0.1795,-0.1615,-0.1525,-0.1436,-0.1436,-0.1436,-0.1436,-0.1436,-0.1436,-0.1436,-0.1433,-0.1612,-0.2061,-0.161,-0.2057,-0.34,-0.3805,-0.3953,-0.4208,-0.6462,-0.7246,0.0,0.0,0.0,0.0,0.0,0.0,0.0,0.0,0.0,0.0,0.0,-0.5085,0.0,-0.2823,0.0,-0.0705,0.0392,0.0942,0.0862,0.3137,0.4638,0.4633,0.4841,0.455,0.3499,0.3778,0.4236,0.462,0.4705,0.4719,0.4615,0.4769,0.4872,0.4925,0.4946,0.4886,0.4691,0.4617,0.445,0.4199,0.3991,0.3777,0.3325,0.3236,0.3066,0.2637,0.2312,0.1826,0.118,0.0628,0.0079,-0.0705,-0.1802,-0.2901,-0.3925,-0.4003,-0.3684,-0.3763,-0.3917,-0.4151,-0.6746,-0.6729,-0.6729,-0.6719,-0.6681,-0.6503,-0.6393,-0.6397,-0.6397,-0.6393,-0.6471,-0.6702,-0.685,-0.7002,-0.7083,-0.708,-0.7002,-0.622,-0.5972,-0.608,-0.5278,-0.5007,-0.5178,-0.503,-0.4536,-0.3789,-0.3785,-0.3394,-0.253,-0.2577,-0.2601,-0.2601,-0.2601,-0.2601,-0.2511,-0.2332,-0.2062,-0.1703,-0.1614,-0.1704,-0.1792,-0.1792,-0.1792,-0.1792,-0.1787,-0.2144,-0.3133,-0.2498,-0.2852,-0.4465,-0.6186,-0.6634,-0.5622,-0.7393,-0.8197,0.0,-0.7403,0.0,0.0,0.0,0.0,0.0,0.0,0.0,0.0,-0.4611,-0.4148,-0.3851,-0.2278,-0.1336,-0.1336,0.1415,0.2758,0.1894,0.3153,0.3944,0.388,0.4275,0.4408,0.4155,0.4151,0.429,0.4384,0.4552,0.4639,0.4667,0.4751,0.4744,0.4657,0.4818,0.4816,0.4398,0.4402,0.4253,0.3978,0.3886,0.3539,0.2854,0.2846,0.2837,0.2128,0.204,0.1866,0.1436,0.1189,0.1105,0.126,-0.0784,-0.274,-0.3832,-0.4465,-0.4626,-0.4077,-0.4151,-0.4384,-0.699,-0.6888,-0.6885,-0.6898,-0.7026,-0.6962,-0.6941,-0.6941,-0.6941,-0.7104,-0.7434,-0.7671,-0.7748,-0.7748,-0.7752,-0.7752,-0.7748,-0.7581,-0.7601,-0.755,-0.6726,-0.6407,-0.644,-0.5794,-0.5245,-0.4994,-0.5187,-0.5063,-0.4798,-0.4996,-0.4917,-0.4825,-0.4825,-0.4648,0.0,0.0,0.0,0.0,-0.2956,-0.3224,-0.3933,-0.4022,-0.4024,-0.3933,-0.3568,0.0,-0.4554,-0.5544,-0.5988,-0.6062,-0.6694,0.0,0.0,0.0,0.0,0.0,0.0,0.0,0.0,0.0,0.0,0.0,-0.6876,-0.6347,-0.5101,-0.3679,-0.3137,-0.3694,-0.2278,-0.1336,-0.1336,-0.0707,0.0,0.0966,0.2177,0.2759,0.2313,0.2661,0.2668,0.2333,0.2513,0.2794,0.3354,0.3966,0.4513,0.4404,0.4687,0.4775,0.4418,0.453,0.4604,0.4586,0.441,0.4305,0.4243,0.3626,0.3086,0.2872,0.2436,0.2182,0.2008,0.1672,0.1505,0.1245,0.0983,0.0727,0.121,-0.0794,-0.3066,-0.4467,-0.4865,-0.4859,-0.4387,-0.4384,-0.4384,-0.7011,0.0,-0.7034,-0.7076,0.0,-0.7264,-0.7432,-0.7588,-0.7348,-0.7687,-0.8423,-0.85,-0.8582,-0.866,-0.866,-0.8418,-0.8012,-0.8012,-0.8061,-0.815,-0.7727,-0.7605,-0.7688,-0.7253,-0.6763,-0.624,-0.6307,-0.6071,-0.5539,-0.563,-0.563,-0.5542,-0.5542,-0.545,-0.5359,-0.545,-0.5181,-0.4469,-0.4202,-0.4289,-0.4734,-0.4821,-0.4823,-0.4821,0.0,0.0,0.0,0.0,0.0,0.0,0.0,0.0,0.0,0.0,0.0,-0.8109,-0.8119,-0.7989,-0.7812,-0.7655,-0.7484,-0.7066,-0.6909,-0.6217,-0.462,-0.3325,-0.2598,-0.2521,-0.179,-0.1302,-0.1303,-0.1301,-0.0898,0.0247,0.132,0.1824,0.1593,0.1696,0.1792,0.1709,0.2156,0.2616,0.273,0.3701,0.4335,0.4289,0.4117,0.3939,0.3758,0.4172,0.4608,0.4474,0.4389,0.4285,0.4251,0.353,0.2726,0.2261,0.2084,0.199,0.1714,0.154,0.1366,0.1098,-0.0667,-0.1901,-0.0,-0.1796,-0.4223,-0.495,-0.5192,-0.5189,-0.4937,-0.4777,-0.4701,-0.7296,-0.7272,-0.7269,-0.7436,-0.7591,-0.7591,-0.794,-0.844,0.0,0.0,0.0,-0.9174,-0.9339,-0.9504,-0.9664,-0.9174,-0.8355,-0.8355,-0.8363,-0.8341,-0.8337,-0.8418,-0.8568,-0.8572,-0.8208,-0.7408,-0.7404,-0.6962,-0.6251,-0.6251,-0.6251,-0.6251,-0.6251,-0.6248,-0.634,-0.6337,-0.6248,-0.6068,-0.5531,-0.5354,-0.5531,-0.5531,-0.5531,-0.5528,-0.6239,-0.6681,-0.6773,-0.7937,-0.8388,-0.8032,-0.8396,-0.84,-0.8124,-0.8388,-0.8476,-0.8292,-0.8476,-0.8476,-0.8204,-0.8116,-0.7796,-0.74,-0.702,-0.608,-0.4362,-0.3522,-0.2519,-0.1431,-0.1348,-0.1348,-0.1348,-0.1346,-0.1094,-0.0422,0.0422,0.0931,0.0766,0.095,0.0961,0.0962,0.1683,0.2329,0.2146,0.322,0.4119,0.4121,0.3583,0.2776,0.2776,0.358,0.4293,0.4297,0.4302,0.4302,0.4125,0.3314,0.242,0.1609,0.179,0.1873,0.1496,0.1401,0.1391,0.1373,-0.255,-0.3813,-0.194,-0.3357,-0.5379,-0.5455,-0.5455,-0.5455,-0.5438,-0.5219,-0.5097,-0.8099,-0.7978,-0.7978,-0.7986,-0.8116,-0.8113,-0.8723,-0.9589,-0.8769,-0.8487,-0.8748,-0.9516,-0.977,-0.9856,-1.062,-1.054,-0.9684,-0.9684,-0.9274,0.0,-0.8528,-0.8544,-0.8568,-0.8572,-0.8568,-0.8388,-0.8392,-0.8296,-0.8208,-0.8208,-0.8296,-0.838,-0.8468,-0.8552,-0.8727,-0.8815,-0.8815,-0.8727,-0.7305,-0.6956,-0.7753,-0.7753,-0.7753,-0.7753,-0.8113,-0.8296,-0.8296,-0.8476,-0.8568,-0.848,-0.8568,-0.8568,-0.8476,-0.8568,-0.8568,-0.8568,-0.8568,-0.8476,-0.8201,-0.8384,-0.8288,-0.7822,-0.7537,-0.68,-0.5379,-0.436,-0.3103,-0.1511,-0.1348,-0.1348,-0.1348,-0.135,-0.136,-0.1121,-0.0432,-0.0174,-0.0796,-0.0267,-0.0089,-0.0803,-0.0179,0.0538,0.0895,0.2149,0.3403,0.3941,0.3224,0.2508,0.1969,0.2506,0.3405,0.4121,0.4304,0.4308,0.3948,0.2691,0.1614,0.1436,0.1436,0.1433,0.1427,0.1158,0.1067,0.1244,-0.2714,-0.4957,-0.4676,-0.5199,-0.5588,-0.5655,-0.5572,-0.5477,-0.5482,-0.543,-0.5399,-0.8299,-0.8236,-0.8232,-0.8588,-0.9127,-0.9639,-1.0197,-1.0636,-1.0207,-1.0376,-1.0814,-1.1241,-1.1408,-1.1499,-1.1843,-1.1585,-1.0636,-1.0636,-1.0463,-1.012,-1.0033,-1.0038,-1.0033,-1.0033,-0.9859,-0.9519,-0.9519,-0.9349,-0.9003,-0.9003,-0.9003,-0.9174,-0.9602,-0.9859,-1.0033,-1.0544,-1.0794,-1.0712,-0.9492,-0.9061,-0.9336,-0.9845,-1.0014,-0.985,-1.0033,-1.0033,-1.0033,-0.9113,-0.9018,-1.0033,-1.106,-1.1147,-1.0125,-1.0405,-1.0405,-1.0125,-1.0033,-0.9772,-0.9161,-0.864,-0.8296,-0.7944,-0.768,-0.7271,-0.6608,-0.5553,-0.3907,-0.1651,-0.1392,-0.1394,-0.1395,-0.1395,-0.14,-0.1413,-0.0972,-0.0976,-0.1253,-0.1076,-0.0897,-0.1256,-0.0538,-0.0179,-0.0538,0.0985,0.2148,0.2596,0.188,0.1165,0.0717,0.0896,0.1613,0.2776,0.3676,0.3765,0.2868,0.1343,0.0358,0.0269,0.0448,0.0718,0.0807,0.0358,-0.0896,-0.2243,-0.4366,-0.5502,-0.5673,-0.5711,-0.5667,-0.5742,-0.5656,-0.5567,-0.5567,-0.582,-0.594,-0.9173,-0.9324,-0.9324,-0.9771,-1.0481,-1.1329,-1.1662,-1.1743,-1.1866,-1.2357,-1.2966,-1.279,-1.2705,-1.2705,-1.2875,-1.2528,-1.1666,-1.158,-1.1499,-1.1322,-1.1322,-1.1322,-1.1322,-1.1322,-1.1063,-1.0631,-1.0631,-1.0376,-0.9946,-0.9946,-0.9946,-1.0028,-1.0717,-1.1063,-1.1058,-1.1821,-1.2157,-1.2163,-1.1655,-1.1144,-1.0717,-1.1397,-1.1649,-1.1488,-1.1488,-1.1402,-1.1311,-1.0014,-0.9842,-1.1235,-1.3114,-1.3219,-1.151,-1.1602,-1.1607,-1.1327,-1.1419,-1.116,-1.0289,-0.9161,-0.8464,-0.8288,-0.7852,-0.7683,-0.7503,-0.67,-0.5181,-0.304,-0.1964,-0.1431,-0.1431,-0.1433,-0.1436,-0.1436,-0.1436,-0.1345,-0.1436,-0.1436,-0.1436,-0.1346,-0.0718,-0.0628,-0.0897,0.0,0.1075,0.0985,0.0448,-0.0,-0.0269,-0.0538,-0.0179,0.0895,0.2418,0.2417,0.0805,-0.0447,-0.1254,-0.1434,-0.0986,-0.0448,-0.0269,-0.1253,-0.2959,-0.4768,-0.5486,-0.5741,-0.5744,-0.5733,-0.5719,-0.5708,-0.5703,-0.5716,-0.5971,-0.6492,-0.663,-1.1384,-1.2068,-1.2052,-1.2019,-1.2069,-1.2638,-1.2973,-1.3031,-1.3598,-1.3913,-1.3848,-1.3052,-1.2711,-1.279,-1.3568,-1.3392,-1.2619,-1.2534,-1.21,-1.1408,-1.1322,-1.1322,-1.1408,-1.1327,-1.1408,-1.1563,-1.1563,-1.1649,-1.1649,-1.1643,-1.1815,-1.2072,-1.2334,-1.251,-1.2504,-1.2589,-1.2674,-1.2674,-1.3366,-1.3197,-1.1906,-1.1901,-1.1986,-1.1901,-1.1992,-1.1821,-1.1735,-1.1273,-1.1107,-1.1413,-1.3114,-1.3213,-1.1596,-1.0859,-1.0854,-1.1322,-1.1796,-1.1796,-1.1154,-1.0289,-0.968,-0.941,-0.8632,-0.8113,-0.794,-0.7588,-0.7156,-0.5994,-0.3396,-0.179,-0.1432,-0.1524,-0.1614,-0.1704,-0.1614,-0.1436,-0.1524,-0.1436,-0.1436,-0.1436,-0.1256,-0.1346,-0.1256,-0.0628,-0.0,0.009,-0.0179,-0.0538,-0.1076,-0.1436,-0.1615,-0.1345,-0.0179,-0.0089,-0.1701,-0.2511,-0.2871,-0.3499,-0.2957,-0.2058,-0.1788,-0.2237,-0.3496,-0.5126,-0.5665,-0.5746,-0.5744,-0.5741,-0.5735,-0.6002,-0.6,-0.5994,-0.6605,-0.7217,-0.7183,-1.2287,-1.2576,-1.2581,-1.2819,-1.3234,-1.3898,-1.4237,-1.4224,-1.448,-1.4509,-1.4349,-1.3898,-1.3636,-1.3574,-1.3913,-1.3913,-1.3568,-1.3483,-1.3307,-1.296,-1.296,-1.296,-1.296,-1.296,-1.2784,-1.2522,-1.2607,-1.2528,-1.226,-1.2339,-1.2498,-1.2583,-1.319,-1.3542,-1.3535,-1.4048,-1.4307,-1.4307,-1.4657,-1.4566,-1.4048,-1.388,-1.3795,-1.362,-1.3613,-1.3529,-1.3275,-1.3087,-1.2923,-1.296,-1.3724,-1.373,-1.3052,-1.2687,-1.2687,-1.296,-1.2631,-1.2381,-1.2106,-1.1241,-1.0717,-1.0626,-1.0101,-0.9836,-0.9671,-0.8978,-0.8097,-0.7105,-0.5612,-0.4376,-0.3306,-0.313,-0.3132,-0.313,-0.313,-0.313,-0.313,-0.2598,-0.2331,-0.224,-0.1793,-0.1436,-0.1525,-0.2062,-0.1973,-0.1345,-0.1345,-0.1882,-0.1794,-0.1974,-0.2244,-0.2244,-0.1793,-0.1883,-0.2781,-0.3411,-0.386,-0.4129,-0.4036,-0.3671,-0.358,-0.403,-0.4935,-0.5662,-0.5744,-0.5741,-0.5738,-0.5738,-0.5822,-0.6355,-0.6966,-0.7044,-0.7394,-0.7921,-0.7925,-1.3312,-1.3505,-1.3601,-1.3874,-1.4434,-1.4924,-1.5084,-1.5064,-1.5003,-1.4836,-1.4649,-1.4643,-1.4476,-1.4222,-1.4128,-1.4088,-1.4088,-1.4088,-1.4088,-1.4088,-1.4088,-1.4082,-1.4166,-1.4166,-1.399,-1.3639,-1.3815,-1.3646,-1.33,-1.3372,-1.3444,-1.3535,-1.4139,-1.4482,-1.4482,-1.509,-1.5431,-1.5431,-1.5431,-1.5431,-1.5347,-1.5257,-1.509,-1.4915,-1.4908,-1.4824,-1.4566,-1.4468,-1.43,-1.4166,-1.4257,-1.4257,-1.4088,-1.4082,-1.4075,-1.4082,-1.373,-1.33,-1.313,-1.2186,-1.1666,-1.1666,-1.1316,-1.1047,-1.0961,-1.0269,-0.9109,-0.7752,-0.7362,-0.6593,-0.563,-0.5188,-0.4919,-0.4467,-0.4289,-0.4289,-0.42,-0.3667,-0.3312,-0.3223,-0.2509,-0.1973,-0.2152,-0.3138,-0.3583,-0.2686,-0.3045,-0.3492,-0.2867,-0.3045,-0.3315,-0.3226,-0.3138,-0.2869,-0.2962,-0.3592,-0.4218,-0.4665,-0.475,-0.4748,-0.5018,-0.5471,-0.5652,-0.5652,-0.5822,-0.5902,-0.5899,-0.5899,-0.6438,-0.7411,-0.7933,-0.8009,-0.8097,-0.8715,-0.889,-1.4777,-1.5534,-1.5635,-1.5615,-1.569,-1.5498,-1.5378,-1.5449,-1.5194,-1.506,-1.504,-1.504,-1.4783,-1.4489,-1.4249,-1.4095,-1.4088,-1.4088,-1.4088,-1.4088,-1.4088,-1.4243,-1.4398,-1.4398,-1.4566,-1.4748,-1.4831,-1.5006,-1.509,-1.5173,-1.5257,-1.5264,-1.5257,-1.534,-1.5264,-1.5347,-1.5431,-1.5431,-1.5431,-1.5431,-1.5431,-1.5347,-1.534,-1.5423,-1.534,-1.5257,-1.5082,-1.4992,-1.4824,-1.4398,-1.4755,-1.4692,-1.425,-1.4132,-1.4223,-1.4257,-1.4817,-1.4901,-1.4075,-1.3215,-1.2705,-1.2534,-1.1923,-1.1322,-1.1494,-1.1139,-1.0317,-0.8763,-0.8368,-0.7891,-0.769,-0.7078,-0.618,-0.4823,-0.4465,-0.4554,-0.4465,-0.4554,-0.4289,-0.4111,-0.3401,-0.3135,-0.3227,-0.3848,-0.4383,-0.4291,-0.4469,-0.4559,-0.4645,-0.4912,-0.5006,-0.4736,-0.4018,-0.2946,-0.3044,-0.3946,-0.4752,-0.5109,-0.5196,-0.5191,-0.5463,-0.5735,-0.5733,-0.5908,-0.6257,-0.6337,-0.6145,-0.6498,-0.7394,-0.8193,-0.8544,-0.8711,-0.889,-0.9506,-0.9598,-1.5832,-1.6305,-1.6305,-1.6298,-1.6285,-1.6188,-1.6147,-1.6133,-1.6123,-1.6134,-1.6245,-1.5784,-1.5618,-1.5732,-1.4946,-1.4442,-1.4108,-1.4088,-1.4088,-1.4088,-1.4088,-1.4243,-1.4398,-1.4398,-1.4566,-1.4831,-1.5006,-1.5173,-1.5347,-1.5431,-1.5431,-1.5431,-1.5431,-1.5431,-1.5431,-1.5431,-1.5431,-1.5431,-1.5431,-1.5431,-1.5431,-1.5431,-1.5665,-1.6139,-1.5673,-1.5347,-1.509,-1.5187,-1.5257,-1.5379,-1.4992,-1.4922,-1.5347,-1.5257,-1.5558,-1.6247,-1.6291,-1.5884,-1.5068,-1.465,-1.4139,-1.3652,-1.3307,-1.3045,-1.296,-1.2522,-1.2089,-1.1826,-1.0763,-1.0183,-0.9763,-0.8644,-0.7584,-0.7302,-0.721,-0.7119,-0.6943,-0.6498,-0.588,-0.5085,-0.3571,-0.2948,-0.5107,-0.5916,-0.5727,-0.4919,-0.5272,-0.5539,-0.5359,-0.545,-0.5719,-0.5539,-0.5085,-0.4455,-0.3824,-0.4559,-0.5287,-0.5466,-0.5552,-0.5552,-0.5733,-0.5908,-0.5908,-0.6435,-0.6868,-0.7129,-0.7027,-0.7921,-0.8727,-0.8627,-0.9065,-0.9331,-0.9598,-0.9859,-0.9946,-1.6407,-1.6676,-1.6951,-1.7037,-1.7124,-1.7404,-1.7498,-1.749,-1.749,-1.7642,-1.7819,-1.7264,-1.7078,-1.7055,-1.6588,-1.6053,-1.539,-1.4702,-1.4222,-1.4215,-1.4213,-1.4321,-1.4482,-1.4566,-1.4748,-1.4915,-1.509,-1.5257,-1.5431,-1.5431,-1.5431,-1.5431,-1.5431,-1.5431,-1.5431,-1.5665,-1.5733,-1.553,-1.5959,-1.6139,-1.6034,-1.6131,-1.655,-1.6944,-1.655,-1.6147,-1.6064,-1.6162,-1.6319,-1.6445,-1.5959,-1.5876,-1.6273,-1.607,-1.6476,-1.7516,-1.7384,-1.6772,-1.5959,-1.5801,-1.5394,-1.4657,-1.4496,-1.4496,-1.4489,-1.3977,-1.3822,-1.375,-1.3058,-1.2083,-1.1488,-1.0564,-0.9791,-0.9589,-0.941,-0.9405,-0.9144,-0.8257,-0.7298,-0.616,-0.4725,-0.4819,-0.6456,-0.717,-0.6802,-0.5805,-0.6425,-0.6782,-0.6514,-0.6517,-0.6694,-0.6697,-0.6779,-0.6502,-0.6407,-0.6966,-0.6254,-0.6077,-0.6435,-0.6257,-0.6083,-0.6171,-0.6435,-0.6956,-0.7394,-0.783,-0.8452,-0.9349,-0.9524,-0.9331,-0.9506,-0.9772,-0.9859,-0.9951,-1.0038,-1.6683,-1.6857,-1.7669,-1.8126,-1.8218,-1.8948,-1.9405,-1.9314,-1.9405,-1.9381,-1.9422,-1.9372,-1.8995,-1.884,-1.8702,-1.8594,-1.7739,-1.5886,-1.4977,-1.4922,-1.4732,-1.4769,-1.486,-1.509,-1.5166,-1.5347,-1.5347,-1.5431,-1.5431,-1.5431,-1.5431,-1.5431,-1.5506,-1.5673,-1.5514,-1.6304,-1.6308,-1.5993,-1.696,-1.7552,-1.7218,-1.7552,-1.7844,-1.7997,-1.7925,-1.7917,-1.7997,-1.7917,-1.7755,-1.7738,-1.7755,-1.7527,-1.679,-1.6605,-1.6887,-1.7938,-1.8218,-1.7747,-1.6854,-1.669,-1.6363,-1.5636,-1.5394,-1.547,-1.5387,-1.5304,-1.5025,-1.4566,-1.4058,-1.3581,-1.2857,-1.3047,-1.2733,-1.1068,-1.0611,-1.0529,-1.0351,-0.9492,-0.8372,-0.7248,-0.6523,-0.6969,-0.7163,-0.7524,-0.7602,-0.7591,-0.776,-0.8028,-0.8032,-0.812,-0.8476,-0.856,-0.8292,-0.8017,-0.8748,-0.9393,-0.794,-0.677,-0.7217,-0.7309,-0.7044,-0.6956,-0.7312,-0.7746,-0.8364,-0.8803,-0.9065,-0.9868,-0.9868,-0.9772,-1.0038,-1.0038,-1.0038,-1.0038,-1.0125,-1.7971,-1.8241,-1.9139,-1.9505,-1.9497,-1.9869,-1.996,-1.9951,-1.996,-2.0223,-2.0593,-2.0059,-1.9991,-2.0078,-1.9692,-1.9265,-1.9044,-1.8089,-1.7541,-1.7282,-1.7046,-1.6637,-1.627,-1.6088,-1.5748,-1.5431,-1.5431,-1.5431,-1.5431,-1.5431,-1.5665,-1.6139,-1.6304,-1.6632,-1.7115,-1.7432,-1.7203,-1.679,-1.7527,-1.8095,-1.829,-1.8095,-1.8327,-1.8816,-1.8895,-1.9125,-1.9678,-1.8638,-1.8318,-1.8718,-1.8149,-1.7568,-1.7382,-1.8451,-1.9208,-1.9263,-1.9225,-1.8736,-1.7827,-1.7747,-1.7415,-1.6683,-1.6519,-1.6519,-1.6527,-1.6363,-1.6378,-1.6191,-1.5165,-1.4358,-1.5455,-1.4713,-1.3535,-1.2009,-1.166,-1.1488,-1.1144,-0.984,-0.8281,-0.7323,-0.7143,-0.7234,-0.7425,-0.7782,-0.7955,-0.812,-0.8201,-0.8292,-0.8568,-0.866,-0.8656,-0.8828,-0.8915,-0.9087,-0.945,-0.9722,-0.8903,-0.7914,-0.8006,-0.8097,-0.7834,-0.7834,-0.8185,-0.854,-0.9157,-0.9598,-0.9859,-1.0038,-1.0038,-1.0038,-1.0038,-1.0038,-1.0038,-1.012,-1.0381,-1.9147,-1.9422,-2.0331,-2.0782,-2.0782,-2.1051,-2.132,-2.132,-2.123,-2.1498,-2.1784,-2.1338,-2.1329,-2.1507,-2.1042,-2.0764,-2.0747,-2.0598,-2.0456,-1.9982,-1.8803,-1.8093,-1.7705,-1.7398,-1.707,-1.6633,-1.6448,-1.6394,-1.6394,-1.6394,-1.6624,-1.7107,-1.7188,-1.7432,-1.7997,-1.8327,-1.8178,-1.7675,-1.8488,-1.9161,-1.9366,-1.9161,-1.9204,-1.9687,-1.9775,-2.0098,-2.0479,-1.952,-1.9204,-1.9608,-1.9116,-1.8709,-1.8647,-1.9837,-2.0435,-2.022,-1.9957,-1.9469,-1.8798,-1.8798,-1.8461,-1.773,-1.7488,-1.7407,-1.7334,-1.7261,-1.7383,-1.7383,-1.6798,-1.6335,-1.6812,-1.6304,-1.4844,-1.362,-1.3124,-1.2528,-1.1923,-1.0788,-0.9035,-0.7811,-0.7109,-0.7298,-0.7588,-0.7952,-0.8128,-0.8204,-0.8292,-0.8384,-0.8568,-0.8656,-0.8828,-0.8999,-0.9165,-0.934,-0.9598,-0.9689,-0.9685,-0.924,-0.8886,-0.8715,-0.8452,-0.8715,-0.9069,-0.9244,-0.9685,-0.9772,-1.0038,-1.0038,-1.0038,-1.0038,-1.0033,-1.0207,-1.0381,-1.0549,-1.0895,-2.0322,-2.0413,-2.1329,-2.1784,-2.1872,-2.2589,-2.2872,-2.296,-2.296,-2.296,-2.296,-2.2872,-2.2784,-2.2794,-2.2687,-2.2599,-2.2784,-2.2658,-2.2698,-2.2042,-2.058,-1.9273,-1.8931,-1.8641,-1.8388,-1.8294,-1.804,-1.7878,-1.7683,-1.7764,-1.8078,-1.8078,-1.8078,-1.8158,-1.8479,-1.9054,-1.8991,-1.8637,-1.9769,-2.0411,-2.0508,-2.0489,-2.0489,-2.0489,-2.0489,-2.0566,-2.0557,-2.0401,-2.0411,-2.0566,-2.0401,-2.0323,-2.0489,-2.0576,-2.0537,-2.0508,-2.0371,-2.0108,-1.9942,-1.9775,-1.9441,-1.855,-1.8381,-1.8301,-1.8158,-1.8078,-1.8086,-1.8184,-1.8567,-1.844,-1.7481,-1.7066,-1.659,-1.5484,-1.4314,-1.3385,-1.2504,-1.2072,-1.058,-0.8289,-0.7323,-0.7425,-0.8189,-0.8644,-0.8732,-0.8556,-0.8648,-0.874,-0.8656,-0.874,-0.8999,-0.917,-0.9336,-0.951,-0.9772,-0.9859,-0.9859,-0.9772,-0.9419,-0.9244,-0.9069,-0.9331,-0.9598,-0.9772,-0.9951,-0.9951,-1.0038,-1.0038,-1.0038,-1.0038,-1.0207,-1.0467,-1.0809,-1.1063,-1.166,-2.1329,-2.1418,-2.2325,-2.2687,-2.2784,-2.3057,-2.3135,-2.3135,-2.3135,-2.3222,-2.3135,-2.3144,-2.3144,-2.3057,-2.3135,-2.3047,-2.3135,-2.3135,-2.3144,-2.3018,-2.2495,-2.1265,-2.0162,-1.9449,-1.8987,-1.8745,-1.8689,-1.8263,-1.8014,-1.8158,-1.8407,-1.8975,-1.8975,-1.9283,-1.9844,-2.0089,-2.0148,-1.9944,-2.0285,-2.0644,-2.0644,-2.0644,-2.0576,-2.0576,-2.0566,-2.0566,-2.0576,-2.0576,-2.0576,-2.0576,-2.0576,-2.0576,-2.0576,-2.0654,-2.0761,-2.0722,-2.0449,-2.0186,-2.002,-2.0098,-1.9932,-1.9608,-1.9441,-1.9381,-1.9231,-1.9063,-1.8975,-1.8984,-1.9188,-1.9118,-1.8576,-1.7997,-1.6935,-1.5643,-1.465,-1.3555,-1.2522,-1.2003,-1.1386,-0.9885,-0.862,-0.881,-0.9822,-1.0381,-1.0299,-0.9685,-0.951,-0.9428,-0.917,-0.8999,-0.9257,-0.9257,-0.9423,-0.9685,-0.9859,-0.9946,-0.9951,-0.9946,-0.9859,-0.9772,-0.9685,-0.9772,-0.9859,-0.9951,-0.9951,-1.0038,-1.0038,-1.0038,-1.0038,-1.0125,-1.1018,-1.1635,-1.1591,-1.1746,-1.2595,-2.2422,-2.2511,-2.296,-2.3309,-2.3647,-2.3744,-2.3897,-2.4231,-2.4231,-2.4231,-2.4231,-2.4221,-2.4231,-2.4241,-2.4221,-2.4231,-2.4231,-2.4231,-2.4231,-2.4231,-2.3877,-2.2908,-2.1741,-2.0946,-2.0446,-1.998,-1.9716,-1.9498,-1.9188,-1.9116,-1.9362,-1.9775,-1.9863,-2.0089,-2.0489,-2.0576,-2.0576,-2.0566,-2.0654,-2.0741,-2.0839,-2.0741,-2.0731,-2.0731,-2.0644,-2.0576,-2.0644,-2.0944,-2.0944,-2.0722,-2.0576,-2.0576,-2.0654,-2.1265,-2.1547,-2.1578,-2.1168,-2.0857,-2.0779,-2.0867,-2.0712,-2.0401,-2.0401,-2.0391,-2.0245,-1.9932,-1.9687,-1.9696,-1.9687,-1.9539,-1.9134,-1.8381,-1.7479,-1.6609,-1.5545,-1.4384,-1.3045,-1.296,-1.2631,-1.2015,-1.1295,-1.0838,-1.2164,-1.2353,-1.1721,-1.0916,-1.0463,-1.0376,-1.0115,-0.9772,-0.9689,-0.9854,-0.9859,-1.0033,-1.012,-1.0207,-1.0212,-1.0212,-1.0376,-1.0294,-1.0207,-1.0207,-1.0038,-1.0038,-1.0038,-1.0033,-1.0115,-1.0289,-1.0391,-1.0921,-1.2008,-1.2691,-1.2637,-1.2681,-1.3535,-2.3503,-2.3503,-2.3319,-2.3734,-2.4413,-2.4573,-2.4988,-2.5663,-2.5652,-2.5652,-2.5652,-2.5735,-2.5484,-2.5819,-2.5484,-2.5735,-2.5652,-2.5484,-2.5568,-2.5411,-2.4914,-2.4139,-2.3391,-2.26,-2.208,-2.1675,-2.1423,-2.0944,-2.0536,-2.0469,-2.0566,-2.0489,-2.0566,-2.0566,-2.0654,-2.0654,-2.0644,-2.0644,-2.0809,-2.1003,-2.1023,-2.0926,-2.0829,-2.0741,-2.0654,-2.0722,-2.0944,-2.1318,-2.1548,-2.0954,-2.0672,-2.071,-2.0894,-2.2248,-2.2896,-2.2864,-2.2326,-2.1918,-2.1907,-2.1832,-2.168,-2.1308,-2.1211,-2.1211,-2.1145,-2.076,-2.0459,-2.0459,-2.0235,-1.9844,-1.9301,-1.8567,-1.8078,-1.7666,-1.7098,-1.6041,-1.4824,-1.4334,-1.42,-1.4103,-1.4025,-1.4064,-1.4117,-1.3959,-1.3379,-1.1768,-1.1408,-1.1311,-1.1139,-1.0885,-1.0885,-1.0971,-1.0804,-1.0467,-1.0467,-1.0381,-1.0472,-1.0564,-1.0809,-1.089,-1.0722,-1.0636,-1.0294,-1.0212,-1.0467,-1.0539,-1.0524,-1.0621,-1.0712,-1.1607,-1.2667,-1.3345,-1.3743,-1.3893,-1.4482,-2.3754,-2.3754,-2.4251,-2.4573,-2.4829,-2.5242,-2.5663,-2.583,-2.5819,-2.5986,-2.5819,-2.5819,-2.5902,-2.5819,-2.5986,-2.5819,-2.5986,-2.5986,-2.5819,-2.5735,-2.5652,-2.5484,-2.4893,-2.3831,-2.285,-2.2418,-2.1934,-2.1514,-2.1123,-2.0752,-2.0654,-2.0829,-2.0654,-2.0644,-2.0819,-2.0819,-2.0731,-2.0702,-2.0954,-2.1158,-2.1275,-2.1091,-2.0896,-2.0809,-2.0644,-2.0934,-2.1482,-2.1894,-2.2197,-2.2136,-2.1466,-2.1264,-2.1912,-2.2681,-2.3271,-2.3475,-2.3141,-2.2734,-2.2734,-2.2723,-2.2574,-2.2264,-2.2167,-2.2178,-2.2038,-2.1669,-2.1364,-2.1211,-2.0682,-2.007,-1.9362,-1.9134,-1.8727,-1.8238,-1.7836,-1.7342,-1.6296,-1.547,-1.4846,-1.4271,-1.4122,-1.4122,-1.4064,-1.4077,-1.3521,-1.2619,-1.2431,-1.2334,-1.2163,-1.1992,-1.1992,-1.2083,-1.174,-1.1488,-1.1402,-1.1413,-1.1527,-1.144,-1.1682,-1.1574,-1.1402,-1.1144,-1.089,-1.0895,-1.1068,-1.1139,-1.1203,-1.0802,-1.0792,-1.2049,-1.3326,-1.3926,-1.4523,-1.4846,-1.4999,-2.4584,-2.4659,-2.5326,-2.5735,-2.6069,-2.6472,-2.6741,-2.6999,-2.708,-2.708,-2.708,-2.708,-2.708,-2.708,-2.708,-2.708,-2.7092,-2.708,-2.708,-2.6999,-2.6741,-2.6412,-2.6257,-2.5031,-2.4006,-2.3271,-2.2945,-2.2257,-2.1389,-2.0996,-2.0869,-2.0916,-2.0741,-2.0819,-2.0984,-2.1061,-2.1061,-2.1051,-2.1195,-2.1543,-2.2053,-2.1849,-2.1415,-2.1098,-2.0867,-2.1021,-2.169,-2.2327,-2.2841,-2.3187,-2.3072,-2.2736,-2.3051,-2.3649,-2.4203,-2.4322,-2.3869,-2.3548,-2.3537,-2.3463,-2.339,-2.3095,-2.2966,-2.3051,-2.2925,-2.2574,-2.2264,-2.2188,-2.1497,-2.0575,-1.9534,-1.9599,-1.9283,-1.8807,-1.8567,-1.8238,-1.735,-1.6312,-1.522,-1.4448,-1.4132,-1.4075,-1.4088,-1.4088,-1.4075,-1.3464,-1.3464,-1.3451,-1.362,-1.3451,-1.3105,-1.3021,-1.2766,-1.251,-1.2425,-1.2534,-1.2753,-1.2753,-1.2826,-1.2534,-1.2254,-1.1912,-1.1569,-1.1746,-1.2003,-1.1997,-1.1963,-1.1464,-1.1714,-1.3366,-1.4572,-1.4902,-1.5049,-1.5104,-1.5173,-2.5746,-2.5819,-2.6472,-2.7058,-2.7545,-2.7637,-2.7983,-2.8419,-2.851,-2.8259,-2.851,-2.851,-2.8259,-2.8431,-2.8339,-2.8431,-2.8431,-2.8351,-2.8179,-2.8087,-2.7672,-2.7418,-2.7174,-2.6543,-2.5655,-2.4428,-2.4043,-2.3166,-2.2161,-2.1471,-2.141,-2.1208,-2.0916,-2.0984,-2.1205,-2.1282,-2.1369,-2.1619,-2.1818,-2.2305,-2.3046,-2.2746,-2.2306,-2.1614,-2.1339,-2.1328,-2.2155,-2.2927,-2.3666,-2.4276,-2.4945,-2.4801,-2.4472,-2.4711,-2.5277,-2.5265,-2.4585,-2.436,-2.4264,-2.4264,-2.4143,-2.3875,-2.3772,-2.3906,-2.3986,-2.3644,-2.3338,-2.3032,-2.2489,-2.1247,-1.9781,-1.9866,-1.9844,-1.9371,-1.9292,-1.8966,-1.8175,-1.6984,-1.6064,-1.4747,-1.4287,-1.4082,-1.4173,-1.4173,-1.4243,-1.4405,-1.4398,-1.4566,-1.465,-1.465,-1.4307,-1.4132,-1.388,-1.3828,-1.375,-1.3633,-1.3861,-1.3881,-1.3881,-1.3659,-1.3275,-1.3281,-1.3112,-1.2851,-1.2936,-1.3014,-1.3184,-1.3237,-1.3866,-1.519,-1.5358,-1.5231,-1.5285,-1.5354,-1.5431,-2.6812,-2.6905,-2.7568,-2.7879,-2.8063,-2.8383,-2.8633,-2.8724,-2.8578,-2.851,-2.851,-2.851,-2.851,-2.851,-2.851,-2.851,-2.859,-2.851,-2.851,-2.859,-2.8259,-2.8179,-2.8099,-2.7834,-2.7348,-2.6549,-2.5698,-2.4616,-2.37,-2.2903,-2.2403,-2.1998,-2.1349,-2.1205,-2.1502,-2.1512,-2.1894,-2.2359,-2.2639,-2.3119,-2.3523,-2.3468,-2.2872,-2.2124,-2.1863,-2.2166,-2.2938,-2.4095,-2.4954,-2.5123,-2.5241,-2.5182,-2.5004,-2.5171,-2.5266,-2.5254,-2.5135,-2.4933,-2.4933,-2.5016,-2.5087,-2.5016,-2.4838,-2.4909,-2.4945,-2.4611,-2.425,-2.3959,-2.3213,-2.2004,-2.0596,-2.0489,-1.9932,-1.9529,-1.9371,-1.9222,-1.9002,-1.8504,-1.7654,-1.6072,-1.5082,-1.4088,-1.4173,-1.4257,-1.4419,-1.458,-1.4657,-1.4824,-1.4915,-1.509,-1.509,-1.5082,-1.5082,-1.5056,-1.5106,-1.4958,-1.4951,-1.4818,-1.4811,-1.486,-1.4657,-1.4915,-1.4824,-1.4378,-1.4126,-1.4048,-1.4307,-1.4566,-1.4838,-1.5314,-1.5391,-1.5452,-1.5438,-1.5514,-1.5582,-2.7799,-2.7891,-2.8633,-2.887,-2.8858,-2.9015,-2.8949,-2.8803,-2.8724,-2.8578,-2.851,-2.851,-2.851,-2.851,-2.851,-2.8669,-2.8895,-2.8578,-2.8657,-2.8816,-2.8657,-2.851,-2.851,-2.851,-2.8259,-2.7775,-2.714,-2.6039,-2.485,-2.3996,-2.349,-2.3167,-2.2237,-2.209,-2.2521,-2.2542,-2.2767,-2.3213,-2.3497,-2.3813,-2.4307,-2.4143,-2.3537,-2.3084,-2.2531,-2.268,-2.3559,-2.3948,-2.4813,-2.5182,-2.5312,-2.5312,-2.5312,-2.5312,-2.5312,-2.5312,-2.5312,-2.5312,-2.5312,-2.5312,-2.5241,-2.5312,-2.5312,-2.5312,-2.517,-2.4897,-2.4694,-2.4345,-2.4116,-2.3023,-2.2001,-2.1425,-2.0789,-2.001,-1.9775,-1.9608,-1.9408,-1.9288,-1.8484,-1.7294,-1.5718,-1.4706,-1.4173,-1.4341,-1.4587,-1.4755,-1.4915,-1.5082,-1.5257,-1.5264,-1.5431,-1.5401,-1.5387,-1.5401,-1.5543,-1.5695,-1.5839,-1.5793,-1.5725,-1.5688,-1.5748,-1.5824,-1.5899,-1.5703,-1.547,-1.5228,-1.4985,-1.5068,-1.5249,-1.5431,-1.5597,-1.568,-1.5597,-1.5665,-1.5906,-2.9003,-2.9081,-2.9896,-3.0126,-2.9935,-2.9935,-2.9704,-2.9394,-2.9328,-2.925,-2.8961,-2.8961,-2.8882,-2.8882,-2.8961,-2.9106,-2.9561,-2.9118,-2.9263,-2.9419,-2.9197,-2.8895,-2.8736,-2.8657,-2.8578,-2.8339,-2.8211,-2.7575,-2.6041,-2.4981,-2.4592,-2.408,-2.3198,-2.3043,-2.361,-2.3338,-2.3694,-2.4047,-2.4337,-2.4636,-2.4933,-2.4636,-2.4264,-2.4108,-2.3099,-2.3099,-2.3879,-2.4241,-2.4624,-2.5087,-2.5312,-2.5312,-2.5312,-2.5312,-2.5312,-2.5312,-2.5312,-2.5312,-2.5312,-2.5312,-2.5312,-2.5312,-2.5312,-2.5312,-2.5241,-2.5028,-2.4694,-2.4464,-2.4127,-2.3722,-2.2886,-2.237,-2.1492,-2.0557,-2.0079,-2.001,-1.9566,-1.9314,-1.9199,-1.7895,-1.6226,-1.5674,-1.5582,-1.5311,-1.5726,-1.5492,-1.565,-1.5325,-1.5499,-1.5347,-1.5423,-1.5372,-1.5426,-1.5403,-1.5674,-1.6214,-1.637,-1.6566,-1.6582,-1.6558,-1.655,-1.6624,-1.6698,-1.6772,-1.6535,-1.6296,-1.5891,-1.5613,-1.5823,-1.5988,-1.5876,-1.6072,-1.6476,-1.6714,-1.687,-3.0581,-3.0657,-3.1489,-3.1783,-3.1723,-3.1489,-3.1429,-3.1267,-3.0745,-3.0657,-3.0367,-3.0165,-2.9947,-2.9947,-2.9947,-3.0088,-3.0088,-3.0024,-3.0024,-3.0177,-2.9947,-2.9639,-2.9341,-2.9263,-2.8961,-2.8736,-2.859,-2.8119,-2.714,-2.6081,-2.5451,-2.5033,-2.4203,-2.3599,-2.4215,-2.4059,-2.4276,-2.4791,-2.5087,-2.5312,-2.5523,-2.4707,-2.4337,-2.4097,-2.3834,-2.38,-2.4253,-2.4684,-2.5146,-2.5229,-2.5312,-2.5312,-2.5312,-2.5312,-2.5312,-2.5312,-2.5312,-2.5312,-2.5312,-2.5312,-2.5312,-2.5312,-2.5312,-2.5312,-2.5241,-2.5253,-2.5111,-2.5168,-2.4629,-2.3954,-2.3282,-2.2552,-2.1502,-2.0867,-2.0469,-2.0079,-1.9548,-1.9497,-1.9384,-1.9243,-1.7827,-1.7708,-1.7702,-1.7229,-1.6854,-1.6542,-1.6312,-1.6064,-1.5906,-1.5997,-1.5982,-1.6093,-1.6152,-1.6129,-1.6601,-1.7033,-1.7498,-1.7661,-1.7359,-1.7367,-1.7359,-1.735,-1.7674,-1.7755,-1.7594,-1.7374,-1.6904,-1.6693,-1.6589,-1.6944,-1.7531,-1.7677,-1.7755,-1.7836,-1.7827,-3.1988,-3.1636,-3.1928,-3.2087,-3.2087,-3.2015,-3.1928,-3.1709,-3.1281,-3.0983,-3.082,-3.0456,-3.033,-3.033,-3.033,-3.0469,-3.0696,-3.0469,-3.0545,-3.0633,-3.0482,-3.0177,-2.9947,-2.9871,-2.9574,-2.9118,-2.8949,-2.8755,-2.8005,-2.7377,-2.6712,-2.6304,-2.5327,-2.4905,-2.4921,-2.4791,-2.5016,-2.5312,-2.5465,-2.5535,-2.5535,-2.5158,-2.4791,-2.4791,-2.4684,-2.4696,-2.4779,-2.5016,-2.5312,-2.5312,-2.5312,-2.5312,-2.5312,-2.5312,-2.5312,-2.5312,-2.5312,-2.5312,-2.5312,-2.5312,-2.5312,-2.5312,-2.5312,-2.5312,-2.5312,-2.5324,-2.5277,-2.5254,-2.4751,-2.4196,-2.3649,-2.3012,-2.2402,-2.1776,-2.1088,-2.0547,-2.0079,-1.9863,-1.9734,-1.9673,-1.9613,-1.9304,-1.9092,-1.8584,-1.7942,-1.7432,-1.7277,-1.7196,-1.7115,-1.7196,-1.718,-1.7066,-1.7122,-1.7114,-1.7789,-1.8368,-1.9075,-1.9057,-1.7951,-1.8023,-1.8006,-1.8158,-1.8559,-1.8966,-1.9125,-1.8708,-1.8083,-1.7817,-1.7743,-1.8486,-1.9425,-1.9048,-1.8683,-1.8647,-1.8567,-3.3003,-3.2676,-3.2662,-3.2662,-3.2662,-3.2676,-3.2591,-3.2448,-3.2087,-3.1723,-3.1429,-3.1071,-3.0784,-3.0784,-3.0872,-3.1084,-3.1381,-3.0934,-3.1084,-3.1158,-3.1009,-3.0784,-3.062,-3.0469,-3.0254,-2.9651,-2.9639,-2.9316,-2.8748,-2.8288,-2.7879,-2.7384,-2.6212,-2.5877,-2.588,-2.5606,-2.5535,-2.5758,-2.5606,-2.5606,-2.5535,-2.5394,-2.5241,-2.5241,-2.5312,-2.5312,-2.5312,-2.5312,-2.5312,-2.5312,-2.5312,-2.5312,-2.5312,-2.5312,-2.5312,-2.5312,-2.5312,-2.5312,-2.5312,-2.5312,-2.5312,-2.5312,-2.5312,-2.5312,-2.5312,-2.5312,-2.5289,-2.5278,-2.4825,-2.4478,-2.4192,-2.3644,-2.3224,-2.2628,-2.2014,-2.1405,-2.0867,-2.0401,-2.0098,-2.0039,-2.0048,-2.0205,-1.992,-1.965,-1.9047,-1.8336,-1.8158,-1.8247,-1.8167,-1.8167,-1.806,-1.7946,-1.7734,-1.7983,-1.8904,-1.9635,-2.0381,-2.032,-1.919,-1.8843,-1.8975,-1.9204,-1.9529,-1.9932,-2.0255,-2.0051,-1.9312,-1.9088,-1.894,-1.9561,-1.9935,-1.9687,-1.9463,-1.9487,-1.8975,-3.3604,-3.4264,-3.4196,-3.4182,-3.4128,-3.4264,-3.4196,-3.3977,-3.3687,-3.3269,-3.2761,-3.2372,-3.1936,-3.195,-3.1863,-3.1936,-3.2096,-3.2096,-3.2023,-3.2023,-3.2023,-3.1616,-3.1307,-3.1084,-3.0846,-3.0317,-3.0241,-2.9871,-2.9484,-2.9254,-2.8292,-2.7071,-2.6748,-2.6345,-2.6095,-2.5889,-2.577,-2.584,-2.5618,-2.5535,-2.5535,-2.5382,-2.5312,-2.5312,-2.5312,-2.5312,-2.5312,-2.5312,-2.5312,-2.5312,-2.5312,-2.5312,-2.5312,-2.5312,-2.5312,-2.5312,-2.5312,-2.5312,-2.5312,-2.5312,-2.5312,-2.5312,-2.5312,-2.5312,-2.5312,-2.5312,-2.5301,-2.5242,-2.492,-2.4634,-2.4418,-2.4246,-2.3988,-2.3457,-2.2756,-2.2004,-2.1395,-2.0789,-2.0479,-2.0411,-2.0342,-2.0498,-2.0508,-2.0156,-1.992,-1.9213,-1.9125,-1.9134,-1.8718,-1.8638,-1.8709,-1.8665,-1.8329,-1.8831,-2.006,-2.0596,-2.0605,-2.0624,-1.9998,-1.9942,-2.0177,-2.0333,-2.0177,-2.0333,-2.0489,-2.0566,-2.0576,-2.0108,-1.9872,-2.0264,-2.043,-2.0146,-1.9998,-1.996,-1.9213,-3.4113,-3.4414,-3.4414,-3.4414,-3.4414,-3.4414,-3.4414,-3.4346,-3.3991,-3.3479,-3.2917,-3.2632,-3.2372,-3.2241,-3.2169,-3.2169,-3.2169,-3.2169,-3.2169,-3.2169,-3.2096,-3.2009,-3.185,-3.1703,-3.1482,-3.1009,-3.0859,-3.0545,-3.0024,-2.9947,-2.9149,-2.8187,-2.7459,-2.6712,-2.6369,-2.5847,-2.563,-2.5618,-2.5465,-2.5382,-2.5382,-2.5382,-2.5312,-2.5312,-2.5312,-2.5312,-2.5312,-2.5312,-2.5312,-2.5312,-2.5312,-2.5312,-2.5312,-2.5312,-2.5312,-2.5312,-2.5312,-2.5312,-2.5312,-2.5312,-2.5312,-2.5312,-2.5312,-2.5312,-2.5312,-2.5312,-2.5336,-2.5242,-2.5147,-2.4897,-2.4909,-2.4919,-2.4795,-2.4173,-2.3497,-2.267,-2.2069,-2.1461,-2.0934,-2.0789,-2.0644,-2.0576,-2.0576,-2.0576,-2.0333,-2.0157,-2.0089,-1.9932,-1.9529,-1.9283,-1.9432,-1.9502,-1.9261,-1.9284,-2.043,-2.0624,-2.0566,-2.0634,-2.0634,-2.0576,-2.0576,-2.0576,-2.0489,-2.0566,-2.0576,-2.0576,-2.0576,-2.0576,-2.0576,-2.0576,-2.0566,-2.0498,-2.042,-2.0342,-1.945,-3.4414,-3.4414,-3.4414,-3.4414,-3.4414,-3.4414,-3.4414,-3.4346,-3.4128,-3.3563,-3.2846,-3.2775,-3.2503,-3.2241,-3.2169,-3.2169,-3.2169,-3.2169,-3.2169,-3.2169,-3.2169,-3.2169,-3.2169,-3.2096,-3.1863,-3.1556,-3.1468,-3.1158,-3.062,-3.0545,-2.9935,-2.9164,-2.8276,-2.7533,-2.6372,-2.5743,-2.5382,-2.5312,-2.5312,-2.5312,-2.53,-2.5312,-2.5312,-2.5312,-2.5312,-2.5312,-2.5312,-2.5312,-2.5312,-2.5312,-2.5312,-2.5312,-2.5312,-2.5312,-2.5312,-2.5312,-2.5312,-2.5312,-2.5312,-2.5312,-2.5312,-2.5312,-2.5312,-2.5312,-2.5312,-2.5312,-2.5324,-2.5324,-2.5266,-2.529,-2.5312,-2.5242,-2.5158,-2.4683,-2.407,-2.3316,-2.2798,-2.2199,-2.1603,-2.1165,-2.0944,-2.0576,-2.0644,-2.0644,-2.0644,-2.0479,-2.0401,-2.0333,-2.0245,-2.0089,-2.0245,-2.0245,-2.0226,-2.0333,-2.0623,-2.0682,-2.0712,-2.0594,-2.0613,-2.0634,-2.0576,-2.0576,-2.0576,-2.0576,-2.0576,-2.0576,-2.0576,-2.0576,-2.0576,-2.0576,-2.0566,-2.0566,-2.0333,-2.0177,-1.9529,-3.4414,-3.4414,-3.4414,-3.4481,-3.4481,-3.4414,-3.4414,-3.4414,-3.4399,-3.4031,-3.3465,-3.3115,-3.2704,-3.2516,-3.2588,-3.2516,-3.2372,-3.23,-3.2241,-3.2241,-3.2169,-3.2169,-3.2169,-3.2169,-3.2096,-3.2169,-3.2023,-3.1703,-3.1233,-3.1233,-3.0781,-3.0162,-2.9338,-2.8321,-2.6529,-2.5873,-2.5548,-2.5382,-2.5453,-2.5453,-2.5382,-2.5453,-2.5453,-2.5312,-2.5312,-2.5312,-2.5312,-2.5312,-2.5312,-2.5312,-2.5312,-2.5312,-2.5312,-2.5312,-2.5312,-2.5312,-2.5312,-2.5312,-2.5312,-2.5312,-2.5312,-2.5312,-2.5312,-2.5312,-2.5312,-2.5312,-2.5312,-2.5312,-2.5265,-2.5265,-2.5324,-2.5324,-2.5265,-2.5052,-2.4432,-2.3975,-2.3463,-2.2798,-2.2134,-2.1614,-2.1021,-2.0566,-2.0644,-2.0644,-2.0722,-2.0722,-2.0634,-2.0644,-2.0644,-2.0634,-2.0634,-2.0623,-2.0623,-2.0584,-2.0631,-2.0837,-2.0847,-2.0708,-2.0621,-2.0595,-2.0576,-2.0576,-2.0576,-2.0644,-2.0576,-2.0576,-2.0576,-2.0576,-2.0576,-2.0576,-2.0566,-2.0489,-2.0255,-2.002,-1.945,-3.492,-3.4971,-3.5285,-3.5234,-3.492,-3.4549,-3.4414,-3.4481,-3.4721,-3.4824,-3.4662,-3.438,-3.4095,-3.3851,-3.352,-3.3311,-3.2889,-3.2818,-3.2761,-3.2241,-3.2241,-3.2169,-3.2169,-3.2241,-3.2169,-3.2169,-3.2169,-3.2096,-3.1863,-3.1776,-3.1468,-3.0865,-3.0025,-2.8749,-2.7607,-2.688,-2.6483,-2.6414,-2.6427,-2.6289,-2.5943,-2.5873,-2.5734,-2.5382,-2.5382,-2.5382,-2.5382,-2.5382,-2.5288,-2.5312,-2.5312,-2.5312,-2.5312,-2.5312,-2.5312,-2.5312,-2.5312,-2.5312,-2.5312,-2.5312,-2.5312,-2.5336,-2.5312,-2.5312,-2.5312,-2.5312,-2.5312,-2.5312,-2.5312,-2.5312,-2.5312,-2.5324,-2.5253,-2.5253,-2.4874,-2.4504,-2.3986,-2.3243,-2.2585,-2.2134,-2.1614,-2.1021,-2.0789,-2.1328,-2.1482,-2.1242,-2.1242,-2.0944,-2.0867,-2.0692,-2.0595,-2.0592,-2.0599,-2.0589,-2.0705,-2.1354,-2.1349,-2.1094,-2.0854,-2.0615,-2.0576,-2.0876,-2.0799,-2.0944,-2.0799,-2.0576,-2.0867,-2.0934,-2.0566,-2.0498,-2.0489,-2.0333,-1.9951,-1.9794,-1.9548,-3.5415,-3.5479,-3.5785,-3.5721,-3.5415,-3.5037,-3.492,-3.4971,-3.5285,-3.5415,-3.5335,-3.5255,-3.4927,-3.4595,-3.4447,-3.4177,-3.363,-3.3547,-3.3492,-3.2903,-3.2632,-3.2632,-3.2574,-3.2314,-3.2169,-3.2169,-3.2169,-3.2169,-3.2169,-3.2169,-3.1936,-3.1409,-3.0592,-2.9757,-2.8778,-2.801,-2.7165,-2.702,-2.6837,-2.6769,-2.6564,-2.6414,-2.6277,-2.607,-2.5931,-2.5873,-2.5652,-2.5475,-2.531,-2.5346,-2.5312,-2.5312,-2.5312,-2.5312,-2.5312,-2.5312,-2.5504,-2.5552,-2.5612,-2.5901,-2.5901,-2.5648,-2.5444,-2.5324,-2.5312,-2.5312,-2.5312,-2.5312,-2.5312,-2.5312,-2.5312,-2.5312,-2.5312,-2.5312,-2.517,-2.4791,-2.4576,-2.3829,-2.3316,-2.2872,-2.2531,-2.1852,-2.1405,-2.1863,-2.2317,-2.208,-2.1842,-2.1624,-2.1395,-2.1221,-2.1074,-2.0979,-2.1453,-2.1868,-2.2157,-2.2499,-2.2229,-2.1548,-2.1318,-2.1098,-2.1471,-2.1918,-2.1614,-2.1385,-2.1614,-2.169,-2.1451,-2.1375,-2.1088,-2.0789,-2.0566,-2.0255,-1.9715,-1.9557,-1.9478,-3.5928,-3.5913,-3.5928,-3.5976,-3.5928,-3.5864,-3.5913,-3.5928,-3.5913,-3.5785,-3.5529,-3.5578,-3.5449,-3.4927,-3.478,-3.4647,-3.438,-3.4365,-3.4177,-3.3973,-3.3506,-3.3297,-3.296,-3.2632,-3.2444,-3.2314,-3.2241,-3.2241,-3.2241,-3.2169,-3.2169,-3.2015,-3.1478,-3.0774,-2.9934,-2.899,-2.7975,-2.7572,-2.7377,-2.7242,-2.7027,-2.7027,-2.6892,-2.6756,-2.6701,-2.6496,-2.6158,-2.5677,-2.5493,-2.5484,-2.5523,-2.5441,-2.537,-2.53,-2.53,-2.548,-2.5853,-2.5961,-2.619,-2.6526,-2.649,-2.6142,-2.5769,-2.5504,-2.5312,-2.5312,-2.5312,-2.5312,-2.5312,-2.5312,-2.5312,-2.5312,-2.5312,-2.5312,-2.5312,-2.517,-2.5087,-2.4647,-2.4192,-2.3841,-2.3519,-2.3086,-2.2788,-2.3023,-2.3331,-2.3117,-2.2947,-2.3169,-2.2872,-2.2435,-2.2179,-2.1648,-2.2285,-2.3461,-2.3687,-2.329,-2.3315,-2.2649,-2.2231,-2.2059,-2.251,-2.2734,-2.2435,-2.236,-2.2734,-2.2734,-2.2134,-2.1918,-2.1766,-2.1471,-2.0944,-2.0245,-1.9706,-1.9557,-1.9478,-3.6461,-3.6507,-3.6892,-3.6846,-3.6523,-3.6461,-3.6445,-3.6445,-3.6445,-3.6569,-3.6892,-3.6754,-3.6415,-3.6477,-3.618,-3.5706,-3.537,-3.5044,-3.4714,-3.438,-3.4177,-3.3699,-3.3367,-3.303,-3.2761,-3.2574,-3.2444,-3.2444,-3.2444,-3.2372,-3.2169,-3.2101,-3.1938,-3.1504,-3.0834,-3.0073,-2.9119,-2.8372,-2.8093,-2.7842,-2.7643,-2.7577,-2.7443,-2.7242,-2.7175,-2.6973,-2.6693,-2.5952,-2.5853,-2.6352,-2.6483,-2.6427,-2.5943,-2.5624,-2.5414,-2.6045,-2.619,-2.6238,-2.6622,-2.6851,-2.6875,-2.6829,-2.6514,-2.5973,-2.5624,-2.542,-2.542,-2.5337,-2.5313,-2.5313,-2.5265,-2.5312,-2.5312,-2.5312,-2.5312,-2.5241,-2.5158,-2.4862,-2.4492,-2.4587,-2.4273,-2.41,-2.3881,-2.4146,-2.4281,-2.4116,-2.4131,-2.4288,-2.4288,-2.3694,-2.3345,-2.2809,-2.2904,-2.3993,-2.3655,-2.3198,-2.3631,-2.3743,-2.3279,-2.2936,-2.3095,-2.3169,-2.3106,-2.3191,-2.3423,-2.3054,-2.2467,-2.2392,-2.2413,-2.1797,-2.1262,-2.0479,-1.9854,-1.9784,-1.9706,-3.7044,-3.7029,-3.7345,-3.7285,-3.7029,-3.7029,-3.7029,-3.7029,-3.7029,-3.7225,-3.748,-3.7329,-3.7254,-3.7134,-3.6892,-3.6569,-3.618,-3.5991,-3.5721,-3.5449,-3.4846,-3.4581,-3.4163,-3.3768,-3.3575,-3.3311,-3.3115,-3.3115,-3.2903,-3.2444,-3.2169,-3.2169,-3.2169,-3.1816,-3.1327,-3.0796,-3.0228,-2.9443,-2.8888,-2.8473,-2.8276,-2.8145,-2.7855,-2.7656,-2.7577,-2.751,-2.731,-2.6585,-2.6886,-2.7159,-2.7211,-2.7275,-2.6709,-2.6177,-2.6295,-2.6884,-2.7185,-2.7507,-2.7953,-2.801,-2.7785,-2.7588,-2.7375,-2.6928,-2.6505,-2.6324,-2.5853,-2.5445,-2.5338,-2.5326,-2.5313,-2.5312,-2.5312,-2.5312,-2.5312,-2.5312,-2.5087,-2.4862,-2.4945,-2.5194,-2.5088,-2.486,-2.4907,-2.517,-2.523,-2.4861,-2.4719,-2.4874,-2.4874,-2.4576,-2.442,-2.4149,-2.4137,-2.4397,-2.3883,-2.3582,-2.3852,-2.4196,-2.4127,-2.3879,-2.3818,-2.3902,-2.4059,-2.4082,-2.4043,-2.3677,-2.3309,-2.3119,-2.3056,-2.2359,-2.1731,-2.1175,-2.0702,-2.0479,-2.0313,-3.748,-3.748,-3.748,-3.748,-3.748,-3.748,-3.748,-3.748,-3.748,-3.748,-3.748,-3.748,-3.7405,-3.727,-3.7134,-3.7074,-3.6769,-3.6662,-3.6523,-3.6662,-3.5849,-3.5385,-3.5044,-3.4714,-3.4327,-3.4312,-3.4109,-3.3713,-3.3227,-3.296,-3.2717,-3.2372,-3.2386,-3.2198,-3.1815,-3.133,-3.0798,-3.0228,-2.9496,-2.8915,-2.8698,-2.8668,-2.8587,-2.8522,-2.8457,-2.8327,-2.8106,-2.804,-2.816,-2.7812,-2.7758,-2.7891,-2.7501,-2.7165,-2.7472,-2.7889,-2.8223,-2.868,-2.9012,-2.9176,-2.8934,-2.858,-2.8126,-2.7806,-2.749,-2.7041,-2.6542,-2.5828,-2.5708,-2.5373,-2.5326,-2.5266,-2.5314,-2.5301,-2.5312,-2.5312,-2.5241,-2.5087,-2.5158,-2.5324,-2.5265,-2.5099,-2.5111,-2.5278,-2.529,-2.5253,-2.5229,-2.5312,-2.5241,-2.5087,-2.5087,-2.5075,-2.4909,-2.4767,-2.4861,-2.4527,-2.4255,-2.4422,-2.4517,-2.4684,-2.4564,-2.4862,-2.5241,-2.4981,-2.4657,-2.4597,-2.4391,-2.3858,-2.3246,-2.2799,-2.2327,-2.1949,-2.1634,-2.1318,-2.1011,-3.748,-3.748,-3.748,-3.748,-3.748,-3.748,-3.748,-3.748,-3.748,-3.748,-3.748,-3.748,-3.748,-3.7405,-3.7254,-3.7194,-3.715,-3.6984,-3.6923,-3.6862,-3.6461,-3.5976,-3.5642,-3.532,-3.5073,-3.4743,-3.4461,-3.4312,-3.4041,-3.3851,-3.3713,-3.363,-3.3297,-3.2807,-3.2583,-3.2053,-3.1346,-3.1101,-3.0337,-2.9686,-2.9494,-2.8885,-2.8587,-2.86,-2.8549,-2.8536,-2.8419,-2.8433,-2.846,-2.8316,-2.8408,-2.8425,-2.8328,-2.8294,-2.855,-2.898,-2.9271,-2.9632,-2.9969,-2.9974,-2.9642,-2.9347,-2.8938,-2.8602,-2.8232,-2.7826,-2.7324,-2.6602,-2.6104,-2.5755,-2.5492,-2.5517,-2.5397,-2.5409,-2.5312,-2.5312,-2.5312,-2.5312,-2.5312,-2.5312,-2.5312,-2.5312,-2.5312,-2.5312,-2.5312,-2.5312,-2.5312,-2.5312,-2.5312,-2.5241,-2.517,-2.5229,-2.5241,-2.5194,-2.529,-2.523,-2.4862,-2.4589,-2.4684,-2.4933,-2.5241,-2.5099,-2.504,-2.523,-2.5183,-2.4944,-2.4464,-2.3661,-2.3136,-2.2905,-2.2777,-2.2478,-2.2467,-2.2306,-2.1776,-3.748,-3.748,-3.748,-3.748,-3.748,-3.748,-3.748,-3.748,-3.748,-3.748,-3.748,-3.748,-3.748,-3.7464,-3.7405,-3.7282,-3.7222,-3.715,-3.7089,-3.7029,-3.6753,-3.6538,-3.6196,-3.5821,-3.5864,-3.5544,-3.5059,-3.478,-3.478,-3.438,-3.4177,-3.4298,-3.3837,-3.3685,-3.3504,-3.2668,-3.2109,-3.2122,-3.1239,-3.0801,-3.0365,-2.9738,-2.9048,-2.8967,-2.8777,-2.8695,-2.8587,-2.8587,-2.8587,-2.859,-2.8554,-2.8824,-2.904,-2.9482,-2.9861,-3.0183,-3.0401,-3.048,-3.0751,-3.0646,-3.0279,-2.9973,-2.9484,-2.9127,-2.9294,-2.8975,-2.9013,-2.8374,-2.8126,-2.7841,-2.714,-2.6968,-2.6275,-2.5961,-2.5575,-2.5312,-2.5312,-2.5312,-2.5312,-2.5312,-2.5312,-2.5312,-2.5312,-2.5312,-2.5312,-2.53,-2.5312,-2.5312,-2.5312,-2.5312,-2.5312,-2.5312,-2.5312,-2.5312,-2.5289,-2.5325,-2.523,-2.504,-2.4862,-2.4945,-2.504,-2.4897,-2.4778,-2.4885,-2.4872,-2.4748,-2.4157,-2.3463,-2.3136,-2.299,-2.3001,-2.2927,-2.3001,-2.3001,-2.2542,-3.7164,-3.7212,-3.718,-3.7196,-3.7212,-3.718,-3.7164,-3.7164,-3.718,-3.7148,-3.7085,-3.7085,-3.7259,-3.7449,-3.7354,-3.7338,-3.7212,-3.6762,-3.6829,-3.6786,-3.6667,-3.624,-3.615,-3.6244,-3.5999,-3.589,-3.5558,-3.5488,-3.5529,-3.5124,-3.4861,-3.4581,-3.4514,-3.4447,-3.4245,-3.3739,-3.3254,-3.2765,-3.2194,-3.1858,-3.1294,-3.061,-2.9902,-2.9401,-2.9129,-2.8845,-2.8831,-2.8845,-2.8845,-2.8754,-2.8852,-2.9188,-2.9876,-3.0527,-3.0961,-3.1267,-3.1173,-3.1414,-3.1536,-3.1198,-3.0911,-3.0533,-3.0037,-2.9871,-2.9947,-2.9883,-2.9985,-2.9859,-2.9606,-2.9567,-2.8836,-2.7989,-2.7249,-2.6371,-2.5851,-2.5394,-2.5382,-2.537,-2.5441,-2.5429,-2.5334,-2.5334,-2.5606,-2.5535,-2.537,-2.5358,-2.53,-2.5312,-2.5312,-2.5312,-2.5312,-2.5312,-2.5312,-2.5312,-2.5312,-2.5336,-2.5301,-2.5277,-2.5087,-2.4969,-2.4838,-2.4694,-2.4502,-2.4452,-2.4388,-2.4384,-2.4033,-2.3361,-2.3139,-2.3001,-2.3001,-2.3001,-2.3001,-2.3001,-2.3001,-3.5789,-3.5789,-3.5789,-3.5805,-3.5821,-3.5821,-3.5805,-3.5789,-3.5837,-3.5789,-3.59,-3.5932,-3.6295,-3.7417,-3.6832,-3.6627,-3.6548,-3.6174,-3.5827,-3.5701,-3.5812,-3.5571,-3.5397,-3.5543,-3.5455,-3.546,-3.5539,-3.5784,-3.5795,-3.5885,-3.6006,-3.5943,-3.5335,-3.519,-3.5059,-3.447,-3.3733,-3.3371,-3.303,-3.2737,-3.1985,-3.1199,-3.0473,-3.0161,-3.012,-3.0066,-3.0066,-3.0052,-3.0066,-2.9821,-2.9348,-2.9738,-3.0456,-3.1375,-3.17,-3.1762,-3.1726,-3.1748,-3.1629,-3.1434,-3.1061,-3.0773,-3.0279,-3.0114,-3.0024,-2.9858,-2.9858,-2.9807,-2.9847,-3.0722,-3.0183,-2.9087,-2.8225,-2.712,-2.6359,-2.5844,-2.5581,-2.5767,-2.5881,-2.5656,-2.542,-2.5889,-2.6709,-2.6383,-2.5812,-2.5755,-2.5523,-2.5523,-2.5453,-2.5382,-2.5382,-2.5382,-2.5441,-2.5312,-2.5312,-2.5312,-2.5336,-2.5324,-2.517,-2.4826,-2.4622,-2.4418,-2.4296,-2.4004,-2.405,-2.4033,-2.3586,-2.3224,-2.315,-2.3001,-2.3001,-2.3001,-2.3001,-2.3001,-2.3001]}]]